[[{"header":{"parameterUnit":"m.s-1","parameterCategory":1,"la1":30.6,"la2":28.766,"lo1":-90.7593,"lo2":-88.6598,"dy":0.0162,"dx":0.0183,"nx":116,"ny":114,"refTime":"2023-05-07T12:00:00:Z","depth":0,"parameterNumber":2,"parameterNumberName":"U-component_of_WINDS"},"data":[0.0,0.0,0.0,0.0,0.0,0.0,0.0,0.0,0.0,0.0,0.0,0.0,0.0,0.0,0.0,0.0,0.0,0.0,0.0,0.0,0.0,0.0,0.0,0.0,0.0,0.0,0.0,0.0,0.0,0.0,0.0,0.0,0.0,0.0,0.0,0.0,0.0,0.0,0.0,0.0,0.0,0.0,0.0,0.0,0.0,0.0,0.0,0.0,0.0,0.0,0.0,0.0,0.0,0.0,0.0,0.0,0.0,0.0,0.0,0.0,0.0,0.0,0.0,0.0,0.0,0.0,0.0,0.0,0.0,0.0,0.0,0.0,0.0,0.0,0.0,0.0,0.0,0.0,0.0,0.0,0.0,0.0,0.0,0.0,0.0,0.0,0.0,0.0,0.0,0.0,0.0,0.0,0.0,0.0,0.0,0.0,0.0,0.0,0.0,0.0,0.0,0.0,0.0,0.0,0.0,0.0,0.0,0.0,0.0,0.0,0.0,0.0,0.0,0.0,0.0,0.0,0.0,0.0,0.0,0.0,0.0,0.0,0.0,0.0,0.0,0.0,0.0,0.0,0.0,0.0,0.0,0.0,0.0,0.0,0.0,0.0,0.0,0.0,0.0,0.0,0.0,0.0,0.0,0.0,0.0,0.0,0.0,0.0,0.0,0.0,0.0,0.0,0.0,0.0,0.0,0.0,0.0,0.0,0.0,0.0,0.0,0.0,0.0,0.0,0.0,0.0,0.0,0.0,0.0,0.0,0.0,0.0,0.0,0.0,0.0,0.0,0.0,0.0,0.0,0.0,0.0,0.0,0.0,0.0,0.0,0.0,0.0,0.0,0.0,0.0,0.0,0.0,0.0,0.0,0.0,0.0,0.0,0.0,0.0,0.0,0.0,0.0,0.0,0.0,0.0,0.0,0.0,0.0,0.0,0.0,0.0,0.0,0.0,0.0,0.0,0.0,0.0,0.0,0.0,0.0,0.0,0.0,0.0,0.0,0.0,0.0,0.0,0.0,0.0,0.0,0.0,0.0,0.0,0.0,0.0,0.0,0.0,0.0,0.0,0.0,0.0,0.0,0.0,0.0,0.0,0.0,0.0,0.0,0.0,0.0,0.0,0.0,0.0,0.0,0.0,0.0,0.0,0.0,0.0,0.0,0.0,0.0,0.0,0.0,0.0,0.0,0.0,0.0,0.0,0.0,0.0,0.0,0.0,0.0,0.0,0.0,0.0,0.0,0.0,0.0,0.0,0.0,0.0,0.0,0.0,0.0,0.0,0.0,0.0,0.0,0.0,0.0,0.0,0.0,0.0,0.0,0.0,0.0,0.0,0.0,0.0,0.0,0.0,0.0,0.0,0.0,0.0,0.0,0.0,0.0,0.0,0.0,0.0,0.0,0.0,0.0,0.0,0.0,0.0,0.0,0.0,0.0,0.0,0.0,0.0,0.0,0.0,0.0,0.0,0.0,0.0,0.0,0.0,0.0,0.0,0.0,0.0,0.0,0.0,0.0,0.0,0.0,0.0,0.0,0.0,0.0,0.0,0.0,0.0,0.0,0.0,0.0,0.0,0.0,0.0,0.0,0.0,0.0,0.0,0.0,0.0,0.0,0.0,0.0,0.0,0.0,0.0,0.0,0.0,0.0,0.0,0.0,0.0,0.0,0.0,0.0,0.0,0.0,0.0,0.0,0.0,0.0,0.0,0.0,0.0,0.0,0.0,0.0,0.0,0.0,0.0,0.0,0.0,0.0,0.0,0.0,0.0,0.0,0.0,0.0,0.0,0.0,0.0,0.0,0.0,0.0,0.0,0.0,0.0,0.0,0.0,0.0,0.0,0.0,0.0,0.0,0.0,0.0,0.0,0.0,0.0,0.0,0.0,0.0,0.0,0.0,0.0,0.0,0.0,0.0,0.0,0.0,0.0,0.0,0.0,0.0,0.0,0.0,0.0,0.0,0.0,0.0,0.0,0.0,0.0,0.0,0.0,0.0,0.0,0.0,0.0,0.0,0.0,0.0,0.0,0.0,0.0,0.0,0.0,0.0,0.0,0.0,0.0,0.0,0.0,0.0,0.0,0.0,0.0,0.0,0.0,0.0,0.0,0.0,0.0,0.0,0.0,0.0,0.0,0.0,0.0,0.0,0.0,0.0,0.0,0.0,0.0,0.0,0.0,0.0,0.0,0.0,0.0,0.0,0.0,0.0,0.0,0.0,0.0,0.0,0.0,0.0,0.0,0.0,0.0,0.0,0.0,0.0,0.0,0.0,0.0,0.0,0.0,0.0,0.0,0.0,0.0,0.0,0.0,0.0,0.0,0.0,0.0,0.0,0.0,0.0,0.0,0.0,0.0,0.0,0.0,0.0,0.0,0.0,0.0,0.0,0.0,0.0,0.0,0.0,0.0,0.0,0.0,0.0,0.0,0.0,0.0,0.0,0.0,0.0,0.0,0.0,0.0,0.0,0.0,0.0,0.0,0.0,0.0,0.0,0.0,0.0,0.0,0.0,0.0,0.0,0.0,0.0,0.0,0.0,0.0,0.0,0.0,0.0,0.0,0.0,0.0,0.0,0.0,0.0,0.0,0.0,0.0,0.0,0.0,0.0,0.0,0.0,0.0,0.0,0.0,0.0,0.0,0.0,0.0,0.0,0.0,0.0,0.0,0.0,0.0,0.0,0.0,0.0,0.0,0.0,0.0,0.0,0.0,0.0,0.0,0.0,0.0,0.0,0.0,0.0,0.0,0.0,0.0,0.0,0.0,0.0,0.0,0.0,0.0,0.0,0.0,0.0,0.0,0.0,0.0,0.0,0.0,0.0,0.0,0.0,0.0,0.0,0.0,0.0,0.0,0.0,0.0,0.0,0.0,0.0,0.0,0.0,0.0,0.0,0.0,0.0,0.0,0.0,0.0,0.0,0.0,0.0,0.0,0.0,0.0,0.0,0.0,0.0,0.0,0.0,0.0,0.0,0.0,0.0,0.0,0.0,0.0,0.0,0.0,0.0,0.0,0.0,0.0,0.0,0.0,0.0,0.0,0.0,0.0,0.0,0.0,0.0,0.0,0.0,0.0,0.0,0.0,0.0,0.0,0.0,0.0,0.0,0.0,0.0,0.0,0.0,0.0,0.0,0.0,0.0,0.0,0.0,0.0,0.0,0.0,0.0,0.0,0.0,0.0,0.0,0.0,0.0,0.0,0.0,0.0,0.0,0.0,0.0,0.0,0.0,0.0,0.0,0.0,0.0,0.0,0.0,0.0,0.0,0.0,0.0,0.0,0.0,0.0,0.0,0.0,0.0,0.0,0.0,0.0,0.0,0.0,0.0,0.0,0.0,0.0,0.0,0.0,0.0,0.0,0.0,0.0,0.0,0.0,0.0,0.0,0.0,0.0,0.0,0.0,0.0,0.0,0.0,0.0,0.0,0.0,0.0,0.0,0.0,0.0,0.0,0.0,0.0,0.0,0.0,0.0,0.0,0.0,0.0,0.0,0.0,0.0,0.0,0.0,0.0,0.0,0.0,0.0,0.0,0.0,0.0,0.0,0.0,0.0,0.0,0.0,0.0,0.0,0.0,0.0,0.0,0.0,0.0,0.0,0.0,0.0,0.0,0.0,0.0,0.0,0.0,0.0,0.0,0.0,0.0,0.0,0.0,0.0,0.0,0.0,0.0,0.0,0.0,0.0,0.0,0.0,0.0,0.0,0.0,0.0,0.0,0.0,0.0,0.0,0.0,0.0,0.0,0.0,0.0,0.0,0.0,0.0,0.0,0.0,0.0,0.0,0.0,0.0,0.0,0.0,0.0,0.0,0.0,0.0,0.0,0.0,0.0,0.0,0.0,0.0,0.0,0.0,0.0,0.0,0.0,0.0,0.0,0.0,0.0,0.0,0.0,0.0,0.0,0.0,0.0,0.0,0.0,0.0,0.0,0.0,0.0,0.0,0.0,0.0,0.0,0.0,0.0,0.0,0.0,0.0,0.0,0.0,0.0,0.0,0.0,0.0,0.0,0.0,0.0,0.0,0.0,0.0,0.0,0.0,0.0,0.0,0.0,0.0,0.0,0.0,0.0,0.0,0.0,0.0,0.0,0.0,0.0,0.0,0.0,0.0,0.0,0.0,0.0,0.0,0.0,0.0,0.0,0.0,0.0,0.0,0.0,0.0,0.0,0.0,0.0,0.0,0.0,0.0,0.0,0.0,0.0,0.0,0.0,0.0,0.0,0.0,0.0,0.0,0.0,0.0,0.0,0.0,0.0,0.0,0.0,0.0,0.0,0.0,0.0,0.0,0.0,0.0,0.0,0.0,0.0,0.0,0.0,0.0,0.0,0.0,0.0,0.0,0.0,0.0,0.0,0.0,0.0,0.0,0.0,0.0,0.0,0.0,0.0,0.0,0.0,0.0,0.0,0.0,0.0,0.0,0.0,0.0,0.0,0.0,0.0,0.0,0.0,0.0,0.0,0.0,0.0,0.0,0.0,0.0,0.0,0.0,0.0,0.0,0.0,0.0,0.0,0.0,0.0,0.0,0.0,0.0,0.0,0.0,0.0,0.0,0.0,0.0,0.0,0.0,0.0,0.0,0.0,0.0,0.0,0.0,0.0,0.0,0.0,0.0,0.0,0.0,0.0,0.0,0.0,0.0,0.0,0.0,0.0,0.0,0.0,0.0,0.0,0.0,0.0,0.0,0.0,0.0,0.0,0.0,0.0,0.0,0.0,0.0,0.0,0.0,0.0,0.0,0.0,0.0,0.0,0.0,0.0,0.0,0.0,0.0,0.0,0.0,0.0,0.0,0.0,0.0,0.0,0.0,0.0,0.0,0.0,0.0,0.0,0.0,0.0,0.0,0.0,0.0,0.0,0.0,0.0,0.0,0.0,0.0,0.0,0.0,0.0,0.0,0.0,0.0,0.0,0.0,0.0,0.0,0.0,0.0,0.0,0.0,0.0,0.0,0.0,0.0,0.0,0.0,0.0,0.0,0.0,0.0,0.0,0.0,0.0,0.0,0.0,0.0,0.0,0.0,0.0,0.0,0.0,0.0,0.0,0.0,0.0,0.0,0.0,0.0,0.0,0.0,0.0,0.0,0.0,0.0,0.0,0.0,0.0,0.0,0.0,0.0,0.0,0.0,0.0,0.0,0.0,0.0,0.0,0.0,0.0,0.0,0.0,0.0,0.0,0.0,0.0,0.0,0.0,0.0,0.0,0.0,0.0,0.0,0.0,0.0,0.0,0.0,0.0,0.0,0.0,0.0,0.0,0.0,0.0,0.0,0.0,0.0,0.0,0.0,0.0,0.0,0.0,0.0,0.0,0.0,0.0,0.0,0.0,0.0,0.0,0.0,0.0,0.0,0.0,0.0,0.0,0.0,0.0,0.0,0.0,0.0,0.0,0.0,0.0,0.0,0.0,0.0,0.0,0.0,0.0,0.0,0.0,0.0,0.0,0.0,0.0,0.0,0.0,0.0,0.0,0.0,0.0,0.0,0.0,0.0,0.0,0.0,0.0,0.0,0.0,0.0,0.0,0.0,0.0,0.0,0.0,0.0,0.0,0.0,0.0,0.0,0.0,0.0,0.0,0.0,0.0,0.0,0.0,0.0,0.0,0.0,0.0,0.0,0.0,0.0,0.0,0.0,0.0,0.0,0.0,0.0,0.0,0.0,0.0,0.0,0.0,0.0,0.0,0.0,0.0,0.0,0.0,0.0,0.0,0.0,0.0,0.0,0.0,0.0,0.0,0.0,0.0,0.0,0.0,0.0,0.0,0.0,0.0,0.0,0.0,0.0,0.0,0.0,0.0,0.0,0.0,0.0,0.0,0.0,0.0,0.0,0.0,0.0,0.0,0.0,0.0,0.0,0.0,0.0,0.0,0.0,0.0,0.0,0.0,0.0,0.0,0.0,0.0,0.0,0.0,0.0,0.0,0.0,0.0,0.0,0.0,0.0,0.0,0.0,0.0,0.0,0.0,0.0,0.0,0.0,0.0,0.0,0.0,0.0,0.0,0.0,0.0,0.0,0.0,0.0,0.0,0.0,0.0,0.0,0.0,0.0,0.0,0.0,0.0,0.0,0.0,0.0,0.0,0.0,0.0,0.0,0.0,0.0,0.0,0.0,0.0,0.0,0.0,-1.8629,0.0,0.0,0.0,0.0,0.0,0.0,0.0,0.0,0.0,0.0,0.0,0.0,0.0,0.0,0.0,0.0,0.0,0.0,0.0,0.0,0.0,0.0,0.0,0.0,0.0,0.0,0.0,0.0,0.0,0.0,0.0,0.0,0.0,0.0,0.0,0.0,0.0,0.0,0.0,-1.9091,-1.9682,-2.0134,-2.0808,-2.0828,-2.0323,0.0,0.0,0.0,0.0,0.0,0.0,0.0,0.0,0.0,0.0,0.0,0.0,0.0,0.0,0.0,0.0,0.0,0.0,0.0,0.0,0.0,0.0,0.0,0.0,0.0,0.0,0.0,0.0,0.0,0.0,0.0,0.0,0.0,0.0,0.0,0.0,0.0,0.0,0.0,0.0,0.0,0.0,0.0,0.0,0.0,0.0,0.0,0.0,0.0,0.0,0.0,0.0,0.0,0.0,0.0,0.0,0.0,0.0,0.0,0.0,0.0,0.0,0.0,0.0,0.0,0.0,0.0,0.0,0.0,0.0,0.0,-2.0114,0.0,0.0,0.0,0.0,0.0,0.0,0.0,0.0,0.0,0.0,0.0,0.0,0.0,0.0,0.0,0.0,0.0,0.0,0.0,0.0,0.0,0.0,0.0,-1.6026,-1.5916,-1.455,-1.4291,-1.3945,0.0,0.0,0.0,0.0,0.0,0.0,0.0,-1.7182,-1.7944,-1.7465,-1.9014,-2.0152,-2.0896,-2.2067,-2.2135,-2.1304,-2.1536,0.0,0.0,0.0,0.0,0.0,0.0,0.0,0.0,0.0,0.0,0.0,0.0,0.0,0.0,0.0,0.0,0.0,0.0,0.0,0.0,0.0,0.0,0.0,0.0,0.0,0.0,0.0,0.0,0.0,0.0,0.0,0.0,0.0,0.0,0.0,0.0,0.0,0.0,0.0,0.0,0.0,0.0,0.0,0.0,0.0,0.0,0.0,0.0,0.0,0.0,0.0,0.0,0.0,0.0,0.0,0.0,0.0,0.0,0.0,0.0,0.0,0.0,0.0,-2.4551,-2.4634,-2.3605,-2.3572,-2.334,-2.2853,-2.1736,-2.1695,-2.2325,0.0,0.0,0.0,0.0,0.0,0.0,0.0,0.0,0.0,0.0,0.0,0.0,0.0,0.0,0.0,0.0,0.0,0.0,0.0,0.0,0.0,0.0,-1.5452,-1.5672,-1.6137,-1.5485,-1.5316,-1.5944,0.0,0.0,0.0,0.0,0.0,-1.7034,-1.7245,-1.8005,-1.9349,-2.0383,-2.0976,-2.1192,-2.3534,-2.4568,-2.4452,-2.3473,-2.31,-2.3174,0.0,0.0,0.0,0.0,0.0,0.0,0.0,0.0,0.0,0.0,0.0,0.0,0.0,0.0,0.0,0.0,0.0,0.0,0.0,0.0,0.0,0.0,0.0,0.0,0.0,0.0,0.0,0.0,0.0,0.0,0.0,0.0,0.0,0.0,0.0,0.0,0.0,0.0,0.0,0.0,0.0,-1.6779,-1.8252,0.0,0.0,0.0,0.0,0.0,0.0,0.0,0.0,0.0,0.0,0.0,0.0,0.0,0.0,-2.3342,-2.3916,-2.4468,-2.4981,-2.6104,-2.6546,-2.6356,-2.6257,-2.5921,-2.5379,-2.4571,0.0,-2.2989,-2.297,0.0,0.0,0.0,0.0,0.0,0.0,0.0,0.0,0.0,0.0,0.0,0.0,0.0,0.0,0.0,0.0,0.0,0.0,0.0,0.0,0.0,-1.6489,-1.6903,-1.7267,-1.7797,-1.7832,-1.716,-1.716,0.0,0.0,0.0,-1.7286,-1.7958,-1.8391,-1.9188,-2.0377,-2.1279,-2.18,-2.2029,-2.3703,-2.4801,-2.5386,-2.534,-2.486,-2.4029,-2.3495,0.0,0.0,0.0,0.0,0.0,0.0,0.0,0.0,0.0,0.0,0.0,0.0,0.0,0.0,0.0,0.0,0.0,0.0,0.0,0.0,0.0,0.0,0.0,0.0,0.0,0.0,0.0,0.0,0.0,0.0,0.0,0.0,0.0,0.0,0.0,0.0,0.0,0.0,0.0,-1.746,-1.9045,-2.0197,-2.0817,-2.0915,0.0,0.0,0.0,0.0,0.0,0.0,0.0,0.0,0.0,-2.5161,-2.4809,-2.5211,-2.6433,-2.622,-2.6535,-2.7439,-2.7854,-2.8048,-2.8131,-2.8086,-2.7731,-2.7103,-2.6404,-2.5562,-2.4687,-2.4005,-2.3476,-2.3013,0.0,0.0,0.0,0.0,-2.169,-2.1707,0.0,0.0,0.0,0.0,0.0,0.0,0.0,0.0,0.0,0.0,0.0,0.0,-1.6841,-1.7709,-1.8395,-1.8803,-1.9608,-1.9643,-1.8647,-1.8578,-1.8291,-1.7651,-1.8038,-1.8413,-1.8696,-1.976,-2.0613,-2.1199,-2.2118,-2.2911,-2.3596,-2.4583,-2.5582,-2.6598,-2.7245,-2.6753,-2.5382,-2.43,-2.3195,-2.2085,0.0,0.0,0.0,0.0,0.0,0.0,0.0,0.0,0.0,0.0,0.0,0.0,0.0,0.0,0.0,0.0,0.0,0.0,0.0,0.0,0.0,0.0,0.0,0.0,0.0,0.0,0.0,0.0,0.0,0.0,0.0,0.0,0.0,0.0,0.0,0.0,0.0,-1.9539,-2.1017,-2.1906,-2.2801,-2.29,0.0,0.0,0.0,0.0,0.0,0.0,-2.4246,-2.5558,-2.6801,-2.7944,-2.7363,-2.7608,-2.8818,-2.8163,-2.835,-2.9367,-2.9446,-2.9454,-2.9382,-2.9556,-2.9067,-2.8047,-2.7383,-2.6688,-2.5914,-2.4681,-2.4172,-2.4087,-2.3532,-2.3177,-2.2939,-2.3073,-2.3086,-2.3178,0.0,0.0,0.0,0.0,0.0,0.0,0.0,0.0,0.0,0.0,0.0,-1.6875,-1.7737,-1.8607,-1.9752,-2.1281,-2.0036,-1.9749,-2.1114,-1.8977,-1.7937,-1.8504,-1.7777,-1.8054,-1.9513,-2.1146,-2.2003,-2.2036,-2.3049,-2.4448,-2.6238,-2.7173,-2.818,-2.9207,-2.9255,-2.8806,-2.7871,-2.5872,-2.4531,-2.36,-2.1523,0.0,0.0,0.0,0.0,0.0,0.0,0.0,0.0,0.0,0.0,0.0,0.0,0.0,0.0,0.0,0.0,0.0,0.0,0.0,0.0,0.0,0.0,0.0,0.0,0.0,0.0,0.0,0.0,0.0,0.0,0.0,0.0,0.0,0.0,0.0,0.0,0.0,0.0,-2.3043,-2.4172,0.0,0.0,0.0,0.0,-2.3091,-2.4492,-2.5832,-2.6952,-2.8381,-2.938,-2.9756,-2.9482,-2.9381,-2.9448,-2.9143,-2.9375,-3.0157,-3.0772,-3.0765,-3.0172,-3.0812,-3.0006,-2.8047,-2.7383,-2.6688,-2.5945,-2.5238,-2.4859,-2.4739,-2.4572,-2.4016,-2.3385,-2.4206,-2.4194,-2.3863,0.0,0.0,0.0,0.0,0.0,0.0,0.0,0.0,-1.5201,-1.5351,-1.6617,-1.7814,-1.8654,-2.0518,-2.1921,-2.2457,-2.251,-2.2228,-2.1578,-2.0648,-1.9915,-1.9463,-1.9549,-2.0123,-2.1201,-2.2301,-2.3229,-2.3963,-2.476,-2.5835,-2.7184,-2.8093,-2.8774,-2.9306,-2.9949,-2.9771,-2.8846,-2.7038,-2.5648,-2.4513,-2.2659,-2.15,0.0,0.0,0.0,0.0,0.0,0.0,0.0,0.0,0.0,0.0,0.0,0.0,0.0,0.0,0.0,0.0,0.0,0.0,0.0,0.0,0.0,0.0,0.0,0.0,0.0,0.0,0.0,0.0,0.0,0.0,0.0,0.0,0.0,0.0,0.0,0.0,0.0,-2.5209,-2.6771,0.0,0.0,-2.6244,-2.5961,-2.5643,-2.6967,-2.8201,-2.9071,-3.0208,-3.122,-3.2128,-3.1645,-3.1702,-3.2442,-3.1294,-3.1078,-3.1804,-3.1417,-3.1056,-3.0875,-3.1571,-3.1239,-3.0085,-2.9848,-2.909,-2.793,-2.7257,-2.6182,-2.4906,-2.4886,-2.4669,-2.4426,-2.4736,-2.4952,-2.5091,0.0,0.0,0.0,0.0,0.0,0.0,0.0,0.0,-1.5387,-1.5781,-1.7349,-1.8717,-1.9542,-2.1692,-2.3053,-2.3032,-2.3337,-2.3203,-2.2462,-2.2086,-2.1656,-2.1093,-2.1456,-2.1824,-2.2165,-2.3467,-2.4665,-2.575,-2.6188,-2.7074,-2.8387,-2.8701,-2.9116,-2.9626,-3.0303,-3.0295,-2.9683,-2.8301,-2.6775,-2.5162,-2.3679,-2.2829,-2.2274,0.0,0.0,0.0,0.0,0.0,0.0,0.0,0.0,0.0,0.0,0.0,0.0,0.0,0.0,0.0,0.0,0.0,0.0,0.0,0.0,0.0,0.0,0.0,0.0,0.0,0.0,0.0,0.0,0.0,0.0,0.0,0.0,0.0,0.0,0.0,-2.6421,-2.7611,-2.9132,-2.9688,-2.8678,-2.8519,-2.8223,-2.7533,-2.8764,-2.9926,-3.0829,-3.1684,-3.2691,-3.3862,-3.3381,-3.3475,-3.4234,-3.2965,-3.2567,-3.3031,-3.2488,-3.2013,-3.1602,-3.256,-3.2339,-3.1198,-3.1198,-3.0393,-2.9051,-2.8379,-2.7168,-2.5681,-2.5428,-2.5191,-2.5005,-2.5127,-2.5384,-2.5668,0.0,0.0,0.0,0.0,0.0,0.0,0.0,-1.5232,-1.5675,-1.658,-1.8176,-1.9552,-2.0405,-2.1993,-2.301,-2.3049,-2.229,-2.2401,-2.3833,-2.3126,-2.288,-2.3375,-2.3236,-2.2904,-2.2428,-2.4645,-2.6276,-2.725,-2.7261,-2.8181,-2.9878,-2.9106,-2.9332,-3.0392,-3.0399,-3.0438,-3.0443,-2.9675,-2.7965,-2.5708,-2.4527,-2.3999,-2.3796,0.0,0.0,0.0,0.0,0.0,0.0,0.0,0.0,0.0,0.0,0.0,0.0,0.0,0.0,0.0,0.0,0.0,0.0,0.0,0.0,0.0,0.0,0.0,0.0,0.0,0.0,0.0,0.0,0.0,0.0,0.0,0.0,0.0,-2.5886,-2.7268,-2.8677,-3.01,-3.1127,-3.0991,-2.9225,-2.9611,-2.9663,-2.8778,-2.9826,-3.1011,-3.2238,-3.2928,-3.379,-3.4941,-3.4725,-3.4587,-3.4587,-3.4039,-3.3758,-3.3742,-3.4106,-3.3604,-3.2339,-3.3683,-3.3151,-3.1198,-3.1255,-3.0472,-2.913,-2.8474,-2.7794,-2.7083,-2.6309,-2.5618,-2.5096,-2.5403,-2.5503,-2.5559,0.0,0.0,0.0,0.0,0.0,0.0,0.0,-1.5717,-1.6341,-1.666,-1.8719,-2.0223,-2.0402,-2.2007,-2.2808,-2.2142,-2.1909,-2.1926,-2.2243,-2.1929,-2.2283,-2.3488,-2.2351,-2.2734,-2.5012,-2.564,-2.6709,-2.8296,-2.8777,-2.9312,-2.9897,-2.9666,-2.9824,-3.0267,-3.0356,-3.0416,-3.0409,-3.0197,-2.934,-2.7993,-2.5916,-2.4985,-2.4677,0.0,0.0,0.0,0.0,0.0,0.0,0.0,0.0,0.0,0.0,0.0,0.0,0.0,0.0,0.0,0.0,0.0,0.0,0.0,0.0,0.0,0.0,0.0,0.0,0.0,0.0,0.0,0.0,0.0,0.0,0.0,0.0,-2.6679,-2.678,-2.8341,-3.0038,-3.1548,-3.3073,-3.3474,-3.2152,-3.2171,-3.2027,-3.1389,-3.2011,-3.2982,-3.4243,-3.4885,-3.5613,-3.6464,-3.6414,-3.6406,-3.6406,-3.5779,-3.5275,-3.4775,-3.4452,-3.3604,-3.2323,-3.3182,-3.2708,-3.1246,-3.2282,-3.1909,-3.0598,-3.0409,-2.9635,-2.8372,-2.6672,-2.6066,-2.6124,-2.5659,-2.5689,-2.5944,0.0,0.0,0.0,0.0,0.0,0.0,0.0,-1.5951,-1.6617,-1.6698,-1.8888,-2.0302,-1.9937,-2.114,-2.1325,-1.969,-2.0573,-2.0995,-2.0489,-2.1628,-2.2729,-2.3681,-2.3082,-2.3815,-2.6129,-2.6817,-2.7778,-2.9116,-2.9521,-2.9738,-2.9825,-2.9864,-2.9988,-3.0169,-3.0334,-3.0367,-3.0331,-3.0342,-3.0059,-2.9454,-2.769,-2.6963,-2.6808,-2.5378,-2.5,-2.5103,-2.4305,-2.3816,-2.3357,-2.1964,0.0,0.0,0.0,0.0,0.0,0.0,0.0,0.0,0.0,0.0,0.0,0.0,0.0,0.0,0.0,0.0,0.0,0.0,0.0,0.0,0.0,0.0,0.0,0.0,-2.8265,-2.9492,-3.025,-3.1111,-3.2231,-3.3749,-3.5066,-3.5456,-3.4547,-3.4693,-3.451,-3.3716,-3.4148,-3.4775,-3.5525,-3.5885,-3.6395,-3.706,-3.7102,-3.7102,-3.7102,-3.6512,-3.6127,-3.5985,-3.5443,-3.4598,-3.3524,-3.398,-3.3419,0.0,-3.2945,-3.2677,-3.165,-3.165,-3.0828,0.0,0.0,0.0,0.0,0.0,-2.589,-2.6086,0.0,0.0,0.0,0.0,0.0,0.0,0.0,-1.5981,-1.6537,-1.6417,-1.8569,-1.9738,-1.8722,-1.9338,-1.8904,-1.6643,-1.8697,-1.9892,-1.9372,-2.1877,-2.3528,-2.3917,-2.4646,-2.5476,-2.6441,-2.7925,-2.9044,-2.9719,-2.972,-2.972,-2.9719,-2.9841,-2.9981,-3.0124,-3.0309,-3.0315,-3.0184,-3.0273,-3.0272,-3.017,-2.945,-2.9264,-2.9289,-2.8237,-2.8334,-2.8768,-2.6973,-2.5931,-2.5272,-2.4262,0.0,0.0,0.0,0.0,0.0,0.0,0.0,0.0,0.0,0.0,0.0,0.0,0.0,0.0,0.0,0.0,0.0,0.0,0.0,0.0,0.0,0.0,0.0,0.0,-3.0539,-3.279,-3.4931,-3.4828,-3.4962,-3.6211,-3.6779,-3.6865,-3.6263,-3.6678,-3.6591,-3.5577,-3.5927,-3.6269,-3.6419,0.0,0.0,0.0,0.0,-3.74,-3.7483,-3.6816,-3.6826,-3.7484,-3.6897,-3.6214,-3.55,-3.5575,-3.4793,-3.3398,-3.3441,-3.3029,-3.2342,-3.2317,-3.1566,-3.0267,-2.8805,-2.764,-2.6766,-2.6548,-2.6393,-2.6238,0.0,0.0,0.0,0.0,0.0,0.0,0.0,-1.5957,-1.6066,-1.4764,-1.6807,-1.7528,-1.5253,-1.5775,-1.6085,-1.5595,-1.7236,-1.9374,-2.1883,-2.1959,-2.2547,-2.4,-2.4827,-2.5957,-2.7484,-2.8301,-2.9082,-2.9866,-2.9737,-2.9765,-2.9866,-2.9899,-3.0022,-3.0265,-3.0294,-3.024,-3.0136,-3.024,-3.0137,-2.9918,-3.0074,-2.9831,-2.9313,-2.8446,-2.8223,-2.8312,-2.7873,-2.8103,-2.8346,-2.6612,-2.6328,-2.6457,-2.4995,-2.3783,0.0,0.0,0.0,0.0,0.0,0.0,0.0,0.0,0.0,0.0,0.0,0.0,0.0,0.0,0.0,0.0,0.0,0.0,0.0,-3.1759,-3.3676,-3.5419,-3.7071,-3.7565,-3.761,-3.7292,-3.717,-3.6865,-3.6263,-3.6316,-3.6289,-3.6061,-3.6141,-3.6672,-3.7748,-3.7807,0.0,-3.8868,-3.8884,-3.9166,-3.9779,-3.8799,-3.8821,-3.9841,0.0,0.0,-3.737,-3.708,-3.5846,-3.3975,-3.4354,-3.3786,-3.2604,-3.2393,-3.2035,-3.1489,-2.9744,-2.8619,-2.8037,-2.8642,-2.827,-2.7414,0.0,0.0,0.0,0.0,0.0,0.0,0.0,-1.6301,-1.6736,-1.5544,-1.7618,-1.8512,-1.6748,-1.6976,-1.6898,-1.5978,-1.6636,-1.8538,-2.1937,-2.176,-2.2126,-2.3441,-2.5114,-2.6564,-2.7778,-2.8841,-2.9555,-2.9897,-2.9832,-2.9832,-2.9897,-3.0037,-3.0171,-3.0306,-3.04,-3.0361,-3.0203,-3.0277,-3.0216,-3.0114,-3.0327,-3.0259,-3.0004,-2.9602,-2.9457,-2.9435,-2.9383,-2.9396,-2.9292,-2.8283,-2.827,-2.8482,-2.7512,-2.6557,-2.5598,0.0,0.0,0.0,0.0,0.0,0.0,0.0,0.0,0.0,0.0,0.0,0.0,0.0,0.0,-2.6417,0.0,0.0,-3.1577,-3.4083,-3.5819,-3.7231,-3.8294,-3.8916,-3.895,-3.8162,-3.8143,-3.8074,-3.7787,-3.7744,-3.7744,-3.7744,-3.7744,-3.8031,-3.8725,-3.909,-3.9454,-3.9846,-4.0166,-4.0624,-4.1237,-4.0564,-4.0538,-4.1222,-3.951,-3.8387,-3.7761,-3.6695,-3.5737,-3.4947,-3.4763,-3.4618,-3.4406,-3.3242,-3.2513,-3.2055,-3.1148,-3.0219,-2.9341,-2.8751,-2.8177,-2.7689,0.0,0.0,0.0,0.0,0.0,0.0,0.0,-1.6405,-1.6972,-1.6055,-1.8022,-1.9039,-1.7754,-1.7965,-1.782,-1.6828,-1.6714,-1.8067,-2.1311,-2.1587,-2.2007,-2.2884,-2.5356,-2.7054,-2.7815,-2.9193,-2.9935,-2.9981,-2.9942,-2.9942,-2.9981,-3.0196,-3.0312,-3.0378,-3.0525,-3.0486,-3.0306,-3.0348,-3.0356,-3.0358,-3.0409,-3.0516,-3.0653,-3.0685,-3.0694,-3.0675,-3.042,-2.9823,-2.914,-2.9061,-2.9033,-2.9028,-2.9066,-2.8546,-2.7714,-2.6697,-2.5649,0.0,0.0,0.0,0.0,0.0,0.0,0.0,0.0,0.0,-2.7352,-2.8255,-2.8904,-2.995,-3.2111,-3.3083,-3.4202,-3.6173,-3.7671,-3.8748,-3.9197,-3.964,-3.9682,-3.8941,-3.9135,-3.9325,-3.9299,-3.9458,-3.9541,-3.9514,-3.9674,-3.9757,-3.9713,-4.016,-4.0475,-4.0608,-4.1061,-4.1633,-4.2301,-4.198,-4.2052,-4.243,-4.0297,-3.8906,-3.8186,-3.6464,-3.5868,-3.6141,-3.552,-3.5575,-3.5995,-3.4307,-3.3225,-3.2647,-3.2449,-3.1729,-3.0594,-2.9013,-2.8221,-2.7973,0.0,0.0,0.0,0.0,0.0,0.0,0.0,0.0,-1.5029,-1.3432,-1.4824,-1.5041,-1.2608,-1.3738,-1.5449,-1.7398,-1.7675,-1.8826,-2.1418,-2.1643,-2.2078,-2.295,-2.5365,-2.7108,-2.7954,-2.8788,-2.9548,-3.0259,-3.015,-3.0131,-3.0259,-3.0288,-3.0395,-3.0564,-3.0593,-3.0486,-3.0306,-3.0486,-3.0392,-3.0163,-3.0462,-3.0516,-3.0441,-3.0625,-3.0701,-3.0594,-2.9753,-2.8927,-2.8221,-2.8096,-2.8063,-2.8168,-2.8806,-2.8862,-2.847,-2.7392,-2.6374,-2.5188,-2.3371,-2.3381,-2.4824,-2.85,-2.8252,-2.8076,0.0,0.0,-3.1136,-3.2579,-3.3079,-3.3748,-3.5397,-3.6204,-3.7125,-3.8743,-3.9682,-4.0214,-4.0152,-4.0112,-4.0003,-3.9783,-3.9592,-3.9432,-3.9299,-4.0014,-4.0396,-4.0276,-4.0984,-4.1361,-4.1177,-4.0663,-4.0663,-4.1276,-4.114,-4.1701,-4.3058,-4.2794,-4.316,-4.411,-4.1483,-4.0217,-4.0127,-3.8503,-3.7662,-3.7487,-3.7513,-3.675,-3.548,-3.5241,-3.4657,-3.3822,-3.2972,-3.2337,-3.1808,-3.1525,-3.048,-2.9194,0.0,0.0,0.0,0.0,0.0,0.0,0.0,0.0,0.0,-1.5162,-1.6112,-1.6444,-1.5349,-1.5846,-1.6854,-1.8337,-1.8113,-1.8733,-2.0718,-2.1422,-2.2123,-2.2961,-2.5937,-2.7734,-2.8103,-2.9253,-3.0027,-3.036,-3.0263,-3.0247,-3.0306,-3.043,-3.053,-3.0601,-3.0601,-3.0549,-3.0482,-3.0549,-3.0516,-3.04,-3.0545,-3.0578,-3.0467,-3.0094,-2.964,-2.9253,-2.985,-2.9515,0.0,-2.8097,-2.856,-2.9206,-2.8339,-2.8412,-2.8577,-2.7424,-2.712,-2.7093,-2.6763,-2.6767,-2.764,0.0,-3.1352,-3.1735,-3.4084,-3.4425,-3.4411,-3.5135,-3.5731,-3.6429,-3.7413,-3.816,-3.8797,0.0,-4.011,-4.0576,-4.0436,-3.9914,-3.9423,-3.9068,-3.888,-3.9007,-3.9489,-4.0383,-4.0987,-4.1075,-4.1624,-4.2082,-4.236,-4.1725,-4.1573,-4.2136,-4.2468,-4.3036,-4.3878,-4.4251,-4.455,-4.4778,-4.2525,-4.1457,-4.1412,-3.8722,-3.733,-3.7077,-3.8225,-3.7393,-3.5238,-3.5381,-3.484,-3.3841,-3.3777,-3.3202,-3.2305,-3.146,-3.0517,-2.973,0.0,0.0,0.0,0.0,0.0,0.0,0.0,0.0,0.0,0.0,-1.6855,-1.729,-1.7516,-1.7478,-1.7766,-1.8568,-1.8363,-1.8714,-1.9895,-2.1081,-2.2017,-2.264,-2.5522,-2.7351,-2.7838,-2.9112,-2.9995,-3.046,-3.0172,-3.0155,-3.0379,-3.0297,-3.0399,-3.0633,-3.0633,-3.061,-3.0606,-3.0593,-3.0604,-3.0604,-3.0601,-3.0315,-2.9853,-2.9264,-2.8508,-2.7937,-2.9381,-2.9193,-2.8229,-2.8,-2.856,-2.9127,-2.7853,-2.7906,-2.822,-2.7047,-2.7075,-2.7733,-2.8878,-2.9466,0.0,-3.3029,-3.4223,-3.5109,-3.6372,-3.7018,-3.7487,-3.7888,-3.8339,-3.8702,-3.8953,-3.9395,-3.969,-3.9624,-4.0261,-4.0735,-4.0602,-4.002,-3.9376,-3.8745,-3.8575,-3.8797,-3.9457,-4.055,-4.1441,-4.2034,-4.2544,-4.2997,-4.337,-4.2671,-4.2438,-4.2654,-4.3323,-4.3907,-4.4412,-4.5302,-4.5626,-4.5396,-4.3545,-4.263,-4.243,-3.929,-3.7525,-3.7029,-3.8622,-3.7992,-3.5843,-3.5825,-3.5146,-3.4121,-3.4332,-3.3688,-3.256,-3.1326,-3.0551,-3.0232,0.0,0.0,0.0,0.0,0.0,0.0,0.0,0.0,0.0,0.0,0.0,0.0,0.0,-1.658,-1.6856,-1.7659,-1.8491,-1.9009,-1.913,-2.0686,-2.1667,-2.1828,-2.3496,-2.5204,-2.6898,-2.7743,-2.8974,-3.059,-2.9752,-2.9752,-3.057,-2.98,-2.9885,-3.0691,-3.0691,-3.066,-3.0606,-3.0606,-3.0606,-3.0602,-3.0604,-2.964,-2.816,-2.814,-2.7593,-2.6967,-2.7849,-2.7063,-2.5867,-2.7467,-2.7441,-2.6814,-2.7402,-2.7565,-2.7323,-2.6255,-2.5817,-2.6151,-2.8315,0.0,-3.2347,-3.5423,-3.6688,-3.7698,-3.9608,-4.0075,-4.0402,-4.1505,-4.1339,-4.0779,-4.0087,-3.9862,-3.9818,-3.9878,-4.0519,-4.0938,-4.0816,-4.0713,-4.0309,-3.937,-3.9157,-3.9091,0.0,-4.0381,-4.1789,-4.3245,-4.4129,-4.4448,-4.4096,-4.3423,-4.2935,-4.2594,-4.3088,-4.365,-4.4394,-4.5571,-4.6172,-4.6144,-4.4582,-4.3663,-4.328,-4.0891,-3.9177,-3.8091,-3.8933,-3.8698,-3.7652,-3.6948,-3.6071,-3.5088,-3.4376,-3.3539,-3.2608,-3.1846,-3.1228,-3.0852,0.0,0.0,0.0,0.0,0.0,0.0,0.0,0.0,0.0,0.0,0.0,0.0,0.0,0.0,0.0,0.0,-1.8037,-1.866,-1.9763,-2.0981,-2.1669,-2.1677,-2.3394,-2.4889,-2.6016,-2.6823,-2.7802,-2.8945,-2.8598,-2.8602,-2.8932,-2.8664,-2.8695,-2.8991,-2.9572,-2.98,-2.9767,-3.0315,-3.0524,-3.0423,-2.9279,-2.8515,-2.7977,-2.6824,-2.5855,-2.5327,0.0,-2.7612,-2.795,-2.7391,-2.7315,-2.7184,-2.5585,-2.5463,-2.5999,-2.6495,-2.7231,-2.8447,-3.0838,0.0,-3.475,-3.8061,-3.9483,-4.0471,-4.1977,-4.2328,-4.203,-4.0999,-4.0072,-3.8839,-3.684,-3.6891,-3.7208,-3.7188,-3.8402,-3.971,-4.078,-4.0337,-3.9696,-3.9146,-3.9481,0.0,0.0,0.0,0.0,-4.2568,-4.4061,-4.48,-4.4447,-4.4305,-4.3976,-4.3482,-4.3609,-4.4065,-4.4845,-4.5271,-4.5705,-4.6196,-4.5185,-4.3576,-4.1466,-4.1168,-3.969,-3.7426,-3.8457,-3.8183,-3.7019,-3.7219,-3.6951,-3.6419,-3.5953,-3.5513,-3.5028,-3.4014,-3.2869,-3.173,0.0,0.0,0.0,0.0,0.0,0.0,0.0,0.0,0.0,0.0,0.0,0.0,0.0,0.0,0.0,0.0,0.0,-1.7915,-1.9258,-2.0226,-2.0848,-2.1125,-2.2594,-2.3788,-2.4623,-2.5418,-2.6256,-2.7129,-2.6725,-2.6746,-2.7159,-2.6846,-2.6906,-2.7275,-2.8126,-2.8462,-2.8442,-2.8969,-2.933,-2.9448,-2.8066,-2.7168,-2.6628,-2.6162,-2.529,0.0,-2.627,-2.796,-2.9171,-2.8097,-2.7819,-2.7624,-2.5836,-2.5162,-2.5277,-2.6575,-2.801,-2.9817,-3.2766,-3.4972,-3.7157,-4.0221,-4.1541,-4.2364,-4.3324,-4.3019,-4.2058,-4.0536,-3.91,-3.7451,-3.5233,-3.4934,-3.517,-3.5563,-3.6453,-3.7846,-4.0052,-3.9795,-3.9476,-3.9626,-4.0041,0.0,0.0,0.0,0.0,-4.2851,-4.4039,-4.4866,-4.5165,-4.4635,-4.4096,-4.362,-4.3529,-4.3763,-4.4273,-4.4817,-4.5484,-4.6196,-4.5705,-4.4027,-4.1345,-4.1516,-4.0217,-3.7848,-3.8283,-3.8229,-3.7769,-3.7686,-3.7593,-3.7451,-3.6751,-3.6348,-3.6041,-3.4804,-3.3765,-3.2807,0.0,0.0,0.0,0.0,0.0,0.0,0.0,0.0,0.0,0.0,0.0,0.0,0.0,0.0,0.0,0.0,0.0,0.0,-1.7745,-1.8525,-1.9313,-2.0149,-2.1018,-2.1852,-2.2673,-2.3525,-2.437,-2.5197,-2.4288,-2.4353,-2.5342,-2.4518,-2.4646,-2.5588,-2.644,-2.6756,-2.6661,-2.6795,-2.7214,-2.7755,-2.6963,-2.564,-2.4288,-2.5981,-2.5613,-2.4397,-2.6148,-2.7854,-2.9276,-2.9272,-2.867,-2.7927,-2.785,-2.6611,-2.5421,-2.6727,-2.832,-3.0472,-3.4213,-3.7047,-3.9503,-4.1899,-4.2822,-4.3249,-4.3592,-4.2171,-4.0641,-4.0067,-3.8405,-3.6578,0.0,0.0,-3.3734,-3.5026,-3.4828,-3.5636,-3.8826,-3.928,-3.9675,0.0,0.0,0.0,0.0,0.0,0.0,-4.4095,0.0,-4.4777,-4.6068,-4.4545,-4.349,-4.3186,-4.2956,-4.2851,-4.2921,-4.4413,-4.5519,-4.6196,-4.6161,-4.4986,-4.2833,-4.199,-4.0779,-3.9319,-3.8529,-3.8827,-3.9801,-3.8404,-3.8083,-3.8285,-3.6934,-3.6233,-3.5841,-3.4448,-3.4023,-3.3965,0.0,0.0,0.0,0.0,0.0,0.0,0.0,0.0,0.0,0.0,0.0,0.0,0.0,0.0,0.0,0.0,0.0,0.0,-1.7752,-1.8045,-1.8257,-1.8431,-1.932,-1.9862,-1.9997,-2.1427,-2.2272,-2.2487,-2.2838,-2.3178,-2.3482,-2.3266,-2.3284,-2.3606,-2.5113,-2.536,-2.475,-2.6608,-2.719,-2.6729,-2.518,-2.4414,-2.4082,-2.3263,-2.2738,-2.2654,-2.436,-2.607,-2.7527,-2.7485,0.0,0.0,0.0,-2.7695,-2.8958,-2.9847,-3.2081,-3.49,-3.7665,-3.9591,-4.1271,-4.3191,-4.3137,-4.25,-4.2092,-4.0671,-3.8837,-3.6869,-3.4963,-3.3253,0.0,0.0,0.0,-3.401,-3.4581,0.0,-3.9848,-4.0342,0.0,-4.1523,0.0,-4.294,-4.1814,-4.3516,0.0,0.0,-4.5544,-4.5717,-4.533,-4.539,-4.5061,-4.4235,-4.3426,-4.358,-4.4746,-4.5521,-4.6003,-4.6196,-4.5635,-4.4764,-4.357,-4.2219,-4.1078,-4.0165,-3.9656,-3.9619,-3.9887,-3.9754,-3.989,-4.0092,-3.932,-3.9015,-3.8853,-3.7578,-3.6167,-3.473,0.0,0.0,0.0,0.0,0.0,0.0,0.0,0.0,0.0,0.0,0.0,0.0,0.0,0.0,0.0,0.0,0.0,0.0,0.0,-1.7301,-1.748,-1.7797,-1.8307,-1.8553,-1.8461,-1.9342,-1.9795,-1.9782,-2.0188,-2.0619,-2.109,-2.1061,-2.1255,-2.172,-2.3088,-2.3353,-2.2895,-2.4298,-2.4848,0.0,0.0,-2.2917,-2.3008,-2.2848,-2.236,-2.2023,-2.4124,-2.5485,-2.6392,0.0,0.0,-2.7745,-2.7994,-2.9005,-3.0521,-3.268,0.0,-3.6667,-3.9727,-4.1264,-4.224,-4.3323,-4.2643,-4.1505,-4.0626,-3.8722,-3.644,-3.3952,-3.2456,0.0,0.0,0.0,0.0,0.0,0.0,0.0,-3.8879,-3.9786,-4.06,0.0,-4.3213,0.0,-4.3317,-4.4512,-4.5599,0.0,-4.6124,-4.6047,-4.6176,-4.5819,-4.5372,-4.4796,-4.3793,-4.3797,-4.4926,-4.5463,-4.5881,-4.6196,-4.5775,-4.5185,-4.4378,-4.2833,-4.1903,-4.1464,0.0,-4.0354,-4.064,-4.0535,-4.057,-4.0666,-4.0111,-3.9874,-3.9685,-3.8757,-3.7533,-3.6144,0.0,0.0,0.0,0.0,0.0,0.0,0.0,0.0,0.0,0.0,0.0,0.0,0.0,0.0,0.0,0.0,0.0,0.0,0.0,0.0,-1.6742,-1.7452,-1.7578,-1.7597,-1.7462,-1.757,-1.7558,-1.7427,-1.7439,-1.7874,-1.8716,-1.8659,-1.9116,-2.0033,-2.0916,-2.1253,-2.123,-2.1436,-2.1875,-2.2383,-2.1786,-2.1517,-2.164,0.0,-2.2829,-2.1856,-2.4494,-2.5395,-2.5631,0.0,-2.8589,-2.9256,-3.01,-3.0567,-3.1524,-3.5296,-3.6554,-3.7505,-4.1092,-4.2464,-4.288,-4.293,-4.1789,-4.0315,-3.898,-3.6399,-3.3602,-3.1216,0.0,-2.9715,-2.8293,-2.8106,-2.8916,-3.111,0.0,-3.2511,-3.7232,-3.8599,-4.0113,-4.2758,-4.3267,-4.3938,-4.5309,-4.5562,-4.6196,-4.7609,-4.6413,-4.6232,-4.7645,-4.6104,-4.5135,-4.5006,-4.4241,-4.4064,-4.4493,-4.5018,-4.5567,-4.6088,-4.6081,-4.5653,-4.4887,-4.3342,-4.271,-4.2705,0.0,0.0,-4.1542,-4.0966,-4.0737,-4.0689,-4.0211,-3.9885,-3.9622,-3.9025,-3.8403,-3.7623,0.0,0.0,0.0,0.0,0.0,0.0,0.0,0.0,0.0,0.0,-1.5369,-1.5407,0.0,0.0,0.0,0.0,0.0,0.0,0.0,0.0,0.0,-1.5802,-1.6445,-1.6474,-1.5746,-1.701,-1.7301,-1.6525,-1.7219,-1.7625,-1.7745,-1.7725,-1.8178,-1.9007,-1.9869,-2.0214,-2.0253,-2.1633,-2.196,-2.151,-2.1339,-2.1308,-2.1292,-2.102,0.0,0.0,-2.3569,-2.4521,-2.4978,-2.8047,-2.9086,-2.9363,-3.0868,-3.2716,-3.4868,-3.7659,-3.9462,-4.0968,-4.2913,-4.3844,-4.4081,-4.3323,-4.125,-3.8808,-3.6498,-3.3399,0.0,0.0,-2.7984,-2.7851,-2.8053,-2.8156,0.0,-3.2349,0.0,0.0,0.0,0.0,-4.0239,0.0,0.0,0.0,0.0,0.0,0.0,0.0,0.0,-4.7428,-4.7699,-4.677,-4.5856,-4.5024,-4.5429,-4.5602,-4.5548,-4.6058,-4.6059,-4.5523,-4.5369,-4.4887,-4.4062,-4.2517,-4.2184,-4.2705,-4.1187,0.0,-4.1582,-4.1475,-4.1431,-4.1431,-4.1323,-4.1255,-4.1105,-4.0306,-3.9142,-3.7826,0.0,0.0,0.0,0.0,0.0,0.0,0.0,-1.5635,-1.5988,-1.5986,-1.6,-1.5874,-1.5452,-1.5393,0.0,0.0,0.0,0.0,0.0,0.0,0.0,0.0,0.0,0.0,-1.5301,-1.6068,0.0,0.0,0.0,-1.6509,-1.6888,0.0,0.0,-1.8054,-1.8906,-1.926,-1.9363,-2.0573,-2.0905,-2.0627,-2.0664,-2.0695,-2.0711,0.0,0.0,0.0,0.0,-2.3908,-2.4745,-2.7698,-2.8601,-2.9042,-3.2023,-3.403,-3.5959,-3.9325,-4.0568,-4.137,-4.3646,-4.4701,-4.4764,-4.31,-4.0843,-3.821,-3.4995,0.0,0.0,0.0,-2.6621,-2.6952,-2.6684,0.0,0.0,0.0,0.0,0.0,0.0,0.0,0.0,0.0,0.0,0.0,0.0,0.0,0.0,0.0,0.0,0.0,-4.7681,-4.6939,-4.6282,-4.58,-4.5893,-4.5895,-4.5806,-4.5811,-4.564,-4.5229,-4.473,-4.4273,-4.3851,-4.2306,-4.1815,-4.2113,-4.0994,0.0,-4.1025,-4.1025,-4.1253,-4.1516,-4.0644,-4.0552,-4.0758,-3.9477,-3.8545,-3.7704,0.0,0.0,0.0,0.0,0.0,0.0,0.0,-1.6126,-1.6678,-1.6843,-1.6893,-1.6585,-1.5741,-1.5499,-1.5398,0.0,0.0,0.0,0.0,0.0,0.0,0.0,0.0,0.0,0.0,0.0,0.0,0.0,0.0,0.0,0.0,0.0,0.0,0.0,0.0,0.0,-1.9009,-1.9669,-1.9974,0.0,0.0,-2.0154,0.0,0.0,0.0,0.0,0.0,0.0,-2.4361,-2.6763,-2.7776,-2.8616,-3.2069,-3.393,-3.5671,-3.9744,-4.0644,-4.0949,-4.3907,-4.5232,-4.5294,-4.3214,-4.0761,-3.7873,-3.4106,-3.0702,0.0,0.0,-2.5439,-2.607,-2.5094,0.0,-2.814,0.0,0.0,0.0,0.0,0.0,0.0,0.0,0.0,0.0,0.0,0.0,0.0,0.0,0.0,0.0,-4.7428,-4.7011,-4.6685,-4.6504,-4.613,-4.5863,-4.564,-4.5209,-4.4865,-4.4665,-4.398,-4.357,-4.3342,-4.1815,-4.12,-4.1306,-4.0397,0.0,0.0,-4.0239,-4.0569,-4.0968,-3.9655,-3.9524,-3.9909,-3.8405,-3.7861,-3.7669,0.0,0.0,0.0,0.0,0.0,0.0,0.0,-1.651,-1.6889,-1.7684,-1.7823,-1.7527,-1.6581,-1.5846,-1.5398,0.0,0.0,0.0,0.0,0.0,0.0,0.0,0.0,0.0,0.0,0.0,0.0,0.0,0.0,0.0,0.0,0.0,0.0,0.0,0.0,0.0,0.0,-1.9993,0.0,0.0,0.0,0.0,0.0,0.0,0.0,0.0,0.0,0.0,0.0,0.0,0.0,-2.8295,-2.9399,-3.1314,-3.392,-3.7969,0.0,0.0,-4.3888,-4.5369,-4.5773,-4.4597,-4.1297,-3.7447,-3.3915,0.0,0.0,-2.3422,-2.3871,-2.4488,-2.3732,-2.5371,-2.7218,0.0,0.0,-3.085,0.0,0.0,0.0,0.0,0.0,0.0,0.0,0.0,0.0,0.0,0.0,0.0,-4.6649,-4.7246,-4.7265,-4.6522,-4.6463,-4.5998,-4.5072,-4.4796,-4.4183,-4.328,-4.3017,-4.2517,-4.1762,-4.0196,-3.9919,-4.052,-3.8971,0.0,0.0,-3.9406,-3.9442,-3.9494,-3.9336,-3.9336,-3.9284,-3.8403,-3.807,-3.7947,0.0,0.0,0.0,0.0,0.0,0.0,-1.5632,-1.6199,-1.6864,-1.7786,-1.7476,-1.7218,-1.7366,-1.6169,-1.5345,0.0,0.0,0.0,0.0,0.0,0.0,0.0,0.0,0.0,0.0,0.0,0.0,0.0,0.0,0.0,0.0,0.0,0.0,0.0,0.0,0.0,0.0,0.0,0.0,0.0,0.0,0.0,0.0,0.0,0.0,0.0,0.0,0.0,0.0,0.0,0.0,0.0,-2.7933,-2.8821,0.0,0.0,-3.7954,-3.9994,-4.2417,-4.4874,-4.6286,-4.4288,-4.1022,-3.7389,-3.3885,0.0,-2.5383,-2.3604,-2.4006,-2.4533,-2.4025,-2.5491,-2.6888,-2.7285,-2.8027,0.0,0.0,0.0,0.0,0.0,0.0,0.0,0.0,0.0,0.0,0.0,0.0,0.0,-4.654,-4.7265,-4.7337,-4.654,-4.6323,-4.5777,-4.4775,-4.4057,-4.3443,-4.2921,-4.2351,-4.1674,-4.0906,-3.9814,-3.9217,-3.9024,-3.8392,0.0,0.0,-3.8585,-3.8845,-3.9217,-3.8286,-3.7918,-3.776,-3.6513,-3.6057,-3.5881,0.0,0.0,0.0,0.0,0.0,-1.504,-1.5453,-1.6077,-1.6824,-1.7754,-1.7359,-1.712,-1.7473,-1.6428,-1.5579,-1.5313,0.0,0.0,0.0,0.0,0.0,0.0,0.0,0.0,0.0,0.0,-1.5158,-1.5092,-1.5133,0.0,0.0,0.0,0.0,0.0,0.0,0.0,0.0,0.0,0.0,0.0,0.0,0.0,0.0,0.0,0.0,0.0,0.0,0.0,0.0,0.0,0.0,0.0,0.0,-2.6968,-2.7642,0.0,-3.5628,-3.7985,-4.0614,-4.347,-4.5275,-4.3391,-4.0234,-3.6677,0.0,0.0,-2.4953,-2.3293,-2.3757,-2.4313,-2.3802,-2.5229,-2.6446,-2.6382,-2.7285,-2.8632,-3.0413,0.0,0.0,0.0,0.0,0.0,0.0,0.0,0.0,0.0,0.0,0.0,0.0,-4.7391,-4.7228,-4.6178,-4.5959,-4.5267,-4.4014,-4.3312,-4.2853,-4.2648,-4.2,-4.1331,-4.0658,-3.9781,-3.8948,-3.8194,0.0,0.0,0.0,-3.8023,-3.8322,-3.8515,-3.7429,-3.6849,-3.6531,-3.569,-3.5093,-3.4583,0.0,0.0,0.0,0.0,0.0,0.0,-1.6159,-1.6419,-1.6819,-1.7697,-1.7847,-1.7559,-1.671,-1.6596,-1.6231,-1.5382,0.0,0.0,0.0,0.0,0.0,0.0,0.0,0.0,0.0,0.0,-1.5094,-1.5094,-1.5023,-1.5453,-1.6302,0.0,0.0,0.0,0.0,0.0,0.0,0.0,0.0,0.0,0.0,0.0,0.0,0.0,0.0,0.0,0.0,0.0,0.0,0.0,0.0,0.0,0.0,-2.5914,-2.7248,-3.0482,-3.263,-3.4793,-3.8663,-4.0952,-4.2203,-4.2044,-3.8945,-3.5019,0.0,0.0,-2.4726,-2.1988,-2.2636,-2.3433,-2.2496,-2.4183,-2.5743,-2.5793,-2.7036,-2.8656,0.0,0.0,0.0,0.0,0.0,0.0,0.0,0.0,0.0,0.0,0.0,0.0,0.0,-4.7717,-4.6975,-4.5363,-4.5309,-4.4449,-4.2645,-4.2607,-4.249,-4.2305,-4.2019,-4.1614,-4.1054,-4.005,-3.9153,0.0,0.0,0.0,0.0,-3.7795,-3.7672,-3.7025,-3.7007,-3.6513,-3.5897,-3.6691,-3.6023,-3.4793,0.0,0.0,0.0,0.0,0.0,0.0,0.0,-1.5482,-1.5873,-1.6794,-1.6442,-1.6236,-1.6568,-1.6069,-1.5605,-1.5328,0.0,0.0,0.0,0.0,0.0,0.0,0.0,0.0,0.0,0.0,-1.5369,-1.5918,-1.5899,-1.6628,-1.8011,-1.8006,-1.8279,0.0,0.0,0.0,0.0,0.0,0.0,0.0,0.0,0.0,0.0,0.0,0.0,0.0,0.0,0.0,0.0,0.0,0.0,0.0,0.0,0.0,0.0,-2.759,-2.994,0.0,-3.4167,-3.5819,-3.6927,-3.6351,-3.3903,-3.1063,-2.8765,0.0,-2.4284,-2.2684,-2.3141,-2.3829,-2.3808,-2.4846,-2.5856,-2.6353,-2.7194,-2.8081,0.0,0.0,0.0,0.0,0.0,0.0,0.0,0.0,0.0,0.0,0.0,0.0,0.0,-4.7192,-4.6395,-4.5327,-4.5291,-4.4431,-4.2627,-4.2609,-4.251,-4.2308,-4.2207,-4.1513,-4.0269,-3.9943,0.0,0.0,0.0,0.0,0.0,-3.7312,-3.7218,-3.7007,-3.7007,-3.6513,-3.5827,-3.6092,-3.5197,-3.3916,0.0,0.0,0.0,0.0,0.0,0.0,0.0,-1.5052,-1.5449,-1.6408,-1.5821,-1.5627,-1.6503,-1.5825,-1.5302,-1.5306,0.0,0.0,0.0,0.0,0.0,0.0,0.0,0.0,-1.5138,-1.5111,-1.5483,-1.6301,-1.6295,-1.7157,-1.8797,-1.8459,-1.8474,-1.8759,-1.8074,-1.7433,0.0,0.0,0.0,0.0,0.0,0.0,-1.7204,0.0,0.0,0.0,0.0,0.0,0.0,0.0,0.0,0.0,0.0,0.0,0.0,0.0,-2.735,-2.9235,-3.0938,-3.2306,-3.3149,-3.2643,-3.0857,0.0,0.0,-2.5052,-2.3681,-2.2648,-2.2994,-2.3726,-2.4509,-2.5246,-2.5971,-2.6703,-2.7384,0.0,0.0,0.0,0.0,0.0,0.0,0.0,0.0,0.0,0.0,0.0,0.0,0.0,0.0,-4.6323,-4.5689,-4.4874,-4.4838,-4.4164,-4.2727,-4.2709,-4.265,-4.2532,-4.2127,-4.1321,-4.0106,-3.9726,0.0,0.0,0.0,0.0,0.0,-3.7384,-3.7253,-3.7007,-3.7007,-3.6338,-3.5425,-3.5687,-3.492,-3.3775,0.0,0.0,0.0,0.0,0.0,0.0,0.0,0.0,-1.5431,-1.6374,-1.5809,-1.5601,-1.6425,-1.5786,-1.5302,-1.5308,0.0,0.0,0.0,0.0,0.0,0.0,0.0,0.0,-1.5199,-1.5136,-1.5514,-1.6385,-1.6394,-1.7246,-1.8888,-1.8122,-1.8103,-1.8655,-1.708,-1.6272,-1.6068,-1.5175,-1.5283,-1.6092,-1.7045,-1.7022,0.0,0.0,0.0,0.0,0.0,0.0,0.0,0.0,0.0,0.0,0.0,0.0,0.0,0.0,0.0,0.0,0.0,-2.9961,-3.0368,0.0,0.0,0.0,0.0,-2.3849,0.0,-2.2082,-2.2429,-2.3363,-2.4804,-2.5542,-2.6183,-2.6978,0.0,0.0,0.0,0.0,0.0,0.0,0.0,0.0,0.0,0.0,0.0,0.0,0.0,0.0,0.0,-4.5254,-4.4894,-4.4152,-4.4061,-4.3662,-4.2919,-4.2901,-4.2901,-4.2901,-4.1951,-4.1158,-4.0474,-3.9536,0.0,0.0,0.0,0.0,0.0,-3.7882,-3.7662,-3.7046,-3.7046,-3.6167,-3.4989,-3.5674,-3.5226,-3.4376,0.0,0.0,0.0,0.0,0.0,0.0,0.0,0.0,0.0,0.0,-1.5426,-1.5396,-1.566,-1.5454,-1.5329,0.0,0.0,0.0,0.0,0.0,0.0,0.0,0.0,0.0,-1.521,-1.513,-1.5817,-1.729,-1.7248,-1.8103,-1.9793,-2.0203,-1.9497,-1.7893,-1.8103,-1.7107,-1.5275,-1.5049,-1.5065,-1.5403,-1.7058,-1.7204,0.0,0.0,0.0,0.0,-1.9175,-1.9432,0.0,0.0,0.0,0.0,0.0,0.0,0.0,0.0,-2.4777,-2.4467,-2.585,0.0,-2.5261,-2.5367,-2.5009,-2.4174,0.0,0.0,0.0,0.0,0.0,0.0,0.0,0.0,0.0,0.0,0.0,0.0,0.0,0.0,0.0,0.0,0.0,0.0,0.0,0.0,0.0,0.0,0.0,0.0,0.0,-4.4711,-4.4393,-4.44,-4.3613,-4.31,-4.2901,-4.2901,-4.2901,-4.2901,-4.2663,-4.1831,-4.0492,-4.0257,0.0,0.0,0.0,0.0,-3.7966,-3.7792,-3.7626,-3.7448,-3.7448,-3.7234,-3.695,-3.711,-3.672,-3.6103,0.0,0.0,0.0,0.0,0.0,0.0,0.0,0.0,0.0,0.0,0.0,0.0,0.0,0.0,0.0,0.0,0.0,0.0,0.0,0.0,0.0,0.0,0.0,-1.5278,-1.5245,-1.5541,-1.6338,-1.765,-1.7983,-1.8833,-2.017,-2.059,-1.9864,-1.8179,-1.7829,-1.6671,-1.5007,-1.5003,-1.5033,-1.5223,-1.6626,0.0,0.0,0.0,0.0,0.0,-1.8855,-1.9364,0.0,-2.0201,-2.1146,-2.2176,0.0,0.0,0.0,0.0,-2.4337,-2.4503,-2.4536,-2.4354,-2.4169,-2.4223,-2.4174,-2.3665,-2.2027,0.0,0.0,0.0,0.0,0.0,0.0,0.0,0.0,0.0,0.0,0.0,0.0,0.0,0.0,0.0,0.0,0.0,0.0,0.0,0.0,0.0,0.0,0.0,0.0,-4.4053,-4.3853,-4.4121,-4.3451,-4.3069,-4.3069,-4.2957,-4.2957,-4.3069,-4.2705,-4.1957,-4.0854,-4.0471,-3.9729,0.0,0.0,0.0,-3.8167,-3.7757,-3.7595,-3.7595,-3.7595,-3.7381,-3.7059,-3.7201,-3.7119,-3.7003,0.0,0.0,0.0,0.0,0.0,0.0,0.0,0.0,0.0,0.0,0.0,0.0,0.0,0.0,0.0,0.0,0.0,0.0,0.0,0.0,0.0,0.0,-1.5349,-1.5361,-1.5506,-1.6108,-1.6907,-1.7904,-1.8697,-1.9532,-2.0392,-2.0512,-1.9999,-1.883,-1.6953,-1.5716,-1.503,-1.5176,-1.529,-1.5487,-1.6503,0.0,0.0,0.0,0.0,0.0,0.0,0.0,0.0,-2.0297,-2.1313,-2.2473,-2.1809,0.0,0.0,0.0,0.0,0.0,-2.4094,-2.4517,-2.5106,-2.4938,-2.4972,-2.4596,-2.2908,-2.3292,0.0,0.0,0.0,0.0,0.0,0.0,0.0,0.0,0.0,0.0,0.0,0.0,0.0,0.0,0.0,0.0,0.0,0.0,0.0,0.0,0.0,0.0,0.0,-4.3494,-4.3494,-4.3744,-4.3511,-4.3318,-4.3242,-4.3087,-4.3142,-4.3337,-4.2548,-4.1858,-4.1256,-4.0458,-3.9664,0.0,0.0,0.0,-3.8216,-3.7845,-3.7632,-3.7524,-3.765,-3.722,-3.6591,-3.6934,-3.7294,-3.7577,0.0,0.0,0.0,0.0,0.0,0.0,0.0,0.0,0.0,0.0,0.0,0.0,0.0,0.0,0.0,0.0,0.0,0.0,0.0,0.0,0.0,-1.5409,-1.5392,-1.5694,-1.6385,-1.6455,-1.725,-1.8804,-1.9599,-2.0453,-2.1329,-2.1994,-2.1116,-1.8874,-1.6396,-1.5213,-1.5143,-1.5989,-1.6339,-1.6447,-1.8115,0.0,0.0,0.0,0.0,0.0,0.0,0.0,0.0,-2.0219,-2.0876,-2.168,-2.1543,0.0,0.0,0.0,0.0,0.0,-2.3904,-2.5149,-2.6046,-2.5202,-2.5537,-2.5632,-2.3942,-2.4778,0.0,0.0,0.0,0.0,0.0,0.0,0.0,0.0,0.0,0.0,0.0,0.0,0.0,0.0,0.0,0.0,0.0,0.0,0.0,0.0,0.0,0.0,0.0,0.0,-4.3761,-4.403,-4.3777,-4.343,-4.2968,-4.3363,-4.3595,-4.3629,-4.2818,-4.2039,-4.1256,-4.0465,-3.9652,0.0,0.0,-3.8444,-3.8446,-3.8206,-3.7708,-3.7166,-3.7835,-3.7715,-3.7249,-3.7974,-3.8493,-3.8656,0.0,0.0,0.0,0.0,0.0,0.0,0.0,0.0,0.0,0.0,0.0,0.0,0.0,0.0,0.0,0.0,0.0,0.0,0.0,0.0,-1.5397,-1.5405,-1.5848,-1.6283,-1.6649,-1.7507,-1.8567,-1.9817,-2.0585,-2.1155,-2.1556,-2.1459,-2.0558,-1.8985,-1.7273,-1.6266,-1.5886,-1.638,-1.6588,-1.6676,0.0,0.0,0.0,0.0,0.0,0.0,0.0,0.0,0.0,0.0,-2.075,-2.1373,-2.093,0.0,0.0,0.0,0.0,0.0,-2.2662,-2.3514,-2.4558,-2.5004,-2.6053,-2.6567,-2.4885,-2.5742,-2.6619,0.0,0.0,0.0,0.0,0.0,0.0,0.0,0.0,0.0,0.0,0.0,0.0,0.0,0.0,0.0,0.0,0.0,0.0,0.0,0.0,0.0,0.0,0.0,-4.3382,-4.3666,-4.3397,-4.323,-4.3109,-4.2883,-4.2709,-4.2554,-4.2183,-4.1664,-4.1027,-4.064,-3.9956,-3.9064,0.0,-3.8634,-3.8494,-3.8272,-3.7785,-3.7205,-3.7569,-3.7345,-3.6875,-3.7354,-3.8312,-3.9094,0.0,0.0,0.0,0.0,0.0,0.0,0.0,0.0,0.0,0.0,0.0,0.0,0.0,0.0,0.0,0.0,0.0,0.0,0.0,-1.5402,-1.5403,-1.5391,-1.6425,-1.7084,-1.7285,-1.8737,-2.012,-2.1398,-2.1746,-2.1814,-2.1591,-2.0725,-1.9899,-1.9061,-1.8156,-1.74,-1.6833,-1.7092,-1.7218,-1.7285,0.0,0.0,0.0,0.0,0.0,0.0,0.0,0.0,0.0,0.0,0.0,0.0,0.0,0.0,0.0,-2.0551,-2.134,-2.2264,-2.1809,-2.2478,-2.3531,-2.4637,-2.5977,-2.6918,-2.6446,-2.7381,-2.8118,0.0,0.0,0.0,0.0,0.0,0.0,0.0,0.0,0.0,0.0,0.0,0.0,0.0,0.0,0.0,0.0,0.0,0.0,0.0,0.0,0.0,0.0,0.0,-4.2782,-4.2994,-4.2796,-4.2703,-4.2712,-4.2055,-4.1718,-4.1689,-4.1502,-4.1207,-4.0797,-4.0591,-3.9999,-3.9115,-3.9021,-3.8785,-3.8494,-3.8403,-3.7849,-3.7121,-3.7289,-3.7,-3.649,-3.6713,-3.7735,-3.8725,0.0,0.0,0.0,0.0,0.0,0.0,0.0,0.0,0.0,0.0,0.0,0.0,0.0,0.0,0.0,0.0,0.0,0.0,0.0,-1.5407,-1.541,-1.5406,-1.7009,-1.826,-1.9002,-1.9932,-2.1596,-2.4034,-2.3275,-2.2486,-2.1678,-2.0792,-1.9924,-1.9054,-1.8241,-1.7844,-1.7844,-1.8679,-1.9004,-1.9096,-1.9969,0.0,0.0,0.0,0.0,0.0,0.0,0.0,0.0,0.0,0.0,0.0,0.0,0.0,-2.0282,-2.1062,-2.1353,-2.155,-2.2304,-2.3739,-2.4847,-2.4167,-2.4681,-2.62,-2.9306,-3.0584,-3.1568,-3.3199,0.0,0.0,0.0,0.0,0.0,0.0,0.0,0.0,0.0,0.0,0.0,0.0,0.0,0.0,0.0,0.0,0.0,0.0,0.0,0.0,0.0,0.0,0.0,-4.2098,-4.2066,-4.1728,-4.0985,-4.0929,-4.1254,-4.1959,-4.1222,-4.0841,-4.0778,-4.004,-3.941,-3.8921,-3.9101,-3.8913,-3.8525,-3.8758,-3.7907,-3.6551,-3.7294,-3.7202,-3.6708,-3.6967,-3.7155,-3.7148,0.0,0.0,0.0,0.0,0.0,0.0,0.0,0.0,0.0,0.0,0.0,0.0,0.0,0.0,0.0,0.0,0.0,0.0,0.0,-1.541,-1.5391,-1.5405,-1.6557,-1.7831,-1.9232,-2.0612,-2.2301,-2.4357,-2.3988,-2.3363,-2.2488,-2.1058,-2.0244,-1.9925,-1.9042,-1.8675,-1.8735,-1.9067,-1.9204,-1.9278,-2.0157,-2.05,0.0,0.0,0.0,0.0,0.0,0.0,0.0,0.0,-2.068,-2.1247,-2.0937,-2.0483,-2.0125,-2.0431,-2.0923,-2.1429,-2.1719,-2.3056,-2.4429,-2.4592,-2.4933,-2.6098,-2.961,-3.1334,-3.2288,-3.2539,-3.3806,0.0,0.0,0.0,0.0,0.0,0.0,0.0,0.0,0.0,0.0,0.0,0.0,0.0,0.0,0.0,0.0,0.0,0.0,0.0,0.0,0.0,0.0,-4.0516,-4.0985,-4.0872,-4.0059,-3.9521,-3.9408,-3.9696,-3.9934,-4.0059,-4.004,-3.9739,-3.9406,-3.9087,-3.917,-3.9031,-3.8703,-3.8276,-3.7503,-3.653,-3.5951,-3.5917,-3.6138,-3.5706,-3.6209,-3.6904,0.0,0.0,0.0,0.0,0.0,0.0,0.0,0.0,0.0,0.0,0.0,0.0,0.0,0.0,0.0,0.0,0.0,0.0,-1.5407,-1.5408,-1.5407,-1.5395,-1.6509,-1.7667,-1.8865,-2.08,-2.2923,-2.5222,-2.4893,-2.3861,-2.2195,-2.127,-2.0726,-2.048,-2.0121,-1.9838,-1.9609,-1.9619,-1.9615,-1.9665,-2.0286,-2.0511,0.0,0.0,0.0,0.0,0.0,0.0,0.0,0.0,-2.0738,-2.0975,-2.1238,-2.0751,-2.0145,-2.0374,-2.0876,-2.1482,-2.1986,-2.2983,-2.4133,-2.5234,-2.5735,-2.6924,-3.0669,-3.2119,-3.303,-3.4166,-3.5364,-3.5806,0.0,0.0,0.0,0.0,0.0,0.0,0.0,0.0,0.0,0.0,0.0,0.0,0.0,0.0,0.0,0.0,0.0,0.0,0.0,0.0,0.0,0.0,-3.9333,-3.9383,-3.8819,-3.8206,-3.7925,-3.7925,-3.8538,-3.88,-3.8819,-3.9082,-3.9052,-3.8824,-3.9184,-3.9053,-3.8567,-3.8044,-3.7277,-3.6323,-3.5072,-3.4958,-3.5409,-3.4808,-3.5326,-3.6152,0.0,0.0,0.0,0.0,0.0,0.0,0.0,0.0,0.0,0.0,0.0,0.0,0.0,0.0,0.0,0.0,0.0,0.0,-1.5406,-1.541,-1.5405,-1.5396,-1.7069,-1.7999,-1.8009,-2.0501,-2.3496,-2.6961,-2.6095,-2.3903,-2.0527,-2.1392,-2.1334,-2.0546,-2.1403,-2.1313,-2.0509,-2.0501,-2.0505,-2.0507,-2.0566,-2.0561,-2.0497,0.0,0.0,0.0,0.0,0.0,0.0,0.0,-2.0824,-2.027,-2.1149,-2.0809,-2.0289,-2.1149,-2.1368,-2.1715,-2.3427,-2.3866,-2.4244,-2.5989,0.0,0.0,-3.2947,-3.3288,-3.419,-3.9431,-3.9108,-3.7317,-3.5484,0.0,0.0,0.0,0.0,0.0,0.0,0.0,0.0,0.0,0.0,0.0,0.0,0.0,0.0,0.0,0.0,0.0,0.0,0.0,0.0,0.0,-3.711,-3.711,-3.7091,-3.7091,-3.7091,-3.7091,-3.7073,-3.7091,-3.7129,-3.7925,-3.8191,-3.805,-3.9108,-3.8971,-3.8013,-3.8196,-3.7343,-3.5803,-3.494,-3.4612,-3.4612,-3.4612,-3.4612,-3.4612,0.0,0.0,0.0,0.0,0.0,0.0,0.0,0.0,0.0,0.0,0.0,0.0,0.0,0.0,0.0,0.0,0.0,0.0,-1.5444,-1.597,-1.6019,-1.5363,-1.6468,-1.7365,-1.7992,-2.109,-2.3222,-2.4266,-2.4008,-2.3021,-2.1401,-2.1049,-2.0753,-2.0515,-2.0777,-2.0745,-2.0504,-2.0503,-2.0527,-2.0579,-2.0585,-2.0565,-2.0494,0.0,0.0,0.0,0.0,0.0,0.0,0.0,0.0,0.0,-2.2053,-2.1723,-2.1063,-2.1321,-2.2649,-2.4028,-2.3934,-2.5188,0.0,-2.7128,0.0,0.0,0.0,-3.3785,0.0,0.0,-3.8151,-3.6951,0.0,0.0,0.0,0.0,0.0,0.0,0.0,0.0,0.0,0.0,0.0,0.0,0.0,0.0,0.0,0.0,0.0,0.0,0.0,0.0,0.0,0.0,-3.681,-3.6828,-3.6254,-3.6254,-3.6254,-3.6254,-3.5634,-3.5965,-3.711,-3.7354,-3.7432,-3.7372,-3.7706,-3.7657,-3.7328,-3.6813,-3.5972,-3.4958,-3.4695,-3.4612,-3.4612,-3.4612,-3.4612,-3.4612,0.0,0.0,0.0,0.0,0.0,0.0,0.0,0.0,0.0,0.0,-1.5916,-1.5922,0.0,0.0,0.0,0.0,0.0,0.0,0.0,-1.5848,-1.6029,-1.5786,-1.6687,-1.7754,-1.8978,-2.1049,-2.2109,-2.2108,-2.2769,-2.2489,-2.1324,-2.1104,-2.0828,-2.0515,-2.0851,-2.0816,-2.0527,-2.0878,-2.0858,-2.0627,-2.0951,-2.0859,-2.0561,0.0,0.0,0.0,0.0,0.0,0.0,0.0,0.0,0.0,-2.2455,-2.236,-2.202,-2.2336,-2.3492,-2.4727,-2.4887,-2.6015,0.0,-2.8374,-2.9653,-3.1343,-3.3895,0.0,0.0,0.0,0.0,0.0,0.0,0.0,0.0,0.0,0.0,0.0,0.0,0.0,0.0,0.0,0.0,0.0,0.0,0.0,0.0,0.0,0.0,0.0,0.0,0.0,0.0,0.0,-3.5841,-3.5871,-3.539,-3.5371,-3.5371,-3.5371,-3.4846,-3.5138,-3.6115,-3.6472,-3.661,-3.661,-3.661,-3.661,-3.6566,-3.5728,-3.5071,-3.4612,-3.4612,-3.4612,-3.4639,-3.4977,-3.5108,-3.5108,0.0,0.0,0.0,0.0,0.0,0.0,0.0,0.0,0.0,0.0,-1.6817,-1.6823,0.0,0.0,0.0,0.0,0.0,0.0,0.0,-1.5608,-1.5943,-1.6596,-1.7525,-1.8802,-2.0461,-2.0572,-2.0601,-2.0601,-2.2129,-2.2085,-2.0615,-2.1345,-2.1264,-2.0548,-2.1334,-2.1292,-2.0664,-2.1385,-2.1301,-2.0761,-2.1428,-2.1245,-2.0663,-2.1406,0.0,0.0,0.0,0.0,0.0,0.0,0.0,0.0,-2.2429,-2.2747,-2.293,-2.3679,-2.4011,-2.444,-2.5884,0.0,0.0,-2.9598,-3.1042,0.0,0.0,0.0,0.0,0.0,0.0,0.0,0.0,0.0,0.0,0.0,0.0,0.0,0.0,0.0,0.0,0.0,0.0,0.0,0.0,0.0,0.0,0.0,0.0,0.0,0.0,0.0,0.0,0.0,-3.4612,-3.4612,-3.4612,-3.4612,-3.4612,0.0,-3.4612,-3.4612,-3.4631,-3.5409,-3.5784,-3.5784,-3.5784,-3.5784,-3.5728,-3.4921,-3.4612,-3.4612,-3.4612,-3.4612,-3.4695,-3.5484,-3.5784,-3.5784,0.0,0.0,0.0,0.0,0.0,0.0,0.0,0.0,0.0,0.0,0.0,0.0,0.0,0.0,0.0,0.0,0.0,0.0,0.0,-1.7971,-1.8108,-1.7541,-1.841,-1.9429,-2.0475,-2.0565,-2.0594,-2.06,-2.0956,-2.0957,-2.0603,-2.0775,-2.0754,-2.0597,-2.0771,-2.1109,-2.1484,-2.0992,-2.1079,-2.1497,-2.0984,-2.0689,-2.0547,-2.0715,-2.1194,0.0,0.0,0.0,0.0,0.0,0.0,0.0,-2.2315,-2.2787,-2.2828,-2.3007,-2.444,-2.5711,-2.4722,-2.637,0.0,0.0,-3.2814,0.0,0.0,0.0,0.0,0.0,0.0,0.0,0.0,0.0,0.0,0.0,0.0,0.0,0.0,0.0,0.0,0.0,0.0,0.0,0.0,0.0,0.0,0.0,0.0,0.0,0.0,0.0,0.0,-3.4612,-3.4612,-3.4612,-3.4612,-3.4612,-3.4612,0.0,-3.4612,-3.4612,-3.4612,-3.4789,-3.4883,-3.4883,-3.4883,-3.4883,-3.4864,-3.4677,-3.4612,-3.4612,-3.4612,-3.4612,-3.462,-3.4808,-3.4883,-3.4883,0.0,0.0,0.0,0.0,0.0,0.0,0.0,0.0,0.0,0.0,0.0,0.0,0.0,0.0,0.0,0.0,0.0,0.0,0.0,0.0,-1.8543,-1.8466,-1.934,-2.0049,-2.0492,-2.0568,-2.0596,-2.0599,-2.0603,-2.0605,-2.0605,-2.1035,-2.123,-2.1249,-2.1638,-2.2031,-2.2458,-2.2782,-2.2498,-2.1824,-2.2205,-2.1637,-2.0643,-2.144,-2.1767,-2.1956,-2.3106,0.0,0.0,0.0,0.0,0.0,0.0,0.0,-2.3494,-2.388,-2.4588,-2.5241,-2.5162,0.0,0.0,-3.03,0.0,0.0,0.0,0.0,0.0,0.0,0.0,0.0,0.0,0.0,0.0,0.0,0.0,0.0,0.0,0.0,0.0,0.0,0.0,0.0,0.0,0.0,0.0,0.0,0.0,0.0,0.0,-3.4395,-3.4414,-3.4038,-3.4395,-3.4612,-3.4612,-3.4612,-3.4612,-3.4612,-3.4612,-3.4612,-3.4612,-3.4612,-3.4612,-3.4612,-3.4612,-3.4612,-3.4612,-3.4612,-3.4612,-3.4612,-3.4612,-3.4846,-3.5259,-3.5664,-3.5796,-3.5796,0.0,0.0,0.0,0.0,0.0,0.0,0.0,0.0,0.0,0.0,0.0,0.0,0.0,0.0,0.0,0.0,0.0,0.0,0.0,0.0,0.0,-1.9395,-2.013,-2.0509,-2.0515,-2.0575,-2.0601,-2.0599,-2.0602,-2.0682,-2.0838,-2.1562,-2.1973,-2.2147,-2.2793,-2.3261,-2.3621,-2.4858,-2.4342,-2.2813,-2.4089,-2.3269,-2.1402,-2.2791,-2.2966,-2.2713,-2.461,-2.4452,-2.3434,-2.4014,0.0,0.0,0.0,0.0,-2.4233,-2.4884,-2.4626,-2.4432,-2.5884,0.0,-2.758,-3.0713,0.0,0.0,0.0,0.0,0.0,0.0,0.0,0.0,0.0,0.0,0.0,0.0,0.0,0.0,0.0,0.0,0.0,0.0,0.0,0.0,0.0,0.0,0.0,0.0,0.0,0.0,-3.3696,-3.429,-3.4346,-3.3677,-3.4266,-3.4612,-3.4612,-3.4612,-3.4612,-3.4612,-3.4451,-3.4481,-3.4615,-3.4312,-3.4331,-3.4612,-3.4612,-3.4612,-3.4612,-3.4612,-3.4612,-3.4612,-3.4612,-3.5044,-3.5818,-3.6603,-3.6896,-3.6927,0.0,0.0,0.0,0.0,0.0,0.0,0.0,0.0,0.0,0.0,-2.0892,0.0,0.0,0.0,0.0,0.0,0.0,0.0,0.0,0.0,0.0,-2.032,-2.0441,-2.0539,-2.0598,-2.0599,-2.0599,-2.0599,-2.0597,-2.0988,-2.1731,-2.1855,-2.2266,-2.2948,-2.3045,-2.394,-2.5318,-2.4716,-2.5171,-2.6256,-2.5675,-2.4813,-2.3927,-2.4138,-2.4586,-2.5042,-2.4607,-2.4749,-2.5069,-2.4423,-2.3693,0.0,0.0,0.0,-2.4116,-2.4154,-2.457,-2.5081,0.0,0.0,-2.9044,0.0,0.0,0.0,0.0,0.0,0.0,0.0,0.0,0.0,0.0,0.0,0.0,0.0,0.0,0.0,0.0,0.0,0.0,0.0,0.0,0.0,0.0,0.0,0.0,0.0,0.0,0.0,-3.4709,-3.4794,-3.4813,-3.4699,-3.4632,-3.4612,-3.4612,-3.4612,-3.4612,-3.4594,-3.3888,-3.3997,-3.4711,-3.3151,-3.3231,-3.4612,-3.4612,-3.4612,-3.4612,-3.4612,-3.4612,-3.4612,-3.4612,-3.4741,-3.504,-3.578,-3.6103,-3.6236,0.0,0.0,0.0,0.0,0.0,0.0,0.0,0.0,0.0,0.0,0.0,-2.1121,0.0,0.0,0.0,0.0,0.0,0.0,0.0,0.0,0.0,-2.1969,-2.1494,-2.1241,-2.1268,-2.0838,-2.0602,-2.0601,-2.0601,-2.1283,-2.257,-2.2577,-2.3026,-2.3858,-2.4344,-2.4984,-2.5698,-2.5745,-2.5673,-2.5541,-2.5587,-2.4836,-2.372,-2.4213,-2.4315,-2.4279,-2.4824,-2.4946,-2.4838,-2.4907,-2.4666,-2.4416,-2.4728,0.0,0.0,0.0,-2.4624,0.0,-2.508,-2.6688,-2.8402,0.0,0.0,0.0,0.0,0.0,0.0,0.0,0.0,0.0,0.0,0.0,0.0,0.0,0.0,0.0,0.0,0.0,0.0,0.0,0.0,0.0,0.0,0.0,0.0,0.0,0.0,-3.4481,-3.3018,-3.3836,-3.3913,-3.2972,-3.3294,-3.3486,-3.3475,-3.344,-3.3431,-3.3431,-3.3143,-3.3196,-3.3536,-3.2778,-3.327,-3.4678,-3.4164,-3.4231,-3.4708,-3.4708,-3.4708,-3.4727,-3.4751,-3.5315,-3.6136,-3.6494,-3.6625,-3.666,0.0,0.0,0.0,0.0,0.0,0.0,0.0,0.0,0.0,0.0,0.0,0.0,0.0,0.0,0.0,0.0,0.0,0.0,0.0,0.0,0.0,-2.2792,-2.2362,-2.2128,-2.2129,-2.1347,-2.0936,-2.0934,-2.07,-2.1461,-2.3097,-2.3101,-2.3803,-2.5083,-2.5506,-2.5949,-2.637,-2.6987,-2.6758,-2.6054,-2.6435,-2.5708,-2.4467,-2.5116,-2.4955,-2.4562,-2.5806,-2.5974,-2.5615,-2.5771,-2.5834,-2.5782,-2.5494,-2.4956,0.0,0.0,0.0,0.0,0.0,0.0,-2.7662,0.0,0.0,0.0,0.0,0.0,0.0,0.0,0.0,0.0,0.0,0.0,0.0,0.0,0.0,0.0,0.0,0.0,0.0,0.0,0.0,0.0,0.0,0.0,0.0,0.0,0.0,-3.4009,-3.1883,-3.2974,-3.3069,-3.1826,-3.2306,-3.2604,-3.2595,-3.2565,-3.2553,-3.2557,-3.2438,-3.2474,-3.2639,-3.2244,-3.2878,-3.4263,-3.3753,-3.4036,-3.4879,-3.4879,-3.4849,-3.4839,-3.485,-3.5565,-3.658,-3.679,-3.6975,-3.7145,0.0,0.0,0.0,0.0,0.0,0.0,0.0,0.0,0.0,0.0,0.0,0.0,-2.0655,-2.1352,-2.2207,-2.3029,-2.2348,0.0,0.0,0.0,0.0,-2.1951,-2.2654,0.0,-2.3024,-2.2246,-2.1836,-2.1834,-2.1008,-2.1455,-2.3097,-2.3095,-2.4442,-2.6826,-2.6055,-2.6572,-2.8064,-2.8119,-2.9038,-3.0402,-2.9608,-2.8749,-2.794,-2.7982,-2.7974,-2.795,-2.8039,-2.8532,-2.889,-2.7278,-2.672,-2.6583,-2.5684,-2.5359,0.0,0.0,0.0,0.0,0.0,-2.6461,0.0,0.0,0.0,0.0,0.0,0.0,0.0,0.0,0.0,0.0,0.0,0.0,0.0,0.0,0.0,0.0,0.0,0.0,0.0,0.0,0.0,0.0,0.0,0.0,0.0,0.0,0.0,-3.3956,-3.2872,-3.2904,-3.2904,-3.2827,-3.268,-3.2595,-3.2595,-3.2656,-3.269,-3.267,-3.1849,-3.1929,-3.273,-3.1072,-3.1264,-3.2941,-3.3588,-3.4319,-3.5079,-3.5079,-3.5009,-3.4889,-3.4839,-3.4896,-3.5097,-3.5741,-3.6501,-3.7283,0.0,0.0,0.0,0.0,0.0,0.0,0.0,0.0,0.0,0.0,0.0,0.0,0.0,-2.378,-2.4422,-2.4739,-2.397,0.0,0.0,0.0,0.0,-2.2675,-2.2948,-2.3103,-2.3105,-2.2812,-2.2402,-2.183,-2.1574,-2.2296,-2.3938,-2.3939,-2.5326,-2.7806,-2.6915,-2.7177,-2.8259,-2.8212,-2.8873,-2.988,-2.9023,-2.8796,-2.8963,-2.9023,0.0,0.0,0.0,0.0,0.0,-2.8517,-2.8104,-2.7572,-2.7241,0.0,0.0,0.0,0.0,0.0,0.0,0.0,0.0,0.0,0.0,0.0,0.0,0.0,0.0,0.0,0.0,0.0,0.0,0.0,0.0,0.0,0.0,0.0,0.0,0.0,0.0,0.0,0.0,0.0,0.0,0.0,0.0,0.0,0.0,0.0,-3.1506,-3.1956,-3.1763,-3.0699,-3.0588,-3.0262,-2.966,-3.0829,-3.111,-3.0513,-3.0811,-3.1129,-3.1434,-3.0805,-3.1134,-3.2232,-3.2556,-3.3356,-3.4453,-3.4453,-3.4756,-3.5232,-3.5243,-3.5493,-3.5905,-3.6185,-3.6786,-3.7414,0.0,0.0,0.0,0.0,0.0,0.0,0.0,0.0,0.0,-2.4334,0.0,0.0,0.0,0.0,-2.4945,-2.5231,-2.4733,-2.4022,-2.3157,-2.3377,-2.3535,-2.3535,-2.4101,-2.414,-2.3555,-2.3534,-2.3101,-2.2236,-2.1727,-2.2627,-2.4837,-2.4547,-2.5797,-2.8297,-2.8308,-2.8628,-2.9122,-2.9072,-2.9708,-3.0673,0.0,0.0,-3.0286,0.0,0.0,0.0,0.0,0.0,0.0,0.0,0.0,0.0,0.0,0.0,0.0,0.0,0.0,0.0,-2.6094,0.0,0.0,0.0,0.0,0.0,0.0,0.0,0.0,0.0,0.0,0.0,0.0,0.0,0.0,0.0,0.0,0.0,0.0,0.0,0.0,0.0,0.0,0.0,0.0,0.0,0.0,0.0,0.0,0.0,-3.0683,-3.1149,-3.0827,-2.9435,-2.9396,-2.8958,-2.8043,-2.952,-2.9954,-2.9346,-3.0265,-3.0706,-3.0692,-3.0706,-3.0997,-3.153,-3.1848,-3.2832,-3.4192,-3.4192,-3.468,-3.5412,-3.5143,-3.5434,-3.5994,-3.5737,-3.6291,-3.7111,0.0,0.0,0.0,0.0,0.0,0.0,0.0,0.0,-2.5913,-2.6749,0.0,0.0,0.0,0.0,0.0,-2.4329,-2.4403,-2.404,-2.316,-2.3886,-2.4355,-2.4355,0.0,0.0,-2.4433,-2.4427,-2.4008,-2.315,-2.1506,-2.2427,-2.5676,-2.4859,-2.5857,-2.8416,-3.0132,-3.0885,-3.0864,-3.0811,-3.1773,-3.3186,0.0,-3.1274,-3.2065,0.0,0.0,0.0,-3.2992,-3.2753,0.0,0.0,0.0,0.0,0.0,0.0,0.0,0.0,0.0,0.0,0.0,0.0,0.0,0.0,0.0,0.0,0.0,0.0,0.0,0.0,0.0,0.0,0.0,0.0,0.0,0.0,0.0,0.0,0.0,0.0,0.0,0.0,0.0,0.0,0.0,0.0,0.0,0.0,0.0,-3.1482,-3.0606,-3.0567,-3.0207,-2.9415,-2.9396,-2.8976,-2.81,-2.8997,-2.9428,-2.9408,-3.0282,-3.0694,-3.0694,-3.0694,-3.0694,-3.0752,-3.158,-3.288,-3.4366,-3.4366,-3.4784,-3.5347,-3.4437,-3.457,-3.517,-3.4251,-3.4974,-3.6421,0.0,0.0,0.0,0.0,0.0,0.0,-2.5916,-2.581,-2.5736,0.0,0.0,0.0,-2.6528,-2.6123,-2.5453,-2.4478,-2.44,-2.4038,-2.3157,-2.3338,-2.3456,-2.3453,-2.4531,-2.4881,-2.4403,-2.5027,-2.4905,-2.4046,-2.3586,-2.416,-2.571,-2.6104,-2.7338,-2.9293,-3.0358,-3.1519,-3.268,-3.2654,0.0,-3.4085,-3.2335,-3.2519,0.0,0.0,0.0,0.0,0.0,-3.3141,-3.2891,0.0,-3.3037,-3.3208,0.0,0.0,0.0,0.0,0.0,0.0,-2.6285,0.0,0.0,0.0,0.0,0.0,0.0,0.0,0.0,0.0,0.0,0.0,0.0,0.0,0.0,0.0,0.0,0.0,0.0,0.0,0.0,0.0,0.0,0.0,0.0,0.0,0.0,0.0,-3.0669,-3.0657,-2.9779,-2.9721,-2.9627,-2.9417,-2.9398,-2.8974,-2.81,-2.9583,-3.001,-2.9408,-3.0282,-3.0694,-3.0694,-3.0694,-3.0694,-3.0713,-3.0943,-3.2019,-3.3595,-3.3595,-3.3719,-3.3871,-3.3568,-3.3979,-3.469,-3.4431,-3.5382,-3.6735,0.0,0.0,0.0,0.0,0.0,0.0,-2.6517,-2.6408,-2.6564,0.0,0.0,0.0,-2.6442,-2.6361,-2.5983,-2.5023,-2.526,-2.5249,-2.4756,-2.4724,-2.4724,-2.4738,-2.5211,-2.5149,-2.4425,-2.5249,-2.5261,-2.4395,-2.4039,-2.4677,-2.6251,-2.6764,-2.7744,-2.9114,-3.0666,-3.1908,-3.2919,0.0,0.0,0.0,-3.3238,0.0,0.0,-3.3571,-3.308,0.0,0.0,0.0,-3.3356,-3.3686,-3.3945,0.0,0.0,0.0,0.0,0.0,0.0,0.0,0.0,0.0,0.0,0.0,0.0,0.0,0.0,-2.8307,0.0,0.0,0.0,0.0,0.0,0.0,0.0,0.0,0.0,0.0,0.0,0.0,0.0,0.0,0.0,0.0,0.0,0.0,0.0,-2.9954,-2.974,-2.955,-2.9408,-2.9408,-2.9408,-2.9408,-2.9055,-2.8609,-2.81,-2.9114,-2.9544,-2.9408,-3.0282,-3.0694,-3.0694,-3.0694,-3.0694,-3.0713,-3.1079,-3.1603,-3.2244,-3.2613,-3.3177,-3.374,-3.2986,-3.3444,-3.4464,-3.4098,-3.5025,-3.6381,0.0,0.0,0.0,-2.4548,-2.4518,-2.5354,-2.7696,-2.7565,-2.7922,0.0,-2.9059,-2.7681,-2.6315,-2.5998,-2.5943,-2.6112,-2.6607,-2.6987,-2.7137,-2.7145,-2.7146,-2.714,-2.7137,-2.6406,-2.4867,-2.5579,-2.5545,-2.4687,-2.3897,-2.4718,-2.6986,-2.709,-2.7601,-2.8541,-3.0999,0.0,-3.2359,0.0,0.0,-3.5624,-3.4178,-3.4471,0.0,0.0,-3.4405,0.0,-3.501,-3.4404,-3.3434,-3.4347,-3.4117,0.0,0.0,0.0,0.0,0.0,-2.7725,0.0,0.0,0.0,0.0,0.0,0.0,0.0,-2.9059,-2.8659,-2.7912,0.0,0.0,0.0,0.0,0.0,0.0,0.0,0.0,0.0,0.0,0.0,0.0,0.0,0.0,0.0,0.0,-2.9855,-2.9641,-3.0228,-2.8845,-2.8434,-2.9486,-2.9447,-2.9447,-2.9544,-2.8783,-2.8395,-2.8395,-2.8395,-2.8783,-2.9544,-3.0321,-3.0694,-3.0694,-3.0694,-3.0694,-3.0752,-3.1619,-3.1623,-3.1043,-3.1716,-3.2827,-3.3938,-3.2438,-3.2835,-3.4139,-3.3459,-3.4219,-3.5577,0.0,0.0,0.0,0.0,-2.5851,-2.6505,-2.7067,-2.8145,-2.8611,-2.7747,-2.7973,-2.8579,-2.9593,-2.8499,-2.7982,-2.8702,-2.7668,-2.7276,-2.7992,-2.8059,-2.8042,-2.8058,-2.799,-2.7819,-2.7472,-2.7636,-2.7286,-2.6403,-2.6232,-2.6426,-2.6926,-2.7641,-2.8429,-2.9351,-3.1249,-3.2497,0.0,0.0,0.0,-3.4882,-3.525,0.0,-3.5642,-3.4122,-3.3112,-3.2435,-3.1897,-3.2388,-3.3548,0.0,-3.5051,-3.4113,0.0,0.0,0.0,0.0,0.0,0.0,0.0,0.0,0.0,0.0,0.0,0.0,-2.8143,-2.8216,-2.8249,0.0,0.0,0.0,0.0,0.0,0.0,0.0,0.0,0.0,0.0,0.0,0.0,0.0,0.0,0.0,0.0,-2.9505,-2.8903,-2.7722,-2.7333,-2.8107,-3.0325,-2.9777,-2.9719,-3.0422,-3.0282,-3.0185,-3.0185,-3.0185,-3.0282,-3.0461,-3.0616,-3.0694,-3.0694,-3.0694,-3.0694,-3.0752,-3.1619,-3.2299,-3.2749,-3.2221,-3.1778,-3.1413,-3.1082,-3.158,-3.2547,-3.3072,-3.3895,-3.4829,0.0,0.0,0.0,0.0,0.0,0.0,-2.7372,-2.8204,-2.8748,-2.8752,-2.8773,-2.9444,-3.1122,-2.9794,-2.9144,-3.0016,-2.976,-2.9725,-3.0165,-3.0204,-3.0208,-3.0202,-2.9336,-2.8856,-2.8856,-2.8413,-2.7985,-2.7548,-2.7542,-2.7325,-2.6932,-2.8242,-2.8849,-2.8951,-3.1094,-3.2775,0.0,0.0,-3.6269,-3.7634,-3.5937,0.0,-3.4503,-3.4075,-3.3382,-3.271,-3.3099,-3.3801,-3.4692,-3.558,-3.5317,0.0,0.0,-3.3041,-3.2289,0.0,-2.9826,-2.9784,0.0,0.0,0.0,-2.6913,0.0,0.0,0.0,-2.8469,0.0,0.0,0.0,0.0,0.0,0.0,0.0,0.0,0.0,0.0,0.0,0.0,0.0,0.0,0.0,0.0,0.0,-2.8398,-2.7621,-2.6359,-2.6653,-2.7624,-2.9311,-2.8612,-2.8942,-3.0655,-2.9855,-2.9816,-3.0694,-3.0263,-3.0263,-3.0694,-3.0694,-3.0694,-3.0694,-3.0694,-3.0943,-3.137,-3.1813,-3.2493,-3.3274,-3.2827,-3.24,-3.1914,-3.1043,-3.1234,-3.2105,-3.2982,-3.3814,-3.4621,-2.5657,0.0,0.0,0.0,0.0,0.0,-2.7907,-2.851,-2.9384,-3.0895,-3.0223,-3.0275,-3.1965,-3.0513,-2.9891,-3.1096,-3.1597,-3.1983,-3.2335,-3.2354,-3.2358,-3.2353,-3.0839,-2.9988,-2.998,-2.9132,-2.8595,-2.8429,-2.8282,-2.7923,-2.7417,-2.8659,-2.9121,-2.9029,-3.1258,-3.3214,0.0,0.0,0.0,-3.9731,0.0,-3.4966,-3.4827,-3.5132,-3.4633,-3.3913,-3.494,-3.5426,-3.5593,-3.5837,0.0,-3.5073,-3.4897,-3.4502,0.0,0.0,0.0,0.0,0.0,0.0,0.0,0.0,0.0,-2.758,0.0,0.0,0.0,0.0,0.0,0.0,0.0,0.0,0.0,0.0,0.0,0.0,0.0,0.0,0.0,0.0,0.0,0.0,0.0,-2.7372,-2.6614,-2.5892,-2.665,-2.7485,-2.8317,-2.7738,-2.8401,-3.0635,-2.9502,-2.9521,-3.0943,-3.0243,-3.0243,-3.0943,-3.0943,-3.0943,-3.0962,-3.1121,-3.1584,-3.226,-3.2415,-3.2885,-3.3526,-3.3526,-3.3526,-3.3351,-3.1623,-3.139,-3.2105,-3.2982,-3.3701,-3.4439,-2.5813,-2.6184,0.0,0.0,0.0,0.0,-2.8105,-3.0029,-3.1868,-3.2711,-3.1442,-3.1117,-3.2864,-3.0923,0.0,-3.2792,0.0,0.0,-3.3144,0.0,-3.3242,-3.3241,-3.2274,0.0,-3.1722,-3.0857,-3.0043,-2.9267,-2.8547,-2.8517,-2.9107,-2.854,-2.9435,-3.1601,-3.2673,0.0,0.0,0.0,-3.6836,0.0,-3.6797,-3.8196,0.0,-3.8516,-3.6936,-3.5353,-3.4049,-3.4085,-3.4856,0.0,-3.6345,-3.6769,0.0,-3.6184,0.0,0.0,0.0,0.0,0.0,0.0,0.0,0.0,-2.8219,0.0,0.0,0.0,0.0,0.0,0.0,0.0,0.0,0.0,0.0,0.0,0.0,0.0,0.0,0.0,0.0,0.0,0.0,0.0,0.0,0.0,-2.6867,-2.677,-2.7502,-2.8337,-2.9214,-2.9175,-2.9602,-3.0674,-3.1254,-3.1658,-3.1852,-3.1755,-3.1755,-3.1852,-3.1852,-3.1852,-3.1871,-3.2652,-3.306,-3.3196,-3.3915,-3.4268,-3.4365,-3.4365,-3.4365,-3.421,-3.2516,-3.191,-3.2105,-3.2982,-3.3351,-3.3779,-2.7896,-2.768,0.0,0.0,0.0,0.0,0.0,-3.0936,-3.2895,-3.3741,-3.3231,-3.3289,0.0,0.0,0.0,0.0,0.0,-3.4077,0.0,0.0,-3.4545,0.0,0.0,0.0,0.0,-3.2159,-3.1266,-3.0847,-3.0046,-2.9567,-2.9407,-3.0016,-3.0646,-3.1293,-3.2633,0.0,-3.5133,0.0,0.0,0.0,0.0,0.0,0.0,-3.8183,-3.6502,-3.5769,-3.5051,-3.5048,-3.5412,0.0,-3.6478,0.0,0.0,0.0,0.0,0.0,0.0,0.0,0.0,0.0,0.0,0.0,0.0,0.0,0.0,0.0,-2.9131,0.0,0.0,0.0,0.0,0.0,0.0,0.0,0.0,0.0,0.0,0.0,0.0,0.0,0.0,0.0,0.0,0.0,0.0,0.0,0.0,-2.7777,-2.8609,-2.8647,-2.9272,-3.0655,-3.104,-3.1252,-3.1251,-3.2243,-3.2495,-3.201,-3.2515,-3.2749,-3.2769,-3.3138,-3.3546,-3.4012,-3.4346,-3.4789,-3.5255,-3.5255,-3.5255,-3.5138,-3.3915,-3.2866,-3.2105,-3.2982,-3.3604,-3.4284,-2.9714,0.0,0.0,0.0,0.0,0.0,0.0,0.0,0.0,0.0,0.0,0.0,-3.603,-3.6129,0.0,0.0,-3.5854,-3.6149,0.0,0.0,-3.5559,0.0,0.0,0.0,0.0,0.0,0.0,-3.2227,-3.1185,-3.0583,-3.0424,-3.12,-3.1607,-3.1792,0.0,-3.439,-3.5264,0.0,0.0,-3.9,-3.9003,-3.9627,-4.026,-3.7613,-3.6323,-3.5898,-3.5892,-3.5895,-3.5939,-3.6187,-3.6679,0.0,-3.6464,0.0,0.0,0.0,0.0,0.0,-3.2663,0.0,0.0,0.0,0.0,0.0,0.0,0.0,0.0,0.0,0.0,0.0,0.0,0.0,0.0,0.0,0.0,0.0,0.0,0.0,0.0,0.0,0.0,0.0,0.0,0.0,0.0,0.0,0.0,0.0,-2.8065,-2.8337,-2.9152,-3.0655,-3.0923,-3.1064,-3.1068,-3.2308,-3.2755,-3.2352,-3.3008,-3.3429,-3.3643,-3.3876,-3.4303,-3.4866,-3.4866,-3.5216,-3.5795,-3.5795,-3.5795,-3.5736,-3.51,-3.4109,-3.3114,-3.3759,-3.4517,-3.5449,-3.0563,-3.0587,0.0,0.0,0.0,0.0,0.0,0.0,0.0,0.0,0.0,0.0,0.0,0.0,0.0,0.0,0.0,-3.6727,-3.5952,0.0,-3.5976,0.0,0.0,-3.5006,0.0,0.0,0.0,0.0,-3.1411,-3.1426,-3.2953,-3.1385,-3.1978,-3.4399,-3.5253,-3.6138,-3.708,-3.7944,-3.7887,-3.7186,-3.7246,-3.6816,-3.6269,0.0,-3.7373,-3.5907,-3.5895,0.0,0.0,-3.6873,-3.7172,0.0,0.0,0.0,0.0,0.0,0.0,0.0,0.0,0.0,0.0,-3.2243,0.0,0.0,0.0,0.0,-3.0484,0.0,0.0,0.0,0.0,0.0,-2.7996,-2.7096,0.0,0.0,0.0,0.0,0.0,0.0,0.0,0.0,0.0,0.0,0.0,0.0,0.0,0.0,-2.81,-2.89,-2.9777,-3.0674,-3.1525,-3.1949,-3.1953,-3.2007,-3.2458,-3.3258,-3.3293,-3.3701,-3.4482,-3.5333,-3.5736,-3.5756,-3.5756,-3.5775,-3.5795,-3.5795,-3.5795,-3.5795,-3.5775,-3.5736,-3.5678,-3.5717,-3.6261,-3.7275,0.0,0.0,0.0,0.0,0.0,0.0,0.0,-3.6093,0.0,0.0,0.0,0.0,0.0,0.0,-4.0088,0.0,0.0,-3.8769,-3.8496,-3.8153,0.0,0.0,0.0,-3.699,0.0,0.0,0.0,0.0,0.0,-3.2537,-3.3091,-3.3166,-3.364,-3.4448,0.0,-3.5088,0.0,0.0,0.0,0.0,0.0,-3.7687,-3.8292,0.0,0.0,-3.5957,-3.5917,-3.5937,0.0,-3.6265,-3.6715,-3.71,-3.6512,-3.6735,-3.6982,-3.5828,-3.5071,0.0,0.0,0.0,-3.4053,-3.3189,0.0,0.0,0.0,0.0,0.0,0.0,0.0,0.0,0.0,0.0,-2.6483,-2.6168,-2.6354,-2.6532,0.0,0.0,0.0,0.0,0.0,0.0,0.0,0.0,0.0,0.0,0.0,0.0,0.0,-2.8939,-2.9797,-3.0674,-3.1545,-3.1718,-3.114,-3.2285,-3.3008,-3.3303,-3.3296,-3.4012,-3.5352,-3.5061,-3.5255,-3.5795,-3.5795,-3.5795,-3.5795,-3.5795,-3.5795,-3.5853,-3.644,-3.7001,-3.7374,-3.6227,-3.6709,-3.8205,-3.0885,0.0,0.0,0.0,0.0,0.0,0.0,0.0,0.0,0.0,-4.0761,0.0,-4.1854,0.0,-4.2668,0.0,-4.1165,-4.0908,-4.0236,-3.9385,0.0,-3.6776,-3.7712,0.0,0.0,0.0,0.0,0.0,0.0,-3.3658,-3.3997,-3.4283,-3.4579,-3.4885,0.0,-3.5522,-3.5017,0.0,-3.5957,0.0,0.0,-3.7376,0.0,0.0,-3.6483,-3.7196,0.0,-3.5949,-3.5957,-3.5916,-3.6272,-3.6635,-3.6079,-3.6292,-3.6637,-3.6053,-3.55,-3.5076,-3.5117,-3.5134,0.0,-3.4078,-3.3867,0.0,-3.347,0.0,0.0,0.0,0.0,0.0,0.0,0.0,0.0,-2.6543,-2.6092,-2.5689,0.0,-2.6048,0.0,0.0,0.0,0.0,0.0,0.0,0.0,0.0,-2.7159,-2.7581,0.0,0.0,-2.9797,-3.0674,-3.1234,-3.1274,-3.0714,-3.1803,-3.2697,-3.33,-3.3296,-3.4187,-3.5775,-3.5247,-3.5282,-3.5795,-3.5827,-3.5841,-3.5841,-3.5841,-3.5841,-3.5923,-3.6803,-3.7647,-3.8305,-3.75,-3.8095,-3.9436,0.0,0.0,0.0,0.0,-3.3803,0.0,0.0,0.0,-3.987,0.0,-4.1708,-4.2592,-4.3537,-4.4433,-4.4634,-4.3809,-4.3744,0.0,-4.1222,-4.0391,0.0,0.0,-3.6054,-3.5232,-3.339,0.0,0.0,0.0,0.0,0.0,-3.5639,-3.4809,-3.49,-3.5818,-3.7501,0.0,-3.5974,-3.7695,-3.7459,-3.5901,-3.5897,-3.5976,-3.6074,-3.5957,-3.7471,-3.9376,-3.6884,-3.5951,-3.5892,-3.5908,-3.5908,-3.5908,-3.5908,-3.5908,-3.5908,-3.5908,-3.5908,-3.5892,-3.5904,-3.5899,-3.5721,-3.4946,0.0,0.0,0.0,0.0,-3.3225,0.0,0.0,0.0,0.0,0.0,0.0,-2.8006,-2.6777,-2.568,-2.5613,0.0,0.0,0.0,0.0,0.0,0.0,0.0,-2.8773,-2.7142,-2.7755,-2.8218,0.0,0.0,-2.98,-3.0674,-3.0694,-3.0694,-3.0694,-3.0733,-3.1623,-3.3293,-3.3293,-3.4187,-3.5799,-3.582,-3.5817,-3.5807,-3.5866,-3.5894,-3.5894,-3.5894,-3.5894,-3.5997,-3.6916,-3.7767,-3.8572,-3.9449,-4.0262,-4.0837,-3.2464,-3.3551,-3.4486,0.0,-3.596,-3.7498,0.0,0.0,0.0,0.0,-4.3604,-4.4536,-4.5472,-4.5798,-4.5845,-4.564,-4.5037,0.0,0.0,0.0,0.0,-3.8885,-3.8682,-3.7277,-3.4328,-3.493,0.0,-3.5285,0.0,0.0,-3.6492,-3.6311,-3.6366,-3.6615,0.0,0.0,-3.673,-3.7286,-3.6926,-3.597,-3.5966,-3.7084,0.0,0.0,-3.7527,-3.9376,-3.6884,-3.5981,-3.5975,-3.5916,-3.5908,-3.5908,-3.5908,-3.5908,-3.5908,-3.5908,-3.5908,-3.5892,-3.5904,-3.5899,-3.5855,-3.5636,-3.5583,-3.5524,0.0,0.0,0.0,0.0,0.0,0.0,0.0,0.0,0.0,0.0,-2.6364,0.0,0.0,0.0,0.0,0.0,0.0,0.0,0.0,0.0,-2.8619,-2.8825,-2.8437,-2.8488,0.0,0.0,0.0,-3.0671,-3.0707,-3.0694,-3.0694,-3.1331,-3.2225,-3.3293,-3.3293,-3.4187,-3.5779,-3.5197,-3.5277,-3.5888,-3.5884,-3.5901,-3.5901,-3.5901,-3.5901,-3.6059,-3.7572,-3.8696,-3.9545,-4.0423,-4.0465,-4.0175,-3.4446,0.0,0.0,-3.7343,0.0,0.0,-3.9779,0.0,0.0,-4.3841,-4.4476,0.0,-4.6158,-4.6273,-4.63,-4.63,-4.5851,0.0,0.0,0.0,0.0,-3.9848,-3.9004,-3.7171,-3.4137,-3.4768,0.0,-3.5088,0.0,0.0,-3.7326,-3.7353,-3.7405,0.0,0.0,-3.8116,0.0,-3.7866,-3.7513,-3.7026,-3.6298,0.0,0.0,-3.6531,-3.6868,-3.7901,-3.6504,-3.5979,-3.5948,-3.5914,-3.5908,-3.5908,-3.5908,-3.5908,-3.5908,-3.5908,-3.5908,-3.5914,-3.5931,-3.5924,-3.5916,-3.5938,-3.594,-3.5936,-3.5909,-3.5558,-3.5227,0.0,0.0,0.0,0.0,0.0,0.0,0.0,0.0,0.0,0.0,0.0,0.0,0.0,0.0,0.0,0.0,0.0,-2.8459,-2.8944,-2.885,-2.8975,0.0,0.0,0.0,-3.0684,-3.1074,-3.1271,-3.1273,-3.2124,-3.2999,-3.3818,-3.3854,-3.4351,-3.5262,-3.5195,-3.524,-3.5357,-3.5725,-3.5695,-3.5383,-3.5383,-3.5383,-3.5578,-3.7689,-3.8574,-3.8863,-4.0073,-4.023,-3.9876,0.0,0.0,0.0,0.0,0.0,0.0,0.0,-4.1786,0.0,-4.4666,0.0,-4.5247,-4.6111,-4.6264,-4.63,-4.63,0.0,-4.5874,-4.4884,-4.3409,-4.1814,-4.0139,-3.8391,-3.6344,-3.3962,-3.4416,0.0,0.0,0.0,0.0,-3.8166,-3.8166,0.0,0.0,0.0,0.0,0.0,-3.8816,-3.8426,0.0,-3.6758,-3.6223,-3.6321,-3.6204,-3.616,-3.6132,-3.6025,-3.5951,-3.5892,-3.5889,-3.5908,-3.5908,-3.5908,-3.5908,-3.5908,-3.5908,-3.5908,-3.5914,-3.5975,-3.5921,-3.5889,-3.5968,-3.5986,-3.5955,-3.5914,-3.5907,-3.5883,-3.5883,-3.5278,-3.4948,0.0,0.0,0.0,0.0,0.0,0.0,0.0,0.0,0.0,0.0,0.0,0.0,0.0,0.0,-2.8398,-2.8613,-2.9272,0.0,0.0,0.0,0.0,-3.0703,-3.1443,0.0,-3.2006,0.0,-3.3557,-3.4342,-3.4528,-3.4591,-3.4625,-3.5396,-3.5334,-3.4651,-3.541,-3.5351,-3.4706,-3.4706,-3.4765,-3.5097,-3.7421,-3.7923,-3.7497,-3.9175,-3.9663,-3.9488,0.0,0.0,0.0,0.0,0.0,-4.2965,-4.3717,-4.4092,-4.4694,-4.5788,-4.5988,-4.6099,-4.6251,-4.6298,-4.63,-4.63,-4.63,0.0,0.0,0.0,0.0,-4.1976,-3.9593,-3.7762,-3.6638,-3.5928,-3.5889,0.0,0.0,0.0,-3.908,0.0,0.0,0.0,0.0,0.0,-3.964,-3.8777,0.0,-3.7474,-3.7121,-3.7412,-3.7977,-3.7256,-3.6996,-3.6908,-3.6185,-3.5909,-3.5904,-3.5894,-3.5908,-3.5908,-3.5908,-3.5908,-3.5908,-3.5908,-3.5908,-3.5892,-3.5914,-3.5833,-3.5764,-3.588,-3.5869,-3.5858,-3.5966,-3.5899,-3.5817,-3.5817,-3.5609,-3.5276,-3.4769,0.0,0.0,0.0,0.0,0.0,0.0,0.0,0.0,0.0,0.0,0.0,0.0,0.0,0.0,0.0,0.0,0.0,0.0,0.0,0.0,0.0,-3.0936,0.0,0.0,0.0,-3.2705,-3.3512,-3.4248,-3.4596,-3.4615,-3.4819,-3.4823,-3.4687,-3.4835,-3.4821,-3.4704,-3.4698,-3.5129,-3.5897,-3.7053,-3.7423,-3.7497,-3.9175,-3.8921,-3.7848,0.0,0.0,0.0,0.0,0.0,0.0,0.0,-4.6674,0.0,-4.615,-4.6173,-4.62,-4.6203,-4.5852,-4.5806,-4.6261,-4.546,-4.4777,-4.4348,-4.3509,-4.2259,-4.0503,-4.0065,0.0,-3.6007,-3.6321,-3.6894,-3.7628,0.0,0.0,-4.0585,0.0,0.0,0.0,0.0,-4.1258,0.0,0.0,0.0,-3.8514,-3.8064,-3.8127,-3.8458,-3.8029,-3.7596,-3.7155,-3.6728,-3.6275,-3.5899,-3.5892,-3.5908,-3.5908,-3.5908,-3.5908,-3.5883,-3.5827,-3.5797,-3.579,-3.5741,-3.5691,-3.5664,-3.5733,-3.5753,-3.5768,-3.5787,-3.5768,-3.5736,-3.5704,-3.5645,-3.5338,-3.4497,-3.3038,0.0,0.0,0.0,0.0,0.0,0.0,0.0,0.0,0.0,0.0,0.0,0.0,0.0,0.0,0.0,0.0,0.0,0.0,0.0,0.0,0.0,0.0,0.0,0.0,0.0,-3.3975,-3.4438,-3.4642,-3.4663,-3.5117,-3.5097,-3.4737,-3.517,-3.5119,-3.4706,-3.4702,-3.4685,-3.4866,-3.7077,-3.739,-3.682,-3.8548,-3.8373,-3.7414,0.0,-4.2967,0.0,0.0,-4.5909,0.0,-4.8996,-4.8299,-4.7299,-4.6746,-4.6352,-4.6111,-4.6128,-4.5596,-4.5523,-4.6216,-4.485,-4.3874,-4.3718,-4.2879,-4.1337,-3.8956,-4.0294,-3.9332,-3.5589,-3.6805,-3.7725,0.0,0.0,0.0,0.0,0.0,0.0,0.0,0.0,0.0,0.0,0.0,-3.9549,-3.916,-3.8887,-3.8783,-3.8783,-3.8783,-3.8349,-3.7698,-3.7327,-3.6754,-3.6142,-3.5967,-3.5908,-3.5908,-3.5908,-3.588,-3.584,-3.5737,-3.5685,-3.5678,-3.5616,-3.5588,-3.556,-3.559,-3.5625,-3.5625,-3.5611,-3.5625,-3.562,-3.5579,-3.5416,-3.5015,-3.4145,-3.3089,0.0,0.0,0.0,0.0,0.0,0.0,0.0,0.0,0.0,0.0,0.0,0.0,0.0,0.0,0.0,0.0,0.0,0.0,0.0,0.0,0.0,-3.2245,-3.2551,0.0,-3.3613,-3.4598,-3.4668,-3.4705,-3.4724,-3.5545,-3.548,-3.475,-3.5627,-3.5502,-3.4653,-3.4285,-3.3955,-3.3938,-3.6639,-3.7008,-3.6185,-3.7744,-3.7765,-3.7118,0.0,0.0,0.0,0.0,0.0,0.0,0.0,-4.7488,-4.7742,-4.8454,-4.7171,-4.6183,-4.6181,-4.6128,-4.6111,-4.6192,-4.5333,-4.4475,-4.3751,-4.2876,-4.1588,-3.9772,-4.0599,-4.017,-3.8192,-3.8295,-3.838,0.0,0.0,0.0,0.0,0.0,0.0,0.0,0.0,0.0,0.0,-3.9435,-3.8822,-3.7578,-3.9071,-3.9672,-3.9672,-3.9672,-3.9633,-3.9357,-3.7762,-3.7155,-3.696,-3.6162,-3.5908,-3.5908,-3.5908,-3.5827,-3.5729,-3.5698,-3.566,-3.5604,-3.5593,-3.5513,-3.5451,-3.5566,-3.5512,-3.5462,-3.5565,-3.551,-3.5432,-3.5432,-3.4783,-3.3968,-3.3107,-3.3554,-3.3587,0.0,0.0,0.0,0.0,0.0,0.0,0.0,0.0,0.0,0.0,0.0,0.0,0.0,0.0,0.0,0.0,0.0,0.0,-3.197,0.0,-3.2824,-3.4336,-3.2935,-3.3027,-3.4607,-3.4665,-3.4708,-3.4727,-3.5593,-3.5513,-3.4759,-3.5617,-3.5468,-3.4491,-3.2961,-3.3221,-3.4608,-3.493,-3.5445,-3.6116,-3.7076,-3.6866,-3.6127,0.0,0.0,0.0,0.0,0.0,0.0,0.0,-4.7774,-4.7622,-4.796,-4.6969,-4.6196,-4.6192,-4.5724,-4.563,-4.6147,-4.4473,-4.3495,-4.369,-4.2383,-4.1076,-3.9848,-4.0635,-4.0279,-3.8549,-3.9001,-3.9221,0.0,0.0,0.0,0.0,0.0,0.0,0.0,0.0,-3.9872,-3.9926,-3.9266,-3.8897,-3.8817,-3.9513,-4.0117,-4.0467,-3.9415,-3.9337,-3.9649,-3.8422,-3.7642,-3.7155,-3.6805,-3.6337,-3.5908,-3.5908,-3.5804,-3.5685,-3.565,-3.5557,-3.5464,-3.5371,-3.5319,-3.5289,-3.5348,-3.5348,-3.534,-3.5357,-3.5355,-3.5326,-3.5285,-3.4618,-3.3925,-3.3582,-3.3445,-3.3359,0.0,0.0,0.0,0.0,0.0,0.0,0.0,0.0,0.0,0.0,0.0,0.0,0.0,0.0,0.0,0.0,0.0,0.0,-3.1301,0.0,-3.2423,-3.3085,-3.2952,-3.3477,-3.4662,-3.4688,-3.5225,-3.6218,-3.6553,-3.6822,-3.6967,-3.6804,-3.5919,-3.4586,-3.4433,-3.4474,-3.473,-3.5797,-3.6408,-3.6764,-3.7168,-3.6744,-3.6006,-4.5703,0.0,-4.6408,0.0,-4.7291,-4.7529,-4.8292,-4.7676,-4.7111,-4.7111,-4.6589,-4.6203,-4.6196,-4.5647,-4.5537,-4.6153,-4.4086,-4.3014,-4.3638,-4.2058,-4.0596,-3.9465,-4.051,0.0,-3.8533,-3.934,-3.9627,-3.9288,-4.0267,0.0,0.0,0.0,0.0,0.0,-3.9535,-3.9408,-3.9839,-3.9169,-3.8948,-3.9084,-3.9591,-4.0019,-4.0195,-3.8967,-3.9045,-3.9649,-3.8519,-3.7864,-3.7439,-3.6933,-3.6336,-3.5813,-3.5837,-3.5749,-3.566,-3.5571,-3.5445,-3.5326,-3.5223,-3.5209,-3.5209,-3.5209,-3.5245,-3.5261,-3.5209,-3.5253,-3.5261,-3.5209,-3.456,-3.3918,-3.3662,-3.336,-3.3113,-3.3006,0.0,0.0,0.0,0.0,0.0,0.0,0.0,-2.993,-2.9866,0.0,0.0,0.0,0.0,0.0,0.0,0.0,0.0,0.0,0.0,0.0,0.0,-3.3323,-3.4064,-3.4671,-3.4924,-3.5819,-3.7201,-3.7474,-3.8056,-3.8811,-3.7687,-3.6493,-3.5382,-3.5752,-3.5694,-3.5463,-3.6448,-3.6962,-3.7184,-3.6987,-3.6528,-3.6004,-4.5682,-4.6542,-4.7329,-4.747,-4.7501,-4.7501,-4.7501,-4.6784,-4.6219,-4.6219,-4.6219,-4.6199,-4.6199,-4.6199,-4.6199,-4.6199,-4.4598,-4.3582,-4.3601,-4.2023,-4.0331,0.0,0.0,-4.0273,-3.8539,-3.9357,-3.9376,-3.8516,0.0,0.0,-3.7214,0.0,-4.0373,-3.9652,-4.0483,-3.9529,-3.737,-3.9065,-3.8792,-3.7389,-3.9104,-3.9298,-3.8539,-3.8519,-3.9045,-3.9571,-3.7837,-3.7679,-3.8026,-3.6304,-3.5679,-3.5609,-3.5672,-3.5655,-3.5585,-3.5445,-3.5311,-3.5209,-3.5209,-3.5209,-3.5209,-3.5209,-3.5209,-3.5209,-3.5209,-3.5209,-3.5209,-3.5209,-3.456,-3.3738,-3.2871,-3.3414,-3.3199,-3.0745,0.0,0.0,0.0,0.0,0.0,0.0,-2.9054,-2.8721,-3.0513,0.0,0.0,0.0,0.0,0.0,0.0,0.0,0.0,-3.2103,-3.377,0.0,-3.3388,-3.4177,-3.4586,-3.4606,-3.5463,-3.6356,-3.7233,-3.809,-3.8956,-3.9691,-3.7943,-3.7194,-3.7097,-3.6259,-3.6395,-3.7097,-3.624,-3.6431,-3.7095,-3.6315,-3.6017,-3.5992,-4.5896,-4.6256,-4.6567,-4.6605,-4.6608,-4.6608,-4.6608,-4.6375,-4.6199,-4.6199,-4.6199,-4.6199,-4.6199,-4.6199,-4.6199,0.0,-4.5144,-4.4228,0.0,-4.2549,-4.1438,-4.0312,-4.0234,-4.0234,-4.0273,-3.9961,-3.9669,-3.9396,0.0,0.0,0.0,-3.8734,-3.9013,-3.8841,-3.853,-3.8598,-3.9006,-3.9552,-3.9474,-3.8967,-3.8928,-3.9454,-4.0078,-3.8285,-3.8519,-3.9649,-3.85,-3.7796,-3.742,-3.7465,-3.6644,-3.5698,-3.6226,-3.5952,-3.5457,-3.5412,-3.5304,-3.5209,-3.5209,-3.5209,-3.5209,-3.5209,-3.5209,-3.5209,-3.5209,-3.5209,-3.5209,-3.5209,-3.456,-3.3918,-3.3643,-3.3337,-3.2867,-3.2051,-3.2442,0.0,0.0,0.0,0.0,0.0,0.0,-2.995,0.0,-2.9655,0.0,0.0,0.0,0.0,0.0,0.0,0.0,0.0,-3.3204,0.0,-3.4213,-3.5059,-3.548,-3.548,-3.5772,-3.6668,-3.8129,-3.8987,-3.9867,-4.061,-3.9477,-3.8636,-3.8052,-3.7798,-3.7487,-3.7175,-3.6883,-3.6952,-3.7103,-3.6246,-3.5964,-3.5995,-4.5885,-4.6027,-4.6142,-4.6192,-4.6199,-4.6199,-4.6199,-4.6199,-4.6199,-4.6199,-4.6199,-4.6199,-4.6199,-4.6199,0.0,-4.6199,-4.54,-4.452,-4.3659,-4.3094,-4.1984,-4.0195,-4.0523,-4.0542,-4.0136,0.0,0.0,-3.9805,-3.9887,-3.9738,-3.933,-3.9019,-3.8917,-3.8987,-3.8753,-3.8909,-3.9357,-4.0019,-4.0097,-3.9747,-3.9201,-3.9649,-4.0386,-3.8371,-3.8286,-3.9165,-3.8617,-3.775,-3.6987,-3.7579,-3.6734,-3.5521,-3.5989,-3.5998,-3.5748,-3.5422,-3.5278,-3.5267,-3.5602,-3.545,-3.5286,-3.5602,-3.543,-3.5209,-3.5209,-3.5209,-3.5209,-3.5209,-3.4808,-3.435,-3.4071,-3.3796,-3.3329,-3.2374,-3.2359,-3.2172,-3.122,0.0,0.0,0.0,0.0,0.0,0.0,-3.0122,0.0,0.0,0.0,0.0,0.0,0.0,0.0,-3.1603,-3.3073,0.0,-3.3181,-3.4993,-3.5577,-3.4976,-3.5928,-3.7136,-3.8539,-3.9396,-4.0097,-4.0601,-4.039,-3.961,-3.8558,-3.9201,-3.8967,-3.8149,-3.7818,-3.769,-3.7544,-3.6338,-3.5936,-3.6005,-4.566,-4.5853,0.0,0.0,-4.6196,0.0,-4.6199,-4.6199,-4.6199,-4.6199,-4.6199,-4.6199,-4.6199,-4.6199,-4.6199,-4.6199,0.0,0.0,0.0,-4.3698,-4.2218,-3.8909,-4.0971,-4.1107,-3.8733,-4.0214,-4.0601,-3.9805,-3.8987,-3.9396,-4.0893,-4.0097,-3.9747,-3.9844,-4.064,-4.0117,-3.8694,-4.0312,-4.0545,-3.9783,-3.9721,-3.9776,-3.977,-3.8754,-3.8335,-3.8285,-3.8349,-3.7641,-3.6748,-3.6978,-3.6265,-3.5305,-3.5362,-3.5889,-3.6328,-3.545,-3.5286,-3.5534,-3.6214,-3.5851,-3.5469,-3.6214,-3.5793,-3.5209,-3.5209,-3.5209,-3.5209,-3.5209,-3.5209,-3.498,-3.4216,-3.4598,-3.4246,-3.1878,-3.2745,-3.2898,-3.0529,0.0,0.0,0.0,0.0,0.0,0.0,-3.0603,-3.0653,0.0,0.0,0.0,0.0,0.0,-3.2655,-3.1035,-3.322,-3.3375,-3.1171,-3.4252,-3.509,-3.369,-3.6064,-3.7662,-3.8539,-3.9337,-3.9747,-3.9844,-4.0659,-4.0117,-3.8792,-4.037,-4.0506,-3.963,-3.8753,-3.8372,-3.8129,-3.6492,-3.5934,-3.5984,0.0,0.0,-4.6007,-4.6032,-4.6138,-4.6199,-4.6199,-4.6199,-4.6199,-4.6199,-4.6199,-4.6199,-4.6199,-4.6199,-4.6199,-4.6199,-4.6004,-4.5517,-4.4656,-4.4598,-4.3643,-4.1497,-4.138,-4.1107,-4.0506,-4.0234,-4.0019,-3.9805,-3.9591,-3.9357,-3.9104,-3.8909,-3.9162,-3.9805,-4.0019,-3.9883,-3.9513,-3.9922,-4.0,-3.9721,-3.8961,-3.9442,-4.0522,-3.9522,-3.8742,-3.8219,-3.8891,-3.808,-3.6899,-3.8217,-3.756,-3.629,-3.691,-3.6833,-3.6328,-3.545,-3.6107,-3.6871,-3.5802,-3.5832,-3.608,-3.5621,-3.5354,-3.5209,-3.5209,-3.5209,-3.5209,-3.5209,-3.5209,-3.5152,-3.4961,-3.4036,-3.31,-3.2489,-3.1626,-3.081,-3.0211,-3.0292,0.0,0.0,-3.1126,-3.1197,-3.1308,-3.1336,-3.1142,0.0,0.0,0.0,0.0,-3.243,-3.3203,-3.2791,-3.2715,-3.3339,-3.4681,-3.4837,-3.5382,-3.6317,-3.6902,-3.7662,-3.8519,-3.8714,-3.9162,-3.9805,-4.0019,-4.0253,-4.0467,-4.0214,-3.9591,-3.8714,-3.7857,-3.71,-3.6479,-3.605,-3.5916,-3.5919,-4.55,-4.5646,-4.5783,-4.5847,-4.5998,-4.6089,-4.5983,-4.6056,-4.6089,-4.5983,-4.6056,-4.6102,-4.6102,-4.6158,-4.6199,-4.6199,-4.6199,-4.5829,-4.4952,-4.5264,-4.4364,-4.1867,-4.2062,-4.1692,-4.0526,-4.0429,-4.039,-4.039,-4.039,-4.0156,-3.9688,-3.9688,-3.9727,-3.9825,-4.0214,-4.0175,-3.9825,-4.0234,-4.0351,-4.0256,-3.9701,-4.0024,-4.0743,-4.0127,-3.936,-3.8723,-3.9591,-3.8729,-3.7306,-3.8293,-3.792,-3.7063,-3.7139,-3.7387,-3.7474,-3.6604,-3.6986,-3.7502,-3.6585,-3.6424,-3.629,-3.5411,-3.5209,-3.5209,-3.5209,-3.5209,-3.5209,-3.5209,-3.5209,-3.5209,-3.5209,-3.4143,-3.3115,-3.2714,-3.216,-3.1394,-3.0251,-3.1074,0.0,-3.1432,-3.1718,-3.1985,-3.2081,-3.1789,-3.1468,-3.1139,-3.1608,0.0,-3.1365,-3.2649,-3.3222,-3.2813,-3.3086,-3.3729,-3.4742,-3.4645,-3.5285,-3.661,-3.7019,-3.7662,-3.85,-3.85,-3.8753,-3.924,-3.963,-3.9844,-3.9902,-3.9825,-3.9513,-3.8967,-3.7701,-3.6902,-3.6454,-3.6045,-3.5908,-3.5908,-4.5456,-4.5491,-4.5541,-4.5645,-4.5835,-4.5902,-4.5724,-4.5847,-4.5896,-4.5724,-4.5847,-4.5961,-4.5997,-4.6098,-4.6185,-4.6196,-4.6199,-4.5887,-4.5147,-4.579,-4.4793,-4.1614,-4.2841,-4.2471,-4.0058,-4.0718,-4.1107,-4.1107,-4.1107,-4.1107,-4.1107,-4.1078,-4.0666,-4.0004,-4.071,-4.0629,-3.9986,-4.059,-4.0843,-4.0864,-4.0694,-4.0649,-4.0649,-4.0519,-3.9938,-3.9277,-4.0169,-3.9361,-3.7929,-3.8182,-3.8095,-3.7769,-3.7092,-3.7837,-3.8858,-3.8113,-3.798,-3.8037,-3.7769,-3.712,-3.629,-3.5411,-3.5209,-3.5209,-3.5209,-3.5209,-3.5209,-3.5209,-3.5209,-3.5209,-3.5209,-3.4394,-3.3568,-3.3056,-3.3233,-3.2762,-3.0909,0.0,-3.3135,-3.1912,-3.2362,-3.2855,-3.3054,-3.2394,-3.198,-3.205,-3.2055,-3.213,-3.2252,-3.31,-3.3242,-3.2501,-3.3748,-3.4157,-3.3592,-3.4391,-3.5304,-3.6298,-3.7038,-3.7857,-3.8694,-3.8558,-3.85,-3.8539,-3.9143,-3.9065,-3.8558,-3.9162,-3.9415,-3.926,-3.7623,-3.6999,-3.6902,-3.6162,-3.5908,-3.5908,-4.5329,-4.5419,-4.5507,-4.5533,-4.5657,-4.5731,-4.5691,-4.5724,-4.5731,-4.571,-4.5724,-4.5803,-4.5991,-4.6017,-4.608,-4.6192,-4.6199,-4.6141,-4.6004,-4.6121,-4.5319,-4.3309,-4.3465,-4.2744,-4.0932,-4.1029,-4.1107,-4.1107,-4.1107,-4.1107,-4.1107,-4.0984,-4.0852,-4.0731,-4.074,-4.0696,-4.0521,-3.9915,-4.0084,-4.066,-3.9816,-3.9887,-4.0512,-4.0389,-3.9802,-3.9151,-4.0031,-3.9669,-3.8916,-3.9669,-3.9411,-3.8782,-3.8648,-3.8801,-3.8973,-3.8839,-3.9317,-3.9584,-3.8094,-3.712,-3.629,-3.5411,-3.5209,-3.5209,-3.5209,-3.5209,-3.5209,-3.5209,-3.5209,-3.5209,-3.5209,-3.3941,-3.329,-3.4511,-3.301,-3.2026,-3.3012,0.0,-3.2819,-3.3361,-3.354,-3.3936,-3.4735,-3.4087,-3.3664,-3.3731,-3.3161,-3.2889,-3.3025,-3.3913,-3.4352,-3.4216,-3.3807,-3.3846,-3.4411,-3.5265,-3.6512,-3.811,-3.8227,-3.8753,-3.9571,-3.8831,-3.85,-3.8461,-3.7857,-3.7935,-3.8441,-3.7857,-3.7603,-3.7506,-3.6493,-3.6103,-3.6084,-3.5947,-3.5908,-3.5908,-4.5307,-4.5341,-4.539,-4.539,-4.5498,-4.5563,-4.5509,-4.5558,-4.5563,-4.5481,-4.5173,-4.5144,-4.5662,-4.5415,-4.5434,-4.6046,-4.6089,-4.5916,-4.5533,-4.5946,-4.5416,-4.3679,-4.3601,-4.2822,-4.1146,-4.103,-4.103,-4.1107,-4.0967,-4.0921,-4.0988,-4.0854,-4.0782,-4.0801,-4.0724,-4.0694,-4.0674,-4.0268,-4.0282,-4.0561,-4.0096,-4.0106,-4.0398,-4.0319,-4.0053,-3.9747,-4.0148,-4.0034,-3.9699,-3.9623,-3.9632,-3.9623,-3.9145,-3.9317,-3.969,-3.969,-3.9652,-3.9431,-3.8629,-3.7789,-3.6948,-3.6099,-3.5889,-3.5774,-3.5305,-3.5209,-3.5209,-3.5209,-3.5209,-3.5209,-3.5209,-3.4173,-3.3748,-3.4965,-3.4113,0.0,0.0,-3.414,-3.4452,-3.4494,-3.4503,-3.4861,-3.5804,-3.4751,-3.4029,-3.4082,-3.3853,-3.3737,-3.379,-3.468,-3.5173,-3.515,-3.488,-3.4915,-3.5304,-3.6162,-3.6999,-3.7818,-3.8753,-3.9415,-3.9786,-3.9376,-3.9201,-3.9143,-3.8285,-3.8129,-3.8422,-3.7564,-3.7194,-3.7116,-3.624,-3.5908,-3.5908,-3.5908,-3.5908,-3.5908,-4.5307,-4.5307,-4.5307,-4.5307,-4.5381,-4.541,-4.5328,-4.5381,-4.541,-4.5309,-4.4854,-4.4792,-4.5432,-4.5036,-4.5059,-4.585,-4.5764,-4.5502,-4.5173,-4.5375,-4.4935,-4.3659,-4.3406,-4.2581,-4.1084,-4.0943,-4.0935,-4.1019,-4.0807,-4.0748,-4.0849,-4.0712,-4.0649,-4.0649,-4.0615,-4.0614,-4.0614,-4.0614,-4.0549,-4.0452,-4.0452,-4.0388,-4.0301,-4.0301,-4.0301,-4.0301,-4.0301,-4.0301,-4.0205,-3.9527,-3.9747,-4.0186,-3.9508,-3.9747,-4.0301,-4.0301,-3.9823,-3.926,-3.9069,-3.8514,-3.7808,-3.6978,-3.6634,-3.6328,-3.5641,-3.5488,-3.5488,-3.5488,-3.5649,-3.5783,-3.5783,-3.4917,-3.4549,-3.5581,0.0,0.0,0.0,-3.5552,-3.6018,-3.5482,-3.5243,-3.5479,-3.6415,-3.5152,-3.4378,-3.4647,-3.4583,-3.4569,-3.4552,-3.5263,-3.565,-3.5582,-3.5757,-3.5947,-3.6141,-3.6857,-3.738,-3.7774,-3.9153,-3.9893,-4.0052,-3.9874,-3.9805,-3.9747,-3.8889,-3.8383,-3.8149,-3.7487,-3.7077,-3.6824,-3.6162,-3.6025,-3.6201,-3.6201,-3.6337,-3.6493,-4.5307,-4.5307,-4.5307,-4.5307,-4.5317,-4.5298,-4.5307,-4.5317,-4.5298,-4.5307,-4.526,-4.5303,-4.5472,-4.5468,-4.5505,-4.5691,-4.5047,-4.4976,-4.5871,-4.4352,-4.3474,-4.3594,-4.2822,-4.1933,-4.0941,-4.0912,-4.0844,-4.0724,-4.0706,-4.07,-4.0706,-4.0586,-4.0512,-4.0504,-4.037,-4.0328,-4.0328,-4.0328,-4.0319,-4.031,-4.031,-4.032,-4.0301,-4.0301,-4.0301,-4.0301,-4.0301,-4.0301,-4.0282,-4.0225,-4.0244,-4.0282,-4.0225,-4.0244,-4.0301,-4.0301,-4.0244,-4.0034,-3.9221,-3.8954,-3.8706,-3.7827,-3.7063,-3.6481,-3.6424,-3.6405,-3.6405,-3.6405,-3.7005,-3.7521,-3.7521,-3.6203,-3.5615,-3.7166,0.0,0.0,-3.7024,-3.6692,-3.6301,-3.6307,-3.5649,-3.5541,-3.6405,-3.566,-3.5458,-3.6269,-3.5705,-3.5315,-3.5315,-3.5498,-3.5582,-3.551,-3.5645,-3.6098,-3.6903,-3.7109,-3.7958,-3.944,-3.9675,-4.0158,-4.0805,-4.0103,-3.9805,-3.9747,-3.8889,-3.8032,-3.7292,-3.7233,-3.6727,-3.5986,-3.5928,-3.6395,-3.7097,-3.7097,-3.7623,-3.8305,-4.5307,-4.5307,-4.5307,-4.5307,-4.5307,-4.5307,-4.5307,-4.5307,-4.5307,-4.5307,-4.4838,-4.4716,-4.5304,-4.4882,-4.4642,-4.4831,-4.4558,-4.4105,-4.3503,-4.2789,-4.2433,-4.2542,-4.2227,-4.1657,-4.079,-4.0694,-4.0662,-4.0694,-4.0527,-4.0481,-4.0559,-4.0447,-4.0381,-4.0381,-4.0319,-4.0301,-4.0301,-4.0301,-4.0301,-4.0301,-4.0301,-4.0301,-4.0301,-4.0301,-4.0301,-4.0301,-4.0301,-4.0301,-4.0225,-3.968,-3.9843,-4.0205,-3.9652,-3.9862,-4.0301,-4.0301,-4.0301,-4.0225,-3.99,-3.9804,-3.9603,-3.8725,-3.8285,-3.7922,-3.7368,-3.7234,-3.7234,-3.7234,-3.7483,-3.7693,-3.7693,-3.7177,-3.713,-3.8269,0.0,-3.7517,-3.7614,-3.7795,-3.7537,-3.6526,-3.6126,-3.6094,-3.6462,-3.5698,-3.5335,-3.566,-3.6017,-3.5926,-3.5312,-3.5323,-3.5323,-3.5247,-3.5379,-3.5917,-3.6859,-3.7463,-3.8341,-3.9481,-4.0154,-4.0632,-4.0893,-4.0707,-4.0601,-4.0565,-3.9688,-3.9078,-3.8642,-3.8117,-3.7633,-3.7264,-3.7264,-3.7478,-3.7759,-3.7844,-3.8041,-3.8268,-4.5307,-4.5307,-4.5307,-4.5307,-4.5307,-4.5307,-4.5307,-4.5307,-4.5307,-4.5307,-4.4781,-4.4647,-4.522,-4.4762,-4.4354,-4.4219,-4.3979,-4.3385,-4.2309,-4.2246,-4.2027,-4.1532,-4.2022,-4.1789,-4.0655,-4.0549,-4.0527,-4.0579,-4.0398,-4.0355,-4.0447,-4.0327,-4.0301,-4.0301,-4.0301,-4.0301,-4.0301,-4.0301,-4.0301,-4.0301,-4.0301,-4.0301,-4.0301,-4.0301,-4.0301,-4.0301,-4.0301,-4.0301,-4.0205,-3.9623,-3.9804,-4.0205,-3.9603,-3.9823,-4.0339,-4.0597,-4.0492,-4.0416,-4.0931,-4.0702,-4.0148,-3.9565,-3.9202,-3.8839,-3.8247,-3.8113,-3.8113,-3.8113,-3.8323,-3.8591,-3.8839,-3.8686,-3.8782,-3.9642,-3.9537,-3.9156,-3.8584,-3.8766,-3.8509,-3.7354,-3.6743,-3.6447,-3.65,-3.5698,-3.5297,-3.5583,-3.5983,-3.5941,-3.5231,-3.5181,-3.5138,-3.5075,-3.5414,-3.6078,-3.6998,-3.772,-3.8614,-3.9714,-4.0497,-4.0864,-4.0844,-4.098,-4.1068,-4.1068,-4.0377,-3.9909,-3.9543,-3.8903,-3.8435,-3.8104,-3.8104,-3.8278,-3.8522,-3.8606,-3.8764,-3.894,-4.5307,-4.5307,-4.5307,-4.5307,-4.5307,-4.5307,-4.5307,-4.5307,-4.5307,-4.5307,-4.5307,-4.5307,-4.5288,-4.5307,-4.4934,-4.4064,-4.3271,-4.2843,-4.297,-4.2978,-4.2298,-4.0765,-4.2293,-4.2348,-4.0535,-4.0496,-4.0427,-4.0301,-4.0301,-4.0301,-4.0301,-4.0301,-4.0301,-4.0301,-4.0301,-4.0301,-4.0301,-4.0301,-4.0301,-4.0301,-4.0301,-4.0301,-4.0301,-4.0301,-4.0301,-4.0301,-4.0301,-4.0301,-4.0301,-4.0282,-4.0282,-4.0301,-4.0301,-4.0301,-4.0473,-4.1266,-4.0941,-4.0683,-4.2354,-4.159,-4.032,-4.0301,-3.9661,-3.903,-3.9011,-3.903,-3.903,-3.903,-3.9709,-4.0549,-4.1361,-4.0864,-4.0578,-4.1361,-4.0845,-4.0301,-4.0282,-3.9565,-3.9011,-3.8992,-3.7512,-3.6519,-3.65,-3.5717,-3.5564,-3.6424,-3.5698,-3.5204,-3.5219,-3.5157,-3.5094,-3.502,-3.5864,-3.6701,-3.7508,-3.7832,-3.8809,-4.0406,-4.068,-4.0768,-4.07,-4.0839,-4.0975,-4.1081,-4.0823,-4.0281,-3.9592,-3.9458,-3.8896,-3.8117,-3.8117,-3.8645,-3.9405,-3.9405,-3.9953,-4.0712,-4.5307,-4.5307,-4.5307,-4.5307,-4.5307,-4.5307,-4.5307,-4.5307,-4.5307,-4.5307,-4.5307,-4.5067,-4.4456,-4.4934,-4.4475,-4.2412,-4.2584,-4.2326,-4.1186,-4.1627,-4.1482,-4.0452,-4.1438,-4.1489,-4.0373,-4.0354,-4.0346,-4.0301,-4.0301,-4.0301,-4.0301,-4.0301,-4.0301,-4.0301,-4.0301,-4.0301,-4.0301,-4.0301,-4.0301,-4.0301,-4.0301,-4.0301,-4.0301,-4.0301,-4.0301,-4.0301,-4.0301,-4.0301,-4.0205,-3.9603,-3.9785,-4.0396,-4.096,-4.1132,-4.1304,-4.2163,-4.224,-4.2163,-4.266,-4.2431,-4.1915,-4.1285,-4.0941,-4.0616,-4.0043,-4.0826,-4.1495,-4.0883,-4.1457,-4.2115,-4.2305,-4.2172,-4.1924,-4.1503,-4.1771,-4.1437,-3.9642,-4.0177,-4.0081,-3.8304,-3.7647,-3.7123,-3.6557,-3.6226,-3.616,-3.6481,-3.6226,-3.6278,-3.6843,-3.6815,-3.6749,-3.67,-3.7526,-3.8379,-3.9193,-3.8775,-3.9176,-4.0406,-4.0577,-4.0661,-4.07,-4.0839,-4.0864,-4.0804,-4.073,-4.0527,-4.0242,-4.0193,-3.9969,-3.9638,-3.9638,-3.9791,-4.0046,-4.0134,-4.0277,-4.0444,-4.5275,-4.5286,-4.5297,-4.5275,-4.5286,-4.5307,-4.5307,-4.5307,-4.5307,-4.5307,-4.5286,-4.5065,-4.456,-4.4951,-4.4378,-4.2202,-4.1896,-4.1514,-4.0826,-4.0922,-4.0807,-4.032,-4.0769,-4.0807,-4.0301,-4.0301,-4.0301,-4.0301,-4.0301,-4.0301,-4.0301,-4.0301,-4.0301,-4.0301,-4.0301,-4.0301,-4.0301,-4.0301,-4.0301,-4.0301,-4.0301,-4.0301,-4.0301,-4.0301,-4.0301,-4.0301,-4.0301,-4.0301,-4.0263,-4.0062,-4.0578,-4.138,-4.1858,-4.2011,-4.2183,-4.3042,-4.3061,-4.2947,-4.3615,-4.3291,-4.2756,-4.2545,-4.2259,-4.1896,-4.1399,-4.2048,-4.2611,-4.2077,-4.2381,-4.2808,-4.3082,-4.316,-4.3113,-4.2891,-4.3046,-4.2562,-4.0692,-4.0988,-4.0721,-3.887,-3.8661,-3.847,-3.802,-3.7612,-3.7412,-3.7439,-3.8032,-3.8423,-3.8536,-3.8486,-3.8426,-3.8395,-3.9229,-3.9911,-4.0412,-4.0287,-4.0433,-4.0839,-4.0966,-4.0899,-4.0662,-4.0765,-4.079,-4.0687,-4.0593,-4.0519,-4.0489,-4.0436,-4.017,-3.9823,-4.0167,-4.0091,-3.9842,-4.0273,-4.0372,-4.0328,-4.5203,-4.5246,-4.5286,-4.5203,-4.5265,-4.5307,-4.5307,-4.5297,-4.5297,-4.5297,-4.5224,-4.5175,-4.5171,-4.5186,-4.4546,-4.2937,-4.139,-4.0807,-4.1457,-4.0807,-4.0377,-4.0301,-4.0301,-4.0301,-4.0301,-4.0358,-4.0416,-4.0416,-4.0492,-4.0511,-4.0511,-4.0511,-4.0511,-4.0511,-4.0435,-4.0416,-4.0396,-4.032,-4.0301,-4.0301,-4.0301,-4.0301,-4.0301,-4.0301,-4.0301,-4.0301,-4.0301,-4.0339,-4.053,-4.1342,-4.2144,-4.2813,-4.2889,-4.2908,-4.308,-4.3873,-4.3596,-4.3367,-4.4876,-4.4188,-4.3195,-4.393,-4.3577,-4.2985,-4.2832,-4.2858,-4.2893,-4.2817,-4.2813,-4.3055,-4.3759,-4.3904,-4.4132,-4.476,-4.4208,-4.3371,-4.2506,-4.1686,-4.0925,-4.0193,-4.004,-4.0022,-4.0081,-3.9366,-3.8937,-3.9014,-4.0432,-4.0942,-4.0165,-4.0111,-4.0127,-4.0127,-4.0961,-4.1427,-4.1427,-4.2155,-4.2202,-4.16,-4.1726,-4.14,-4.0689,-4.0681,-4.0623,-4.05,-4.0196,-4.0133,-4.0246,-4.0126,-3.9652,-3.9088,-3.9862,-3.9747,-3.9221,-4.0091,-4.0358,-4.0338,-4.5203,-4.5246,-4.5286,-4.5203,-4.5265,-4.5307,-4.5307,-4.5265,-4.5213,-4.5213,-4.5159,-4.487,-4.4195,-4.478,-4.4535,-4.2876,-4.2439,-4.2049,-4.1533,-4.1342,-4.096,-4.032,-4.0301,-4.0301,-4.0301,-4.0922,-4.1246,-4.1246,-4.1915,-4.2259,-4.2259,-4.2259,-4.2259,-4.224,-4.1533,-4.1246,-4.1189,-4.0578,-4.0301,-4.0301,-4.0301,-4.0301,-4.0301,-4.0301,-4.0301,-4.0301,-4.0301,-4.0711,-4.1361,-4.2221,-4.2641,-4.2908,-4.3529,-4.3739,-4.3911,-4.4762,-4.4895,-4.4838,-4.5211,-4.5029,-4.48,-4.4972,-4.4895,-4.4399,-4.31,-4.3765,-4.4467,-4.3789,-4.4127,-4.4597,-4.4722,-4.4783,-4.4425,-4.3259,-4.2949,-4.2343,-4.0859,-4.0487,-4.0317,-4.0195,-3.9537,-3.9118,-3.9185,-3.8956,-3.9128,-3.9852,-4.0164,-4.052,-4.0981,-4.1563,-4.1851,-4.1851,-4.2697,-4.317,-4.317,-4.3322,-4.3099,-4.2432,-4.2479,-4.2073,-4.1272,-4.0672,-3.9953,-3.9163,-3.8489,-3.8231,-3.8303,-3.8277,-3.8545,-3.903,-3.9221,-3.9584,-4.011,-4.0941,-4.0845,-4.0509,-4.517,-4.5181,-4.5181,-4.5125,-4.5181,-4.5235,-4.5203,-4.5203,-4.5181,-4.5159,-4.5084,-4.4878,-4.4475,-4.4817,-4.4782,-4.3961,-4.3191,-4.2745,-4.2698,-4.1934,-4.1304,-4.0883,-4.0492,-4.0301,-4.0301,-4.1094,-4.1495,-4.1495,-4.2374,-4.2794,-4.2794,-4.2794,-4.2794,-4.2775,-4.2316,-4.1896,-4.1457,-4.1055,-4.0654,-4.0301,-4.0301,-4.0301,-4.0339,-4.0731,-4.0864,-4.0941,-4.1342,-4.2011,-4.2756,-4.3233,-4.3654,-4.4074,-4.4494,-4.4628,-4.4704,-4.5163,-4.5307,-4.5307,-4.5307,-4.5307,-4.5307,-4.5307,-4.5307,-4.5078,-4.4188,-4.4624,-4.5058,-4.462,-4.479,-4.5038,-4.5022,-4.4991,-4.4713,-4.3798,-4.3658,-4.3263,-4.199,-4.1448,-4.107,-4.0722,-4.0245,-3.997,-4.004,-4.0383,-4.0802,-4.1267,-4.1624,-4.1998,-4.2409,-4.3163,-4.3417,-4.3038,-4.3834,-4.427,-4.427,-4.427,-4.4094,-4.3746,-4.3452,-4.2891,-4.2058,-4.1664,-4.116,-4.0573,-3.9736,-3.9194,-3.8861,-3.8451,-3.8088,-3.7894,-3.8686,-3.9012,-3.9261,-4.0864,-4.1436,-4.1609,-4.5103,-4.5103,-4.5091,-4.5003,-4.5103,-4.517,-4.5114,-4.5136,-4.5148,-4.5091,-4.5014,-4.4991,-4.5068,-4.5033,-4.5049,-4.5181,-4.3923,-4.3372,-4.3968,-4.2555,-4.1638,-4.1514,-4.0731,-4.0301,-4.0301,-4.1094,-4.1495,-4.1495,-4.2374,-4.2794,-4.2794,-4.2794,-4.2794,-4.2794,-4.2641,-4.2183,-4.1495,-4.1342,-4.0903,-4.0301,-4.0301,-4.0301,-4.0377,-4.1189,-4.1495,-4.1609,-4.2488,-4.3329,-4.4025,-4.4159,-4.4704,-4.5307,-4.5307,-4.5307,-4.5307,-4.5307,-4.5307,-4.5307,-4.5307,-4.5307,-4.5307,-4.5307,-4.5307,-4.5297,-4.5286,-4.5224,-4.5181,-4.5181,-4.508,-4.4979,-4.4979,-4.4931,-4.4857,-4.4724,-4.4687,-4.4402,-4.3587,-4.2867,-4.2166,-4.1495,-4.1419,-4.1453,-4.1518,-4.217,-4.2626,-4.2715,-4.3388,-4.3828,-4.3891,-4.4535,-4.4535,-4.3739,-4.4478,-4.4838,-4.4706,-4.4838,-4.4895,-4.4895,-4.4386,-4.3689,-4.2876,-4.2766,-4.2601,-4.23,-4.1445,-4.0639,-3.9909,-3.9185,-3.8108,-3.7009,-3.8286,-3.8507,-3.8385,-4.0577,-4.1899,-4.2745,-4.5045,-4.5068,-4.5091,-4.5003,-4.5049,-4.5114,-4.5103,-4.5068,-4.5014,-4.5003,-4.4962,-4.4907,-4.4938,-4.4967,-4.5049,-4.5181,-4.4938,-4.4549,-4.4034,-4.3087,-4.2228,-4.1533,-4.0731,-4.0301,-4.0301,-4.1094,-4.1495,-4.1495,-4.2374,-4.2794,-4.2794,-4.2794,-4.2794,-4.2775,-4.2011,-4.1609,-4.1437,-4.0769,-4.0396,-4.0301,-4.0301,-4.0301,-4.0377,-4.1189,-4.1495,-4.1609,-4.2488,-4.3329,-4.4121,-4.4876,-4.5201,-4.5307,-4.5307,-4.5307,-4.5307,-4.5307,-4.5307,-4.5307,-4.5307,-4.5307,-4.5307,-4.5307,-4.5307,-4.5286,-4.5243,-4.5159,-4.5114,-4.5114,-4.5022,-4.4907,-4.4907,-4.4914,-4.4668,-4.3985,-4.3853,-4.3568,-4.2697,-4.2458,-4.2367,-4.2329,-4.2321,-4.2365,-4.25,-4.2512,-4.2821,-4.3569,-4.3734,-4.4075,-4.4706,-4.4838,-4.4535,-4.3739,-4.4478,-4.4573,-4.3872,-4.4554,-4.4895,-4.4895,-4.4818,-4.4336,-4.354,-4.2792,-4.206,-4.1336,-4.0471,-3.9669,-3.8982,-3.887,-3.8699,-3.8461,-3.8041,-3.8652,-3.9907,-4.0935,-4.1867,-4.2747,-4.4927,-4.4979,-4.4967,-4.4943,-4.4991,-4.5026,-4.4991,-4.4991,-4.4998,-4.4943,-4.4907,-4.4895,-4.4895,-4.4919,-4.4618,-4.3778,-4.4098,-4.4246,-4.3965,-4.2702,-4.2045,-4.2221,-4.095,-4.0263,-4.0301,-4.0654,-4.0826,-4.0826,-4.2144,-4.3023,-4.3452,-4.3004,-4.3042,-4.3433,-4.2603,-4.1953,-4.1476,-4.1113,-4.0711,-4.0301,-4.0301,-4.0301,-4.0435,-4.1724,-4.2221,-4.2393,-4.368,-4.4387,-4.477,-4.5131,-4.5275,-4.5307,-4.5307,-4.5307,-4.5307,-4.5307,-4.5307,-4.5307,-4.5307,-4.5307,-4.5307,-4.5307,-4.5275,-4.5243,-4.5203,-4.5125,-4.5049,-4.5103,-4.4869,-4.4726,-4.4919,-4.4758,-4.4568,-4.4397,-4.4364,-4.4164,-4.3586,-4.3139,-4.2668,-4.2221,-4.193,-4.1976,-4.2487,-4.2063,-4.2325,-4.3631,-4.3741,-4.3888,-4.4213,-4.4668,-4.4308,-4.3019,-4.4232,-4.4516,-4.3701,-4.4497,-4.4895,-4.4895,-4.4895,-4.4706,-4.4364,-4.3966,-4.3606,-4.3227,-4.2393,-4.1317,-4.0157,-3.9665,-3.8935,-3.8137,-3.8271,-3.9603,-4.1491,-4.1789,-4.2746,-4.3806]},{"header":{"parameterUnit":"m.s-1","parameterCategory":1,"la1":30.6,"la2":28.766,"lo1":-90.7593,"lo2":-88.6598,"dy":0.0162,"dx":0.0183,"nx":116,"ny":114,"refTime":"2023-05-07T12:00:00:Z","depth":0,"parameterNumber":3,"parameterNumberName":"V-component_of_WINDS"},"data":[0.0,0.0,0.0,0.0,0.0,0.0,0.0,0.0,0.0,0.0,0.0,0.0,0.0,0.0,0.0,0.0,0.0,0.0,0.0,0.0,0.0,0.0,0.0,0.0,0.0,0.0,0.0,0.0,0.0,0.0,0.0,0.0,0.0,0.0,0.0,0.0,0.0,0.0,0.0,0.0,0.0,0.0,0.0,0.0,0.0,0.0,0.0,0.0,0.0,0.0,0.0,0.0,0.0,0.0,0.0,0.0,0.0,0.0,0.0,0.0,0.0,0.0,0.0,0.0,0.0,0.0,0.0,0.0,0.0,0.0,0.0,0.0,0.0,0.0,0.0,0.0,0.0,0.0,0.0,0.0,0.0,0.0,0.0,0.0,0.0,0.0,0.0,0.0,0.0,0.0,0.0,0.0,0.0,0.0,0.0,0.0,0.0,0.0,0.0,0.0,0.0,0.0,0.0,0.0,0.0,0.0,0.0,0.0,0.0,0.0,0.0,0.0,0.0,0.0,0.0,0.0,0.0,0.0,0.0,0.0,0.0,0.0,0.0,0.0,0.0,0.0,0.0,0.0,0.0,0.0,0.0,0.0,0.0,0.0,0.0,0.0,0.0,0.0,0.0,0.0,0.0,0.0,0.0,0.0,0.0,0.0,0.0,0.0,0.0,0.0,0.0,0.0,0.0,0.0,0.0,0.0,0.0,0.0,0.0,0.0,0.0,0.0,0.0,0.0,0.0,0.0,0.0,0.0,0.0,0.0,0.0,0.0,0.0,0.0,0.0,0.0,0.0,0.0,0.0,0.0,0.0,0.0,0.0,0.0,0.0,0.0,0.0,0.0,0.0,0.0,0.0,0.0,0.0,0.0,0.0,0.0,0.0,0.0,0.0,0.0,0.0,0.0,0.0,0.0,0.0,0.0,0.0,0.0,0.0,0.0,0.0,0.0,0.0,0.0,0.0,0.0,0.0,0.0,0.0,0.0,0.0,0.0,0.0,0.0,0.0,0.0,0.0,0.0,0.0,0.0,0.0,0.0,0.0,0.0,0.0,0.0,0.0,0.0,0.0,0.0,0.0,0.0,0.0,0.0,0.0,0.0,0.0,0.0,0.0,0.0,0.0,0.0,0.0,0.0,0.0,0.0,0.0,0.0,0.0,0.0,0.0,0.0,0.0,0.0,0.0,0.0,0.0,0.0,0.0,0.0,0.0,0.0,0.0,0.0,0.0,0.0,0.0,0.0,0.0,0.0,0.0,0.0,0.0,0.0,0.0,0.0,0.0,0.0,0.0,0.0,0.0,0.0,0.0,0.0,0.0,0.0,0.0,0.0,0.0,0.0,0.0,0.0,0.0,0.0,0.0,0.0,0.0,0.0,0.0,0.0,0.0,0.0,0.0,0.0,0.0,0.0,0.0,0.0,0.0,0.0,0.0,0.0,0.0,0.0,0.0,0.0,0.0,0.0,0.0,0.0,0.0,0.0,0.0,0.0,0.0,0.0,0.0,0.0,0.0,0.0,0.0,0.0,0.0,0.0,0.0,0.0,0.0,0.0,0.0,0.0,0.0,0.0,0.0,0.0,0.0,0.0,0.0,0.0,0.0,0.0,0.0,0.0,0.0,0.0,0.0,0.0,0.0,0.0,0.0,0.0,0.0,0.0,0.0,0.0,0.0,0.0,0.0,0.0,0.0,0.0,0.0,0.0,0.0,0.0,0.0,0.0,0.0,0.0,0.0,0.0,0.0,0.0,0.0,0.0,0.0,0.0,0.0,0.0,0.0,0.0,0.0,0.0,0.0,0.0,0.0,0.0,0.0,0.0,0.0,0.0,0.0,0.0,0.0,0.0,0.0,0.0,0.0,0.0,0.0,0.0,0.0,0.0,0.0,0.0,0.0,0.0,0.0,0.0,0.0,0.0,0.0,0.0,0.0,0.0,0.0,0.0,0.0,0.0,0.0,0.0,0.0,0.0,0.0,0.0,0.0,0.0,0.0,0.0,0.0,0.0,0.0,0.0,0.0,0.0,0.0,0.0,0.0,0.0,0.0,0.0,0.0,0.0,0.0,0.0,0.0,0.0,0.0,0.0,0.0,0.0,0.0,0.0,0.0,0.0,0.0,0.0,0.0,0.0,0.0,0.0,0.0,0.0,0.0,0.0,0.0,0.0,0.0,0.0,0.0,0.0,0.0,0.0,0.0,0.0,0.0,0.0,0.0,0.0,0.0,0.0,0.0,0.0,0.0,0.0,0.0,0.0,0.0,0.0,0.0,0.0,0.0,0.0,0.0,0.0,0.0,0.0,0.0,0.0,0.0,0.0,0.0,0.0,0.0,0.0,0.0,0.0,0.0,0.0,0.0,0.0,0.0,0.0,0.0,0.0,0.0,0.0,0.0,0.0,0.0,0.0,0.0,0.0,0.0,0.0,0.0,0.0,0.0,0.0,0.0,0.0,0.0,0.0,0.0,0.0,0.0,0.0,0.0,0.0,0.0,0.0,0.0,0.0,0.0,0.0,0.0,0.0,0.0,0.0,0.0,0.0,0.0,0.0,0.0,0.0,0.0,0.0,0.0,0.0,0.0,0.0,0.0,0.0,0.0,0.0,0.0,0.0,0.0,0.0,0.0,0.0,0.0,0.0,0.0,0.0,0.0,0.0,0.0,0.0,0.0,0.0,0.0,0.0,0.0,0.0,0.0,0.0,0.0,0.0,0.0,0.0,0.0,0.0,0.0,0.0,0.0,0.0,0.0,0.0,0.0,0.0,0.0,0.0,0.0,0.0,0.0,0.0,0.0,0.0,0.0,0.0,0.0,0.0,0.0,0.0,0.0,0.0,0.0,0.0,0.0,0.0,0.0,0.0,0.0,0.0,0.0,0.0,0.0,0.0,0.0,0.0,0.0,0.0,0.0,0.0,0.0,0.0,0.0,0.0,0.0,0.0,0.0,0.0,0.0,0.0,0.0,0.0,0.0,0.0,0.0,0.0,0.0,0.0,0.0,0.0,0.0,0.0,0.0,0.0,0.0,0.0,0.0,0.0,0.0,0.0,0.0,0.0,0.0,0.0,0.0,0.0,0.0,0.0,0.0,0.0,0.0,0.0,0.0,0.0,0.0,0.0,0.0,0.0,0.0,0.0,0.0,0.0,0.0,0.0,0.0,0.0,0.0,0.0,0.0,0.0,0.0,0.0,0.0,0.0,0.0,0.0,0.0,0.0,0.0,0.0,0.0,0.0,0.0,0.0,0.0,0.0,0.0,0.0,0.0,0.0,0.0,0.0,0.0,0.0,0.0,0.0,0.0,0.0,0.0,0.0,0.0,0.0,0.0,0.0,0.0,0.0,0.0,0.0,0.0,0.0,0.0,0.0,0.0,0.0,0.0,0.0,0.0,0.0,0.0,0.0,0.0,0.0,0.0,0.0,0.0,0.0,0.0,0.0,0.0,0.0,0.0,0.0,0.0,0.0,0.0,0.0,0.0,0.0,0.0,0.0,0.0,0.0,0.0,0.0,0.0,0.0,0.0,0.0,0.0,0.0,0.0,0.0,0.0,0.0,0.0,0.0,0.0,0.0,0.0,0.0,0.0,0.0,0.0,0.0,0.0,0.0,0.0,0.0,0.0,0.0,0.0,0.0,0.0,0.0,0.0,0.0,0.0,0.0,0.0,0.0,0.0,0.0,0.0,0.0,0.0,0.0,0.0,0.0,0.0,0.0,0.0,0.0,0.0,0.0,0.0,0.0,0.0,0.0,0.0,0.0,0.0,0.0,0.0,0.0,0.0,0.0,0.0,0.0,0.0,0.0,0.0,0.0,0.0,0.0,0.0,0.0,0.0,0.0,0.0,0.0,0.0,0.0,0.0,0.0,0.0,0.0,0.0,0.0,0.0,0.0,0.0,0.0,0.0,0.0,0.0,0.0,0.0,0.0,0.0,0.0,0.0,0.0,0.0,0.0,0.0,0.0,0.0,0.0,0.0,0.0,0.0,0.0,0.0,0.0,0.0,0.0,0.0,0.0,0.0,0.0,0.0,0.0,0.0,0.0,0.0,0.0,0.0,0.0,0.0,0.0,0.0,0.0,0.0,0.0,0.0,0.0,0.0,0.0,0.0,0.0,0.0,0.0,0.0,0.0,0.0,0.0,0.0,0.0,0.0,0.0,0.0,0.0,0.0,0.0,0.0,0.0,0.0,0.0,0.0,0.0,0.0,0.0,0.0,0.0,0.0,0.0,0.0,0.0,0.0,0.0,0.0,0.0,0.0,0.0,0.0,0.0,0.0,0.0,0.0,0.0,0.0,0.0,0.0,0.0,0.0,0.0,0.0,0.0,0.0,0.0,0.0,0.0,0.0,0.0,0.0,0.0,0.0,0.0,0.0,0.0,0.0,0.0,0.0,0.0,0.0,0.0,0.0,0.0,0.0,0.0,0.0,0.0,0.0,0.0,0.0,0.0,0.0,0.0,0.0,0.0,0.0,0.0,0.0,0.0,0.0,0.0,0.0,0.0,0.0,0.0,0.0,0.0,0.0,0.0,0.0,0.0,0.0,0.0,0.0,0.0,0.0,0.0,0.0,0.0,0.0,0.0,0.0,0.0,0.0,0.0,0.0,0.0,0.0,0.0,0.0,0.0,0.0,0.0,0.0,0.0,0.0,0.0,0.0,0.0,0.0,0.0,0.0,0.0,0.0,0.0,0.0,0.0,0.0,0.0,0.0,0.0,0.0,0.0,0.0,0.0,0.0,0.0,0.0,0.0,0.0,0.0,0.0,0.0,0.0,0.0,0.0,0.0,0.0,0.0,0.0,0.0,0.0,0.0,0.0,0.0,0.0,0.0,0.0,0.0,0.0,0.0,0.0,0.0,0.0,0.0,0.0,0.0,0.0,0.0,0.0,0.0,0.0,0.0,0.0,0.0,0.0,0.0,0.0,0.0,0.0,0.0,0.0,0.0,0.0,0.0,0.0,0.0,0.0,0.0,0.0,0.0,0.0,0.0,0.0,0.0,0.0,0.0,0.0,0.0,0.0,0.0,0.0,0.0,0.0,0.0,0.0,0.0,0.0,0.0,0.0,0.0,0.0,0.0,0.0,0.0,0.0,0.0,0.0,0.0,0.0,0.0,0.0,0.0,0.0,0.0,0.0,0.0,0.0,0.0,0.0,0.0,0.0,0.0,0.0,0.0,0.0,0.0,0.0,0.0,0.0,0.0,0.0,0.0,0.0,0.0,0.0,0.0,0.0,0.0,0.0,0.0,0.0,0.0,0.0,0.0,0.0,0.0,0.0,0.0,0.0,0.0,0.0,0.0,0.0,0.0,0.0,0.0,0.0,0.0,0.0,0.0,0.0,0.0,0.0,0.0,0.0,0.0,0.0,0.0,0.0,0.0,0.0,0.0,0.0,0.0,0.0,0.0,0.0,0.0,0.0,0.0,0.0,0.0,0.0,0.0,0.0,0.0,0.0,0.0,0.0,0.0,0.0,0.0,0.0,0.0,0.0,0.0,0.0,0.0,0.0,0.0,0.0,0.0,0.0,0.0,0.0,0.0,0.0,0.0,0.0,0.0,0.0,0.0,0.0,0.0,0.0,0.0,0.0,0.0,0.0,0.0,0.0,0.0,0.0,0.0,0.0,0.0,0.0,0.0,0.0,0.0,0.0,0.0,0.0,0.0,0.0,0.0,0.0,0.0,0.0,0.0,0.0,0.0,0.0,0.0,0.0,0.0,0.0,0.0,0.0,0.0,0.0,0.0,0.0,0.0,0.0,0.0,0.0,0.0,0.0,0.0,0.0,0.0,0.0,0.0,0.0,0.0,0.0,0.0,0.0,0.0,0.0,0.0,0.0,0.0,0.0,0.0,0.0,0.0,0.0,0.0,0.0,0.0,0.0,0.0,0.0,0.0,0.0,0.0,0.0,0.0,0.0,0.0,0.0,0.0,0.0,0.0,0.0,0.0,0.0,0.0,0.0,0.0,0.0,0.0,0.0,0.0,0.0,0.0,0.0,0.0,0.0,0.0,0.0,0.0,0.0,0.0,0.0,0.0,0.0,0.0,0.0,0.0,0.0,0.0,0.0,0.0,0.0,0.0,0.0,0.0,0.0,0.0,0.0,0.0,0.0,0.0,0.0,0.0,0.0,0.0,-1.1725,0.0,0.0,0.0,0.0,0.0,0.0,0.0,0.0,0.0,0.0,0.0,0.0,0.0,0.0,0.0,0.0,0.0,0.0,0.0,0.0,0.0,0.0,0.0,0.0,0.0,0.0,0.0,0.0,0.0,0.0,0.0,0.0,0.0,0.0,0.0,0.0,0.0,0.0,0.0,-0.6527,-0.6609,-0.6421,-0.6811,-0.7299,-0.7878,0.0,0.0,0.0,0.0,0.0,0.0,0.0,0.0,0.0,0.0,0.0,0.0,0.0,0.0,0.0,0.0,0.0,0.0,0.0,0.0,0.0,0.0,0.0,0.0,0.0,0.0,0.0,0.0,0.0,0.0,0.0,0.0,0.0,0.0,0.0,0.0,0.0,0.0,0.0,0.0,0.0,0.0,0.0,0.0,0.0,0.0,0.0,0.0,0.0,0.0,0.0,0.0,0.0,0.0,0.0,0.0,0.0,0.0,0.0,0.0,0.0,0.0,0.0,0.0,0.0,0.0,0.0,0.0,0.0,0.0,0.0,-1.3313,0.0,0.0,0.0,0.0,0.0,0.0,0.0,0.0,0.0,0.0,0.0,0.0,0.0,0.0,0.0,0.0,0.0,0.0,0.0,0.0,0.0,0.0,0.0,-0.0542,-0.1148,-0.1513,-0.1881,-0.2224,0.0,0.0,0.0,0.0,0.0,0.0,0.0,-0.5192,-0.5701,-0.5907,-0.6201,-0.6233,-0.5992,-0.5784,-0.5983,-0.6539,-0.7759,0.0,0.0,0.0,0.0,0.0,0.0,0.0,0.0,0.0,0.0,0.0,0.0,0.0,0.0,0.0,0.0,0.0,0.0,0.0,0.0,0.0,0.0,0.0,0.0,0.0,0.0,0.0,0.0,0.0,0.0,0.0,0.0,0.0,0.0,0.0,0.0,0.0,0.0,0.0,0.0,0.0,0.0,0.0,0.0,0.0,0.0,0.0,0.0,0.0,0.0,0.0,0.0,0.0,0.0,0.0,0.0,0.0,0.0,0.0,0.0,0.0,0.0,0.0,-1.6058,-1.6074,-1.5111,-1.5126,-1.5375,-1.5817,-1.5938,-1.5762,-1.5379,0.0,0.0,0.0,0.0,0.0,0.0,0.0,0.0,0.0,0.0,0.0,0.0,0.0,0.0,0.0,0.0,0.0,0.0,0.0,0.0,0.0,0.0,-0.1318,-0.1855,-0.2071,-0.209,-0.217,-0.233,0.0,0.0,0.0,0.0,0.0,-0.4644,-0.5047,-0.5505,-0.5985,-0.5797,-0.54,-0.4844,-0.5379,-0.5222,-0.4504,-0.5204,-0.4989,-0.4217,0.0,0.0,0.0,0.0,0.0,0.0,0.0,0.0,0.0,0.0,0.0,0.0,0.0,0.0,0.0,0.0,0.0,0.0,0.0,0.0,0.0,0.0,0.0,0.0,0.0,0.0,0.0,0.0,0.0,0.0,0.0,0.0,0.0,0.0,0.0,0.0,0.0,0.0,0.0,0.0,0.0,-1.2359,-1.3291,0.0,0.0,0.0,0.0,0.0,0.0,0.0,0.0,0.0,0.0,0.0,0.0,0.0,0.0,-1.5194,-1.6131,-1.6777,-1.7169,-1.8663,-1.9287,-1.9149,-1.9252,-1.9049,-1.8566,-1.8182,0.0,-1.6134,-1.575,0.0,0.0,0.0,0.0,0.0,0.0,0.0,0.0,0.0,0.0,0.0,0.0,0.0,0.0,0.0,0.0,0.0,0.0,0.0,0.0,0.0,-0.1334,-0.1739,-0.2005,-0.2008,-0.2209,-0.2775,-0.3122,0.0,0.0,0.0,-0.4834,-0.5255,-0.5513,-0.5844,-0.623,-0.6001,-0.541,-0.4482,-0.4366,-0.3845,-0.3033,-0.2747,-0.33,-0.4426,-0.462,0.0,0.0,0.0,0.0,0.0,0.0,0.0,0.0,0.0,0.0,0.0,0.0,0.0,0.0,0.0,0.0,0.0,0.0,0.0,0.0,0.0,0.0,0.0,0.0,0.0,0.0,0.0,0.0,0.0,0.0,0.0,0.0,0.0,0.0,0.0,0.0,0.0,0.0,0.0,-1.2686,-1.3151,-1.3751,-1.3844,-1.3909,0.0,0.0,0.0,0.0,0.0,0.0,0.0,0.0,0.0,-1.7252,-1.6971,-1.749,-1.8942,-1.9137,-1.9368,-1.9617,-2.0377,-2.0707,-2.0626,-2.0688,-2.038,-1.9782,-1.9316,-1.8614,-1.769,-1.6965,-1.663,-1.6605,0.0,0.0,0.0,0.0,-1.5868,-1.5377,0.0,0.0,0.0,0.0,0.0,0.0,0.0,0.0,0.0,0.0,0.0,0.0,-0.1067,-0.1258,-0.1508,-0.1976,-0.1974,-0.2368,-0.3351,-0.3401,-0.3846,-0.4833,-0.5045,-0.5367,-0.585,-0.6112,-0.6327,-0.6481,-0.6264,-0.5633,-0.4613,-0.3976,-0.3198,-0.2327,-0.1487,-0.2106,-0.3793,-0.3361,-0.3986,-0.5226,0.0,0.0,0.0,0.0,0.0,0.0,0.0,0.0,0.0,0.0,0.0,0.0,0.0,0.0,0.0,0.0,0.0,0.0,0.0,0.0,0.0,0.0,0.0,0.0,0.0,0.0,0.0,0.0,0.0,0.0,0.0,0.0,0.0,0.0,0.0,0.0,0.0,-1.3809,-1.4176,-1.4534,-1.4736,-1.4907,0.0,0.0,0.0,0.0,0.0,0.0,-1.6859,-1.6837,-1.7613,-1.934,-1.9115,-1.9784,-2.1471,-2.1367,-2.1315,-2.1385,-2.164,-2.1597,-2.1397,-2.1523,-2.1167,-2.0377,-1.9895,-1.939,-1.8827,-1.7932,-1.7602,-1.7621,-1.7254,-1.7111,-1.7168,-1.7348,-1.72,-1.6878,0.0,0.0,0.0,0.0,0.0,0.0,0.0,0.0,0.0,0.0,0.0,-0.0055,-0.1415,-0.1301,-0.1446,-0.2307,-0.2194,-0.2622,-0.3866,-0.3603,-0.3915,-0.5045,-0.5035,-0.5412,-0.6246,-0.6718,-0.6858,-0.6684,-0.6419,-0.5926,-0.5249,-0.4822,-0.396,-0.2748,-0.2174,-0.1132,0.0091,-0.1838,-0.1958,-0.1237,-0.4796,0.0,0.0,0.0,0.0,0.0,0.0,0.0,0.0,0.0,0.0,0.0,0.0,0.0,0.0,0.0,0.0,0.0,0.0,0.0,0.0,0.0,0.0,0.0,0.0,0.0,0.0,0.0,0.0,0.0,0.0,0.0,0.0,0.0,0.0,0.0,0.0,0.0,0.0,-1.6023,-1.5923,0.0,0.0,0.0,0.0,-1.7839,-1.8709,-1.9202,-1.9224,-2.0011,-2.0287,-1.9976,-2.031,-2.0525,-2.0667,-2.1028,-2.144,-2.186,-2.2408,-2.2352,-2.1871,-2.2386,-2.1801,-2.0377,-1.9895,-1.939,-1.885,-1.8295,-1.8186,-1.8348,-1.8474,-1.8303,-1.8066,-1.8407,-1.8067,-1.7298,0.0,0.0,0.0,0.0,0.0,0.0,0.0,0.0,0.1263,-0.005,-0.0363,-0.0797,-0.1694,-0.1412,-0.1509,-0.2336,-0.1747,-0.1847,-0.3081,-0.3224,-0.3691,-0.4605,-0.5444,-0.6128,-0.6608,-0.6951,-0.6853,-0.6253,-0.675,-0.6501,-0.55,-0.5429,-0.4847,-0.3793,-0.2983,-0.2082,-0.1102,-0.0826,-0.1344,-0.2387,-0.3109,-0.4717,0.0,0.0,0.0,0.0,0.0,0.0,0.0,0.0,0.0,0.0,0.0,0.0,0.0,0.0,0.0,0.0,0.0,0.0,0.0,0.0,0.0,0.0,0.0,0.0,0.0,0.0,0.0,0.0,0.0,0.0,0.0,0.0,0.0,0.0,0.0,0.0,0.0,-1.7285,-1.7552,0.0,0.0,-1.8937,-1.9519,-2.0535,-2.0553,-2.063,-2.0928,-2.0424,-2.042,-2.1064,-2.0946,-2.1283,-2.2141,-2.1912,-2.2015,-2.2477,-2.2617,-2.2615,-2.2432,-2.2937,-2.2696,-2.1858,-2.1686,-2.1135,-2.0339,-1.9803,-1.9023,-1.822,-1.8247,-1.8213,-1.8115,-1.8221,-1.7757,-1.7044,0.0,0.0,0.0,0.0,0.0,0.0,0.0,0.0,0.084,-0.0138,-0.0701,-0.1104,-0.1367,-0.1422,-0.1561,-0.1838,-0.1402,-0.1648,-0.2957,-0.3252,-0.394,-0.5259,-0.6305,-0.6776,-0.6592,-0.7147,-0.716,-0.6599,-0.7232,-0.7096,-0.6228,-0.6166,-0.5594,-0.4593,-0.3855,-0.3251,-0.2695,-0.1483,-0.1491,-0.2367,-0.228,-0.3565,-0.5605,0.0,0.0,0.0,0.0,0.0,0.0,0.0,0.0,0.0,0.0,0.0,0.0,0.0,0.0,0.0,0.0,0.0,0.0,0.0,0.0,0.0,0.0,0.0,0.0,0.0,0.0,0.0,0.0,0.0,0.0,0.0,0.0,0.0,0.0,0.0,-1.7158,-1.8406,-1.8829,-1.9372,-2.0268,-2.039,-2.1027,-2.2545,-2.2221,-2.2043,-2.2296,-2.1623,-2.1382,-2.1729,-2.1574,-2.1895,-2.2767,-2.2656,-2.2751,-2.3075,-2.3335,-2.3259,-2.296,-2.3602,-2.3442,-2.2719,-2.2719,-2.2132,-2.1155,-2.0618,-1.9693,-1.8616,-1.8432,-1.826,-1.8084,-1.7881,-1.7446,-1.6989,0.0,0.0,0.0,0.0,0.0,0.0,0.0,0.1752,0.0942,0.0271,-0.0516,-0.0854,-0.0468,-0.1297,-0.1609,-0.0906,-0.1241,-0.2108,-0.3588,-0.3689,-0.4707,-0.6979,-0.7494,-0.7249,-0.6246,-0.73,-0.7846,-0.7782,-0.7817,-0.7716,-0.7484,-0.7021,-0.6201,-0.512,-0.4713,-0.4447,-0.4278,-0.3677,-0.2385,-0.087,-0.2443,-0.2947,-0.3001,0.0,0.0,0.0,0.0,0.0,0.0,0.0,0.0,0.0,0.0,0.0,0.0,0.0,0.0,0.0,0.0,0.0,0.0,0.0,0.0,0.0,0.0,0.0,0.0,0.0,0.0,0.0,0.0,0.0,0.0,0.0,0.0,0.0,-1.6691,-1.7539,-1.849,-1.9454,-1.9735,-2.027,-2.1282,-2.0638,-2.1208,-2.3829,-2.3778,-2.3528,-2.3315,-2.376,-2.3386,-2.1887,-2.2229,-2.2407,-2.2407,-2.3231,-2.3638,-2.3626,-2.4497,-2.4359,-2.3442,-2.4416,-2.4085,-2.2719,-2.2708,-2.219,-2.1213,-2.0687,-2.0194,-1.9677,-1.9114,-1.857,-1.8025,-1.7418,-1.7202,-1.7118,0.0,0.0,0.0,0.0,0.0,0.0,0.0,0.1427,0.0481,0.0109,-0.0654,-0.1126,-0.1069,-0.1394,-0.1695,-0.1937,-0.1676,-0.1942,-0.2978,-0.3375,-0.4407,-0.6294,-0.6304,-0.6385,-0.6643,-0.7231,-0.747,-0.7285,-0.7981,-0.8026,-0.7489,-0.7362,-0.6783,-0.5815,-0.5216,-0.4851,-0.4646,-0.4479,-0.4124,-0.3592,-0.3039,-0.293,-0.3194,0.0,0.0,0.0,0.0,0.0,0.0,0.0,0.0,0.0,0.0,0.0,0.0,0.0,0.0,0.0,0.0,0.0,0.0,0.0,0.0,0.0,0.0,0.0,0.0,0.0,0.0,0.0,0.0,0.0,0.0,0.0,0.0,-1.7119,-1.8448,-1.9071,-1.9694,-2.0488,-2.0969,-2.179,-2.32,-2.3107,-2.3537,-2.4856,-2.4342,-2.3853,-2.359,-2.3199,-2.2907,-2.2841,-2.292,-2.297,-2.297,-2.3794,-2.4018,-2.3677,-2.4517,-2.4359,-2.343,-2.4108,-2.3764,-2.2753,-2.3454,-2.3236,-2.2282,-2.2144,-2.1581,-2.0661,-1.9378,-1.8549,-1.7955,-1.7389,-1.6922,-1.6528,0.0,0.0,0.0,0.0,0.0,0.0,0.0,0.1203,0.0363,0.0219,-0.0825,-0.142,-0.0979,-0.1478,-0.1866,-0.1939,-0.1936,-0.223,-0.2971,-0.3984,-0.4857,-0.5522,-0.5675,-0.5965,-0.6454,-0.6998,-0.7411,-0.77,-0.8222,-0.8317,-0.7922,-0.7619,-0.7027,-0.6207,-0.5451,-0.515,-0.5246,-0.518,-0.5098,-0.4929,-0.4077,-0.349,-0.3143,-0.3257,-0.3569,-0.406,-0.4752,-0.471,-0.4408,-0.497,0.0,0.0,0.0,0.0,0.0,0.0,0.0,0.0,0.0,0.0,0.0,0.0,0.0,0.0,0.0,0.0,0.0,0.0,0.0,0.0,0.0,0.0,0.0,0.0,-1.7534,-1.8518,-2.0117,-2.03,-2.0583,-2.1397,-2.2018,-2.2861,-2.4078,-2.39,-2.4164,-2.5292,-2.464,-2.4125,-2.3962,-2.3527,-2.3242,-2.3214,-2.3184,-2.3184,-2.3184,-2.3995,-2.4082,-2.3481,-2.4875,-2.485,-2.3529,-2.4406,-2.4281,0.0,-2.3936,-2.3741,-2.2995,-2.2995,-2.2398,0.0,0.0,0.0,0.0,0.0,-1.6613,-1.634,0.0,0.0,0.0,0.0,0.0,0.0,0.0,0.1047,0.0433,0.0537,-0.0953,-0.1618,-0.0552,-0.1479,-0.1945,-0.1365,-0.2048,-0.2729,-0.3285,-0.4825,-0.5405,-0.4703,-0.5323,-0.5735,-0.5892,-0.6672,-0.7511,-0.8382,-0.8452,-0.8452,-0.8382,-0.7787,-0.706,-0.6231,-0.5481,-0.5448,-0.5935,-0.5679,-0.5576,-0.5592,-0.5292,-0.4243,-0.2917,-0.3373,-0.3542,-0.3692,-0.4938,-0.5188,-0.4998,-0.5434,0.0,0.0,0.0,0.0,0.0,0.0,0.0,0.0,0.0,0.0,0.0,0.0,0.0,0.0,0.0,0.0,0.0,0.0,0.0,0.0,0.0,0.0,0.0,0.0,-1.9129,-2.0242,-2.1458,-2.1291,-2.1372,-2.2136,-2.2815,-2.3486,-2.423,-2.3705,-2.3876,-2.526,-2.4692,-2.4291,-2.4277,0.0,0.0,0.0,0.0,-2.337,-2.3422,-2.4138,-2.4087,-2.3309,-2.5418,-2.5475,-2.372,-2.5026,-2.5047,-2.4043,-2.4185,-2.3887,-2.3337,-2.3372,-2.2777,-2.1739,-2.0594,-1.9264,-1.7842,-1.667,-1.6253,-1.6355,0.0,0.0,0.0,0.0,0.0,0.0,0.0,0.1116,0.0508,0.079,-0.055,-0.1322,-0.0783,-0.119,-0.1478,-0.1467,-0.2097,-0.2766,-0.3417,-0.3798,-0.395,-0.3909,-0.4517,-0.4957,-0.5187,-0.6436,-0.7285,-0.7689,-0.8247,-0.822,-0.7689,-0.7559,-0.6793,-0.5507,-0.5342,-0.5639,-0.6268,-0.5639,-0.6166,-0.7321,-0.5574,-0.3994,-0.2661,-0.2708,-0.2345,-0.1949,-0.3114,-0.3171,-0.2917,-0.4274,-0.4435,-0.4131,-0.4464,-0.4677,0.0,0.0,0.0,0.0,0.0,0.0,0.0,0.0,0.0,0.0,0.0,0.0,0.0,0.0,0.0,0.0,0.0,0.0,0.0,-1.9083,-1.9986,-2.076,-2.1727,-2.2349,-2.2654,-2.2463,-2.2889,-2.3486,-2.423,-2.4151,-2.4191,-2.4495,-2.4377,-2.4215,-2.399,-2.397,0.0,-2.4228,-2.4239,-2.4414,-2.4797,-2.4957,-2.4851,-2.4474,0.0,0.0,-2.4037,-2.4835,-2.4464,-2.3187,-2.3944,-2.3767,-2.2936,-2.3266,-2.2692,-2.139,-1.9501,-1.8364,-1.7604,-1.6287,-1.5913,-1.6148,0.0,0.0,0.0,0.0,0.0,0.0,0.0,0.0943,0.0256,0.0288,-0.0808,-0.1518,-0.1281,-0.1373,-0.159,-0.1926,-0.232,-0.2812,-0.345,-0.3446,-0.3381,-0.3294,-0.3865,-0.4445,-0.4992,-0.6163,-0.6993,-0.7489,-0.7819,-0.7819,-0.7489,-0.6728,-0.6001,-0.5276,-0.4951,-0.5183,-0.5837,-0.5441,-0.5771,-0.647,-0.5382,-0.4185,-0.3021,-0.272,-0.2351,-0.2123,-0.2959,-0.3025,-0.2885,-0.4069,-0.4288,-0.4193,-0.4697,-0.5042,-0.5354,0.0,0.0,0.0,0.0,0.0,0.0,0.0,0.0,0.0,0.0,0.0,0.0,0.0,0.0,-1.4984,0.0,0.0,-1.8002,-1.9678,-2.0576,-2.1333,-2.2109,-2.2866,-2.323,-2.2874,-2.3432,-2.4023,-2.4364,-2.4395,-2.4395,-2.4395,-2.4395,-2.4345,-2.4198,-2.4426,-2.4654,-2.4838,-2.5099,-2.5139,-2.4961,-2.5163,-2.472,-2.3561,-2.4748,-2.4514,-2.3083,-2.4001,-2.3822,-2.2749,-2.3064,-2.2859,-2.2291,-2.2528,-2.2555,-2.2289,-2.0422,-1.9159,-1.8245,-1.7489,-1.7267,-1.7386,0.0,0.0,0.0,0.0,0.0,0.0,0.0,0.0824,0.013,-0.0035,-0.0944,-0.154,-0.1436,-0.1493,-0.1794,-0.2496,-0.2461,-0.266,-0.328,-0.3154,-0.2971,-0.2734,-0.3423,-0.4104,-0.4779,-0.5708,-0.6465,-0.706,-0.7223,-0.7223,-0.706,-0.587,-0.5243,-0.5084,-0.4528,-0.4658,-0.5276,-0.5147,-0.5216,-0.5319,-0.502,-0.4459,-0.373,-0.309,-0.2787,-0.2785,-0.3365,-0.3431,-0.3384,-0.4149,-0.4339,-0.4371,-0.4994,-0.5452,-0.5828,-0.6348,-0.7053,0.0,0.0,0.0,0.0,0.0,0.0,0.0,0.0,0.0,-1.4163,-1.4669,-1.5449,-1.6389,-1.7525,-1.815,-1.891,-2.031,-2.1151,-2.1867,-2.246,-2.3059,-2.3374,-2.3283,-2.3982,-2.4454,-2.4497,-2.4537,-2.4588,-2.4631,-2.4671,-2.4722,-2.4755,-2.5034,-2.523,-2.5313,-2.5472,-2.5325,-2.4855,-2.4975,-2.4156,-2.2501,-2.3677,-2.3493,-2.2102,-2.2951,-2.3016,-2.2474,-2.2141,-2.2015,-2.2004,-2.212,-2.2622,-2.318,-2.1887,-2.0605,-1.9444,-1.8977,-1.8723,-1.8603,0.0,0.0,0.0,0.0,0.0,0.0,0.0,0.0,0.0558,0.0822,-0.0129,-0.0722,-0.0482,-0.0931,-0.1743,-0.3009,-0.2209,-0.1937,-0.2654,-0.2418,-0.2199,-0.2109,-0.3199,-0.387,-0.4022,-0.4882,-0.541,-0.554,-0.6203,-0.6199,-0.554,-0.5375,-0.4984,-0.4398,-0.4334,-0.4658,-0.5276,-0.4658,-0.512,-0.6137,-0.4688,-0.4459,-0.4821,-0.3794,-0.3125,-0.2811,-0.3522,-0.352,-0.334,-0.4136,-0.4476,-0.4682,-0.5339,-0.597,-0.6573,-0.7116,-0.7719,-0.8184,-0.8076,-0.8626,-0.956,-1.1047,-1.12,-1.1272,0.0,0.0,-1.4976,-1.5671,-1.6991,-1.8276,-1.9169,-1.9811,-2.0526,-2.1476,-2.1996,-2.2406,-2.2717,-2.2984,-2.3212,-2.3434,-2.3907,-2.4282,-2.4497,-2.4641,-2.4876,-2.5106,-2.53,-2.547,-2.573,-2.5409,-2.5409,-2.5792,-2.4781,-2.4564,-2.53,-2.4273,-2.3495,-2.3084,-2.2817,-2.2522,-2.2242,-2.1784,-2.1799,-2.2137,-2.1822,-2.2191,-2.3041,-2.305,-2.3048,-2.3029,-2.2714,-2.2017,-2.1053,-1.9651,-1.8816,-1.8331,0.0,0.0,0.0,0.0,0.0,0.0,0.0,0.0,0.0,0.0645,-0.0211,-0.0826,-0.0821,-0.1508,-0.2312,-0.3192,-0.2324,-0.2072,-0.2889,-0.2086,-0.1693,-0.1984,-0.2469,-0.2762,-0.2799,-0.4046,-0.4689,-0.4707,-0.5404,-0.5606,-0.5276,-0.4888,-0.4495,-0.4131,-0.4131,-0.4225,-0.442,-0.4225,-0.4459,-0.4951,-0.4395,-0.4298,-0.4384,-0.3795,-0.3312,-0.3075,-0.3698,-0.3853,0.0,-0.4262,-0.4587,-0.4986,-0.5894,-0.6299,-0.663,-0.767,-0.8291,-0.8705,-0.902,-0.9545,-1.0231,0.0,-1.1567,-1.2103,-1.3814,-1.4969,-1.6092,-1.747,-1.8452,-1.9268,-1.9997,-2.0504,-2.101,0.0,-2.1948,-2.2318,-2.253,-2.2582,-2.2418,-2.1935,-2.2109,-2.2748,-2.3963,-2.4145,-2.4083,-2.3894,-2.458,-2.4726,-2.4088,-2.4639,-2.4856,-2.4634,-2.4334,-2.4163,-2.4135,-2.3777,-2.3253,-2.2509,-2.2196,-2.2043,-2.1961,-2.1189,-2.0639,-2.0289,-2.0218,-2.0888,-2.1966,-2.1734,-2.2303,-2.3313,-2.2783,-2.2448,-2.2099,-2.0872,-1.996,-1.9307,0.0,0.0,0.0,0.0,0.0,0.0,0.0,0.0,0.0,0.0,-0.0037,-0.0717,-0.1225,-0.1876,-0.2556,-0.3232,-0.2662,-0.2401,-0.2708,-0.196,-0.154,-0.1583,-0.1813,-0.1973,-0.2008,-0.3285,-0.3949,-0.401,-0.4644,-0.4877,-0.471,-0.4191,-0.3867,-0.3727,-0.3727,-0.3758,-0.3792,-0.3892,-0.3961,-0.3961,-0.4131,-0.4058,-0.3831,-0.3658,-0.3406,-0.3245,-0.3673,-0.3908,-0.403,-0.4247,-0.4587,-0.5103,-0.6111,-0.6411,-0.6612,-0.7852,-0.8504,-0.9011,-0.9838,-1.029,0.0,-1.1696,-1.2245,-1.2952,-1.4511,-1.5713,-1.6788,-1.797,-1.8699,-1.9244,-1.9528,-1.9911,-2.0278,-2.0408,-2.0791,-2.1149,-2.1362,-2.1335,-2.1047,-2.0277,-2.0349,-2.101,-2.2437,-2.2767,-2.2853,-2.2704,-2.3522,-2.3711,-2.2939,-2.3775,-2.4071,-2.3765,-2.3768,-2.3592,-2.3181,-2.3332,-2.2997,-2.2141,-2.183,-2.1779,-2.1912,-2.1001,-1.9952,-1.8918,-1.9099,-1.9989,-2.1271,-2.084,-2.1855,-2.356,-2.2832,-2.267,-2.2693,-2.1833,-2.0997,-2.0248,0.0,0.0,0.0,0.0,0.0,0.0,0.0,0.0,0.0,0.0,0.0,0.0,0.0,-0.1633,-0.2144,-0.3213,-0.3219,-0.2693,-0.1632,-0.1992,-0.1753,-0.0595,-0.136,-0.1873,-0.1999,-0.2671,-0.3109,-0.3249,-0.3851,-0.3851,-0.3247,-0.3099,-0.3042,-0.3023,-0.3023,-0.3324,-0.3792,-0.3792,-0.3792,-0.3825,-0.3961,-0.3804,-0.352,-0.3518,-0.3327,-0.3132,-0.3327,-0.3473,-0.3578,-0.3982,-0.4408,-0.494,-0.57,-0.6237,-0.6749,-0.7498,-0.814,-0.8941,-1.0376,0.0,-1.098,-1.2544,-1.3353,-1.3721,-1.359,-1.5283,-1.6735,-1.6297,-1.7176,-1.789,-1.7378,-1.7696,-1.7937,-1.7755,-1.8093,-1.8495,-1.8762,-1.8985,-1.9065,-1.899,-1.9204,-1.9384,0.0,-2.0298,-2.1235,-2.2034,-2.2364,-2.277,-2.3446,-2.3088,-2.313,-2.3793,-2.297,-2.2783,-2.3172,-2.2845,-2.2644,-2.2568,-2.1804,-2.177,-2.2351,-2.123,-1.9908,-1.8629,-1.9041,-2.0199,-2.1738,-2.1278,-2.2104,-2.3667,-2.3187,-2.289,-2.2726,-2.2247,-2.1563,-2.0761,0.0,0.0,0.0,0.0,0.0,0.0,0.0,0.0,0.0,0.0,0.0,0.0,0.0,0.0,0.0,0.0,-0.2595,-0.2789,-0.3196,-0.2182,-0.1729,-0.2087,-0.1431,-0.1277,-0.1734,-0.2435,-0.2861,-0.301,-0.3638,-0.3607,-0.2945,-0.2886,-0.2763,-0.2536,-0.262,-0.3099,-0.3886,-0.4058,-0.412,-0.414,-0.4278,-0.3817,-0.3064,-0.3175,-0.2889,-0.2494,0.0,-0.3329,-0.3773,-0.3819,-0.4204,-0.4763,-0.5322,-0.5703,-0.6242,-0.7723,-0.8848,-0.983,-1.092,0.0,-1.222,-1.3105,-1.3595,-1.4084,-1.4865,-1.5616,-1.6239,-1.6565,-1.7165,-1.7496,-1.6983,-1.7105,-1.735,-1.744,-1.7653,-1.794,-1.837,-1.8542,-1.83,-1.748,-1.7733,0.0,0.0,0.0,0.0,-1.9906,-2.1134,-2.1669,-2.1141,-2.1969,-2.2407,-2.2215,-2.1921,-2.197,-2.242,-2.2264,-2.2354,-2.2594,-2.2038,-2.1371,-2.0618,-2.047,-1.9627,-1.8254,-1.9384,-2.0463,-2.1427,-2.1706,-2.2423,-2.3313,-2.346,-2.2953,-2.2262,-2.3268,-2.2485,-2.0853,0.0,0.0,0.0,0.0,0.0,0.0,0.0,0.0,0.0,0.0,0.0,0.0,0.0,0.0,0.0,0.0,0.0,-0.2478,-0.3136,-0.226,-0.1939,-0.2477,-0.1679,-0.1377,-0.1776,-0.2559,-0.2991,-0.3091,-0.3786,-0.364,-0.2615,-0.2614,-0.2384,-0.1937,-0.209,-0.2741,-0.3776,-0.3814,-0.4057,-0.4335,-0.4069,-0.3577,-0.3004,-0.2952,-0.2658,0.0,-0.2674,-0.3217,-0.3776,-0.3699,-0.4003,-0.4499,-0.4964,-0.5434,-0.6156,-0.7935,-0.9169,-1.023,-1.1563,-1.247,-1.3204,-1.3849,-1.4456,-1.5002,-1.5448,-1.5604,-1.5672,-1.5662,-1.5946,-1.5993,-1.5365,-1.5462,-1.5843,-1.6489,-1.6373,-1.6505,-1.7311,-1.751,-1.7216,-1.6363,-1.6585,0.0,0.0,0.0,0.0,-1.8466,-1.955,-2.0093,-1.9756,-2.0695,-2.1151,-2.0923,-2.1113,-2.1345,-2.1593,-2.1859,-2.2184,-2.2594,-2.2354,-2.1473,-2.011,-2.0249,-1.9615,-1.8459,-1.9296,-2.0167,-2.1097,-2.1758,-2.2532,-2.3289,-2.3809,-2.3605,-2.3071,-2.3808,-2.3044,-2.1561,0.0,0.0,0.0,0.0,0.0,0.0,0.0,0.0,0.0,0.0,0.0,0.0,0.0,0.0,0.0,0.0,0.0,0.0,-0.1552,-0.2172,-0.2329,-0.1851,-0.2001,-0.2104,-0.2133,-0.2967,-0.3425,-0.3429,-0.4201,-0.3803,-0.2329,-0.2334,-0.1994,-0.1369,-0.153,-0.2311,-0.354,-0.326,-0.3673,-0.4427,-0.349,-0.3205,-0.3305,-0.2817,-0.2579,-0.2564,-0.2719,-0.3112,-0.3562,-0.3594,-0.3838,-0.4205,-0.4692,-0.5474,-0.6545,-0.8108,-0.9099,-1.0122,-1.2157,-1.3164,-1.3892,-1.4734,-1.5745,-1.6278,-1.5276,-1.5193,-1.4943,-1.3698,-1.36,-1.354,0.0,0.0,-1.3587,-1.4958,-1.4471,-1.4353,-1.5687,-1.597,-1.5929,0.0,0.0,0.0,0.0,0.0,0.0,-1.7816,0.0,-1.8319,-1.9436,-1.9369,-1.9534,-1.9966,-2.0547,-2.09,-2.0934,-2.1662,-2.2201,-2.2594,-2.2577,-2.2002,-2.0891,-2.048,-1.9889,-1.923,-1.8844,-1.9518,-2.0829,-2.1562,-2.2433,-2.3461,-2.41,-2.4555,-2.4748,-2.3842,-2.322,-2.2641,0.0,0.0,0.0,0.0,0.0,0.0,0.0,0.0,0.0,0.0,0.0,0.0,0.0,0.0,0.0,0.0,0.0,0.0,-0.2062,-0.1897,-0.1939,-0.2304,-0.2095,-0.2175,-0.2677,-0.3298,-0.3702,-0.3839,-0.4207,-0.3853,-0.2831,-0.2831,-0.2679,-0.2429,-0.2667,-0.3395,-0.4503,-0.4872,-0.4947,-0.4864,-0.4752,-0.3921,-0.2744,-0.2856,-0.2465,-0.1907,-0.2346,-0.2711,-0.3045,-0.3405,0.0,0.0,0.0,-0.6013,-0.6885,-0.7684,-0.8709,-0.9802,-1.1068,-1.2388,-1.3609,-1.4086,-1.4801,-1.5259,-1.4596,-1.4103,-1.361,-1.2785,-1.2726,-1.289,0.0,0.0,0.0,-1.47,-1.4148,0.0,-1.5546,-1.5891,0.0,-1.6252,0.0,-1.7023,-1.6894,-1.7582,0.0,0.0,-1.8401,-1.8703,-1.9125,-1.9384,-1.9652,-1.9926,-2.0192,-2.0554,-2.1103,-2.2018,-2.25,-2.2594,-2.2319,-2.1833,-2.1251,-2.0591,-2.0035,-1.959,-2.0043,-2.046,-2.0875,-2.1866,-2.2225,-2.2224,-2.3104,-2.2696,-2.1759,-2.2971,-2.1946,-2.0001,0.0,0.0,0.0,0.0,0.0,0.0,0.0,0.0,0.0,0.0,0.0,0.0,0.0,0.0,0.0,0.0,0.0,0.0,0.0,-0.1685,-0.1856,-0.2481,-0.2349,-0.2422,-0.28,-0.3345,-0.3691,-0.3868,-0.4222,-0.3961,-0.3175,-0.3242,-0.3129,-0.2908,-0.3142,-0.3751,-0.4632,-0.4888,-0.5027,0.0,0.0,-0.3758,-0.3004,-0.2704,-0.2325,-0.1951,-0.2349,-0.2679,-0.3007,0.0,0.0,-0.4955,-0.5727,-0.6331,-0.6976,-0.811,0.0,-0.9782,-1.1251,-1.2665,-1.3725,-1.3608,-1.4372,-1.4851,-1.3692,-1.3286,-1.2949,-1.219,-1.2459,0.0,0.0,0.0,0.0,0.0,0.0,0.0,-1.5659,-1.6074,-1.63,0.0,-1.7022,0.0,-1.7501,-1.7984,-1.8423,0.0,-1.8635,-1.8721,-1.9127,-1.9272,-1.9376,-1.9478,-1.967,-2.0133,-2.0949,-2.1868,-2.2439,-2.2594,-2.2388,-2.2038,-2.1645,-2.0891,-2.0437,-2.0223,0.0,-2.0395,-2.0651,-2.178,-2.2085,-2.1908,-2.2867,-2.2732,-2.2111,-2.2944,-2.1943,-2.0241,0.0,0.0,0.0,0.0,0.0,0.0,0.0,0.0,0.0,0.0,0.0,0.0,0.0,0.0,0.0,0.0,0.0,0.0,0.0,0.0,-0.1778,-0.2259,-0.249,-0.263,-0.261,-0.3157,-0.3532,-0.3684,-0.4167,-0.4106,-0.3511,-0.3606,-0.35,-0.324,-0.3406,-0.3867,-0.4488,-0.4361,-0.465,-0.5065,-0.3768,-0.348,-0.3694,0.0,-0.2349,-0.2442,-0.2574,-0.2781,-0.3119,0.0,-0.44,-0.5159,-0.6056,-0.6497,-0.7061,-0.876,-0.9284,-0.9743,-1.1734,-1.3084,-1.3778,-1.3228,-1.4033,-1.4524,-1.276,-1.2533,-1.2522,-1.171,0.0,-1.292,-1.2708,-1.2551,-1.2988,-1.4714,0.0,-1.3884,-1.5708,-1.6186,-1.6513,-1.7005,-1.7098,-1.7474,-1.8306,-1.8408,-1.8664,-1.9235,-1.8752,-1.8679,-1.925,-1.9097,-1.8984,-1.8988,-1.9236,-1.9734,-2.0629,-2.1533,-2.2102,-2.2416,-2.2475,-2.2328,-2.1893,-2.1139,-2.0831,-2.0886,0.0,0.0,-2.0374,-2.1382,-2.1774,-2.1863,-2.2692,-2.326,-2.3514,-2.2873,-2.2116,-2.1395,0.0,0.0,0.0,0.0,0.0,0.0,0.0,0.0,0.0,0.0,0.1362,0.1145,0.0,0.0,0.0,0.0,0.0,0.0,0.0,0.0,0.0,-0.1088,-0.1801,-0.2205,-0.2195,-0.2846,-0.3324,-0.3607,-0.3817,-0.3968,-0.4056,-0.397,-0.4092,-0.441,-0.4496,-0.4737,-0.5073,-0.5269,-0.5247,-0.5114,-0.5074,-0.4773,-0.4284,-0.3612,0.0,0.0,-0.2764,-0.2686,-0.2818,-0.363,-0.4379,-0.5111,-0.5791,-0.6619,-0.7491,-0.8263,-0.8703,-0.9129,-1.0253,-1.1441,-1.2432,-1.2525,-1.2907,-1.3032,-1.2301,-1.1704,0.0,0.0,-1.1342,-1.1966,-1.2527,-1.2536,0.0,-1.3815,0.0,0.0,0.0,0.0,-1.6309,0.0,0.0,0.0,0.0,0.0,0.0,0.0,0.0,-1.9162,-1.9272,-1.9015,-1.8877,-1.8996,-1.9342,-1.9828,-2.0339,-2.1294,-2.1661,-2.147,-2.1883,-2.1893,-2.149,-2.0737,-2.0574,-2.0886,-2.0033,0.0,-2.0337,-2.051,-2.06,-2.06,-2.0772,-2.0907,-2.0944,-2.0703,-2.0106,-1.9377,0.0,0.0,0.0,0.0,0.0,0.0,0.0,0.2145,0.1839,0.168,0.1541,0.1424,0.1318,0.106,0.0,0.0,0.0,0.0,0.0,0.0,0.0,0.0,0.0,0.0,-0.1828,-0.2294,0.0,0.0,0.0,-0.3679,-0.4035,0.0,0.0,-0.4606,-0.4823,-0.4936,-0.5008,-0.5321,-0.5285,-0.5024,-0.4699,-0.4375,-0.4002,0.0,0.0,0.0,0.0,-0.2724,-0.2792,-0.3432,-0.4051,-0.4665,-0.5431,-0.6307,-0.7234,-0.8224,-0.8577,-0.903,-1.063,-1.1717,-1.2309,-1.1953,-1.2438,-1.26,-1.1118,0.0,0.0,0.0,-1.1266,-1.207,-1.2514,0.0,0.0,0.0,0.0,0.0,0.0,0.0,0.0,0.0,0.0,0.0,0.0,0.0,0.0,0.0,0.0,0.0,-1.9264,-1.8964,-1.8817,-1.8912,-1.9599,-2.0134,-2.0334,-2.1362,-2.1769,-2.1634,-2.1635,-2.1593,-2.1388,-2.0634,-2.0394,-2.054,-1.9939,0.0,-2.0009,-2.0009,-2.0121,-2.0249,-1.9988,-1.9998,-2.0155,-1.979,-1.9428,-1.9056,0.0,0.0,0.0,0.0,0.0,0.0,0.0,0.2302,0.1992,0.1752,0.1645,0.1579,0.1585,0.122,0.0992,0.0,0.0,0.0,0.0,0.0,0.0,0.0,0.0,0.0,0.0,0.0,0.0,0.0,0.0,0.0,0.0,0.0,0.0,0.0,0.0,0.0,-0.4894,-0.4995,-0.498,0.0,0.0,-0.3895,0.0,0.0,0.0,0.0,0.0,0.0,-0.2883,-0.3197,-0.3595,-0.4085,-0.49,-0.5754,-0.6772,-0.8222,-0.8593,-0.9031,-1.1355,-1.2226,-1.2296,-1.1832,-1.2171,-1.2123,-1.0224,-1.0236,0.0,0.0,-1.1193,-1.2122,-1.2172,0.0,-1.2713,0.0,0.0,0.0,0.0,0.0,0.0,0.0,0.0,0.0,0.0,0.0,0.0,0.0,0.0,0.0,-1.9162,-1.8994,-1.8862,-1.8789,-1.964,-2.0061,-2.0082,-2.1081,-2.158,-2.1544,-2.1391,-2.1251,-2.1139,-2.0394,-2.0095,-2.0146,-1.9648,0.0,0.0,-1.9571,-1.9787,-2.0037,-1.9609,-1.9652,-1.9844,-1.9358,-1.9135,-1.9038,0.0,0.0,0.0,0.0,0.0,0.0,0.0,0.2375,0.2036,0.2132,0.1559,0.1341,0.1816,0.1508,0.1263,0.0,0.0,0.0,0.0,0.0,0.0,0.0,0.0,0.0,0.0,0.0,0.0,0.0,0.0,0.0,0.0,0.0,0.0,0.0,0.0,0.0,0.0,-0.4478,0.0,0.0,0.0,0.0,0.0,0.0,0.0,0.0,0.0,0.0,0.0,0.0,0.0,-0.3537,-0.3838,-0.4925,-0.6363,-0.8027,0.0,0.0,-1.135,-1.1786,-1.1784,-1.2473,-1.1939,-1.1048,-1.045,0.0,0.0,-0.9285,-1.0441,-1.1354,-1.0941,-1.1864,-1.2476,0.0,0.0,-1.2897,0.0,0.0,0.0,0.0,0.0,0.0,0.0,0.0,0.0,0.0,0.0,0.0,-1.8847,-1.9089,-1.9096,-1.8796,-1.889,-1.8994,-1.9132,-1.9769,-2.0135,-2.0182,-2.0691,-2.0737,-2.0369,-1.9659,-1.947,-1.9708,-1.9007,0.0,0.0,-1.9273,-1.929,-1.9316,-1.9239,-1.9239,-1.9213,-1.8834,-1.8671,-1.8611,0.0,0.0,0.0,0.0,0.0,0.0,0.2897,0.2475,0.2239,0.2263,0.1895,0.1734,0.1998,0.1806,0.1613,0.0,0.0,0.0,0.0,0.0,0.0,0.0,0.0,0.0,0.0,0.0,0.0,0.0,0.0,0.0,0.0,0.0,0.0,0.0,0.0,0.0,0.0,0.0,0.0,0.0,0.0,0.0,0.0,0.0,0.0,0.0,0.0,0.0,0.0,0.0,0.0,0.0,-0.3895,-0.4436,0.0,0.0,-0.8284,-0.9096,-1.1415,-1.2129,-1.2294,-1.249,-1.1763,-1.0898,-1.0481,0.0,-0.9239,-0.9566,-1.0376,-1.1116,-1.1331,-1.2022,-1.2538,-1.2471,-1.2773,0.0,0.0,0.0,0.0,0.0,0.0,0.0,0.0,0.0,0.0,0.0,0.0,0.0,-1.8803,-1.9096,-1.9125,-1.8803,-1.9128,-1.9372,-1.9527,-1.9846,-2.02,-2.053,-2.0542,-2.0326,-1.9896,-1.9418,-1.9127,-1.9033,-1.8725,0.0,0.0,-1.8819,-1.8998,-1.9127,-1.8674,-1.8494,-1.8417,-1.7809,-1.7586,-1.7501,0.0,0.0,0.0,0.0,0.0,0.3698,0.3004,0.2618,0.2383,0.2357,0.2055,0.1913,0.2087,0.1944,0.1809,0.1728,0.0,0.0,0.0,0.0,0.0,0.0,0.0,0.0,0.0,0.0,-0.2775,-0.3019,-0.301,0.0,0.0,0.0,0.0,0.0,0.0,0.0,0.0,0.0,0.0,0.0,0.0,0.0,0.0,0.0,0.0,0.0,0.0,0.0,0.0,0.0,0.0,0.0,0.0,-0.4271,-0.475,0.0,-0.7858,-0.8857,-1.112,-1.2004,-1.229,-1.2289,-1.1537,-1.069,0.0,0.0,-0.899,-0.95,-1.0115,-1.0698,-1.1162,-1.1798,-1.2332,-1.2513,-1.2796,-1.3048,-1.3224,0.0,0.0,0.0,0.0,0.0,0.0,0.0,0.0,0.0,0.0,0.0,0.0,-1.9147,-1.9081,-1.8657,-1.9037,-1.9273,-1.9366,-1.9454,-1.9755,-2.0285,-2.0146,-1.9825,-1.9284,-1.9081,-1.8786,-1.8371,0.0,0.0,0.0,-1.8545,-1.8691,-1.8785,-1.8205,-1.7923,-1.7817,-1.7359,-1.7068,-1.6821,0.0,0.0,0.0,0.0,0.0,0.0,0.3453,0.2821,0.242,0.2487,0.1915,0.1652,0.2052,0.1854,0.1778,0.1974,0.0,0.0,0.0,0.0,0.0,0.0,0.0,0.0,0.0,0.0,-0.3294,-0.3294,-0.3434,-0.3568,-0.3708,0.0,0.0,0.0,0.0,0.0,0.0,0.0,0.0,0.0,0.0,0.0,0.0,0.0,0.0,0.0,0.0,0.0,0.0,0.0,0.0,0.0,0.0,-0.4424,-0.4958,-0.6236,-0.6936,-0.7833,-1.0179,-1.1069,-1.1456,-1.1957,-1.1213,-1.0166,0.0,0.0,-0.8695,-0.8717,-0.9405,-0.9977,-0.9928,-1.0894,-1.1664,-1.1551,-1.2357,-1.2946,0.0,0.0,0.0,0.0,0.0,0.0,0.0,0.0,0.0,0.0,0.0,0.0,0.0,-1.9279,-1.8979,-1.8328,-1.8306,-1.8241,-1.8102,-1.8141,-1.8365,-1.8835,-1.9371,-1.913,-1.8332,-1.8464,-1.8309,0.0,0.0,0.0,0.0,-1.8434,-1.8374,-1.8008,-1.8,-1.7809,-1.7557,-1.7846,-1.7521,-1.697,0.0,0.0,0.0,0.0,0.0,0.0,0.0,0.2957,0.2656,0.2585,0.2146,0.1904,0.2089,0.1991,0.1916,0.1933,0.0,0.0,0.0,0.0,0.0,0.0,0.0,0.0,0.0,0.0,-0.3407,-0.3638,-0.3543,-0.3686,-0.4034,-0.4054,-0.4178,0.0,0.0,0.0,0.0,0.0,0.0,0.0,0.0,0.0,0.0,0.0,0.0,0.0,0.0,0.0,0.0,0.0,0.0,0.0,0.0,0.0,0.0,-0.5457,-0.6535,0.0,-0.9075,-0.9849,-1.0241,-1.0124,-0.9522,-0.887,-0.8589,0.0,-0.8421,-0.8594,-0.9145,-0.984,-1.0631,-1.1323,-1.1886,-1.2254,-1.2898,-1.3169,0.0,0.0,0.0,0.0,0.0,0.0,0.0,0.0,0.0,0.0,0.0,0.0,0.0,-1.9067,-1.8745,-1.8313,-1.8299,-1.8234,-1.8094,-1.8087,-1.8319,-1.8781,-1.8958,-1.8646,-1.7982,-1.7993,0.0,0.0,0.0,0.0,0.0,-1.7997,-1.8102,-1.8,-1.8,-1.7809,-1.7523,-1.7603,-1.7167,-1.6496,0.0,0.0,0.0,0.0,0.0,0.0,0.0,0.3114,0.2811,0.2525,0.2224,0.2057,0.2136,0.2048,0.1981,0.1947,0.0,0.0,0.0,0.0,0.0,0.0,0.0,0.0,-0.255,-0.3023,-0.3433,-0.3801,-0.365,-0.3823,-0.4275,-0.4177,-0.4201,-0.4353,-0.4527,-0.459,0.0,0.0,0.0,0.0,0.0,0.0,-0.3972,0.0,0.0,0.0,0.0,0.0,0.0,0.0,0.0,0.0,0.0,0.0,0.0,0.0,-0.6032,-0.7154,-0.8145,-0.8921,-0.9388,-0.9168,-0.8666,0.0,0.0,-0.7839,-0.7952,-0.8243,-0.8769,-0.9526,-1.0689,-1.1339,-1.187,-1.2381,-1.2952,0.0,0.0,0.0,0.0,0.0,0.0,0.0,0.0,0.0,0.0,0.0,0.0,0.0,0.0,-1.8716,-1.846,-1.813,-1.8116,-1.8012,-1.7807,-1.78,-1.7939,-1.8218,-1.8317,-1.7967,-1.7283,-1.7325,0.0,0.0,0.0,0.0,0.0,-1.7982,-1.8119,-1.8,-1.8,-1.7723,-1.7278,-1.7454,-1.6797,-1.5839,0.0,0.0,0.0,0.0,0.0,0.0,0.0,0.0,0.2912,0.2356,0.2169,0.2106,0.2126,0.2043,0.1981,0.1931,0.0,0.0,0.0,0.0,0.0,0.0,0.0,0.0,-0.2018,-0.2788,-0.3386,-0.3783,-0.3747,-0.3962,-0.4404,-0.4163,-0.4159,-0.4371,-0.4318,-0.4246,-0.4174,-0.4262,-0.431,-0.4312,-0.4132,-0.3521,0.0,0.0,0.0,0.0,0.0,0.0,0.0,0.0,0.0,0.0,0.0,0.0,0.0,0.0,0.0,0.0,0.0,-0.8168,-0.8744,0.0,0.0,0.0,0.0,-0.7234,0.0,-0.7738,-0.833,-0.9115,-1.0243,-1.1007,-1.1589,-1.2011,0.0,0.0,0.0,0.0,0.0,0.0,0.0,0.0,0.0,0.0,0.0,0.0,0.0,0.0,0.0,-1.8284,-1.8081,-1.7727,-1.7746,-1.7585,-1.7286,-1.7279,-1.7279,-1.7279,-1.7484,-1.7154,-1.6404,-1.6528,0.0,0.0,0.0,0.0,0.0,-1.8119,-1.8216,-1.7919,-1.7919,-1.7494,-1.6924,-1.7303,-1.6426,-1.5081,0.0,0.0,0.0,0.0,0.0,0.0,0.0,0.0,0.0,0.0,0.2082,0.1856,0.1404,0.1693,0.1763,0.0,0.0,0.0,0.0,0.0,0.0,0.0,0.0,0.0,-0.2222,-0.2821,-0.3272,-0.3577,-0.3863,-0.4159,-0.4479,-0.4525,-0.4367,-0.411,-0.4242,-0.4127,-0.3808,-0.3578,-0.3513,-0.3521,-0.3027,-0.2744,0.0,0.0,0.0,0.0,-0.2164,-0.2321,0.0,0.0,0.0,0.0,0.0,0.0,0.0,0.0,-0.4676,-0.5229,-0.576,0.0,-0.7065,-0.6827,-0.6877,-0.6818,0.0,0.0,0.0,0.0,0.0,0.0,0.0,0.0,0.0,0.0,0.0,0.0,0.0,0.0,0.0,0.0,0.0,0.0,0.0,0.0,0.0,0.0,0.0,0.0,0.0,-1.8064,-1.7599,-1.6988,-1.7234,-1.7359,-1.7279,-1.7279,-1.7279,-1.7279,-1.7345,-1.7007,-1.6411,-1.6418,0.0,0.0,0.0,0.0,-1.5726,-1.6727,-1.7097,-1.7017,-1.7017,-1.692,-1.6742,-1.6863,-1.6253,-1.5418,0.0,0.0,0.0,0.0,0.0,0.0,0.0,0.0,0.0,0.0,0.0,0.0,0.0,0.0,0.0,0.0,0.0,0.0,0.0,0.0,0.0,0.0,0.0,-0.1859,-0.2109,-0.274,-0.3157,-0.3371,-0.37,-0.4024,-0.431,-0.44,-0.4245,-0.3906,-0.3953,-0.3849,-0.3586,-0.3343,-0.311,-0.2856,-0.2522,0.0,0.0,0.0,0.0,0.0,-0.2211,-0.2549,0.0,-0.2772,-0.3066,-0.3438,0.0,0.0,0.0,0.0,-0.4373,-0.4957,-0.5187,-0.5819,-0.6391,-0.6264,-0.6449,-0.6535,-0.6083,0.0,0.0,0.0,0.0,0.0,0.0,0.0,0.0,0.0,0.0,0.0,0.0,0.0,0.0,0.0,0.0,0.0,0.0,0.0,0.0,0.0,0.0,0.0,0.0,-1.6966,-1.6724,-1.6004,-1.6516,-1.6803,-1.6803,-1.7138,-1.7138,-1.6803,-1.6661,-1.6158,-1.5377,-1.5232,-1.4706,0.0,0.0,0.0,-1.5179,-1.627,-1.6689,-1.6689,-1.6689,-1.6594,-1.6451,-1.6079,-1.5423,-1.4669,0.0,0.0,0.0,0.0,0.0,0.0,0.0,0.0,0.0,0.0,0.0,0.0,0.0,0.0,0.0,0.0,0.0,0.0,0.0,0.0,0.0,0.0,-0.1579,-0.1818,-0.1921,-0.2551,-0.2981,-0.3177,-0.3508,-0.3819,-0.4103,-0.4103,-0.3978,-0.3746,-0.3565,-0.3466,-0.3401,-0.3191,-0.2817,-0.2349,-0.2283,0.0,0.0,0.0,0.0,0.0,0.0,0.0,0.0,-0.3192,-0.3399,-0.3685,-0.3259,0.0,0.0,0.0,0.0,0.0,-0.5011,-0.5548,-0.6114,-0.6305,-0.6487,-0.6533,-0.6192,-0.6268,0.0,0.0,0.0,0.0,0.0,0.0,0.0,0.0,0.0,0.0,0.0,0.0,0.0,0.0,0.0,0.0,0.0,0.0,0.0,0.0,0.0,0.0,0.0,-1.5669,-1.5669,-1.4956,-1.5622,-1.5981,-1.5792,-1.6593,-1.6669,-1.6042,-1.5697,-1.508,-1.4205,-1.3882,-1.3609,0.0,0.0,0.0,-1.5054,-1.6064,-1.646,-1.6413,-1.6468,-1.6232,-1.5768,-1.5204,-1.4409,-1.3538,0.0,0.0,0.0,0.0,0.0,0.0,0.0,0.0,0.0,0.0,0.0,0.0,0.0,0.0,0.0,0.0,0.0,0.0,0.0,0.0,0.0,-0.0791,-0.1076,-0.1459,-0.1976,-0.2203,-0.2578,-0.3126,-0.3677,-0.3999,-0.4098,-0.4151,-0.3961,-0.3519,-0.3168,-0.3009,-0.2961,-0.2425,-0.2187,-0.2111,-0.1784,0.0,0.0,0.0,0.0,0.0,0.0,0.0,0.0,-0.3542,-0.3752,-0.392,-0.3799,0.0,0.0,0.0,0.0,0.0,-0.435,-0.4917,-0.5596,-0.5963,-0.616,-0.6183,-0.5776,-0.5892,0.0,0.0,0.0,0.0,0.0,0.0,0.0,0.0,0.0,0.0,0.0,0.0,0.0,0.0,0.0,0.0,0.0,0.0,0.0,0.0,0.0,0.0,0.0,0.0,-1.4908,-1.4094,-1.486,-1.4848,-1.4013,-1.4984,-1.5384,-1.5289,-1.5005,-1.4629,-1.4205,-1.3983,-1.3702,0.0,0.0,-1.4517,-1.4566,-1.5291,-1.5427,-1.5205,-1.5479,-1.5047,-1.4252,-1.4434,-1.382,-1.2747,0.0,0.0,0.0,0.0,0.0,0.0,0.0,0.0,0.0,0.0,0.0,0.0,0.0,0.0,0.0,0.0,0.0,0.0,0.0,0.0,-0.0639,-0.0387,-0.0605,-0.0907,-0.1292,-0.1782,-0.2156,-0.2389,-0.3122,-0.3516,-0.3607,-0.3711,-0.3533,-0.3113,-0.3046,-0.2905,-0.2694,-0.2175,-0.1927,-0.1845,0.0,0.0,0.0,0.0,0.0,0.0,0.0,0.0,0.0,0.0,-0.4104,-0.4276,-0.3997,0.0,0.0,0.0,0.0,0.0,-0.4302,-0.4624,-0.508,-0.5515,-0.5925,-0.6133,-0.5602,-0.5973,-0.6421,0.0,0.0,0.0,0.0,0.0,0.0,0.0,0.0,0.0,0.0,0.0,0.0,0.0,0.0,0.0,0.0,0.0,0.0,0.0,0.0,0.0,0.0,0.0,-1.3939,-1.309,-1.3892,-1.3838,-1.2974,-1.3315,-1.3671,-1.4084,-1.3961,-1.3538,-1.2837,-1.2765,-1.279,-1.2881,0.0,-1.4062,-1.444,-1.5124,-1.5027,-1.4422,-1.4563,-1.4056,-1.3239,-1.2999,-1.2541,-1.1813,0.0,0.0,0.0,0.0,0.0,0.0,0.0,0.0,0.0,0.0,0.0,0.0,0.0,0.0,0.0,0.0,0.0,0.0,0.0,-0.0487,-0.0471,0.0,-0.0143,-0.0429,-0.083,-0.1392,-0.1738,-0.1919,-0.255,-0.2945,-0.313,-0.3236,-0.3085,-0.2743,-0.2855,-0.2756,-0.2459,-0.1985,-0.1734,-0.1645,0.0,0.0,0.0,0.0,0.0,0.0,0.0,0.0,0.0,0.0,0.0,0.0,0.0,0.0,0.0,-0.4204,-0.4342,-0.4504,-0.4487,-0.4624,-0.4841,-0.5181,-0.564,-0.5906,-0.5501,-0.6164,-0.6621,0.0,0.0,0.0,0.0,0.0,0.0,0.0,0.0,0.0,0.0,0.0,0.0,0.0,0.0,0.0,0.0,0.0,0.0,0.0,0.0,0.0,0.0,0.0,-1.2978,-1.2328,-1.2931,-1.2903,-1.2248,-1.2059,-1.2308,-1.2945,-1.2887,-1.2451,-1.1698,-1.1639,-1.1991,-1.2662,-1.3009,-1.3639,-1.444,-1.479,-1.4434,-1.3649,-1.3757,-1.3239,-1.2387,-1.1708,-1.1312,-1.1059,0.0,0.0,0.0,0.0,0.0,0.0,0.0,0.0,0.0,0.0,0.0,0.0,0.0,0.0,0.0,0.0,0.0,0.0,0.0,-0.0319,-0.0134,0.0336,0.0297,-0.0219,-0.1245,-0.1066,-0.1392,-0.2261,-0.2395,-0.2612,-0.2926,-0.2922,-0.2778,-0.2509,-0.2401,-0.227,-0.2112,-0.1634,-0.1496,-0.1566,-0.1112,0.0,0.0,0.0,0.0,0.0,0.0,0.0,0.0,0.0,0.0,0.0,0.0,0.0,-0.4706,-0.4525,-0.4661,-0.4852,-0.4792,-0.4992,-0.5225,-0.5137,-0.5162,-0.5241,-0.5431,-0.6222,-0.6674,-0.5966,0.0,0.0,0.0,0.0,0.0,0.0,0.0,0.0,0.0,0.0,0.0,0.0,0.0,0.0,0.0,0.0,0.0,0.0,0.0,0.0,0.0,0.0,0.0,-1.2121,-1.2162,-1.2064,-1.1752,-1.1736,-1.1878,-1.218,-1.1918,-1.1759,-1.1693,-1.1434,-1.2049,-1.3307,-1.2705,-1.3209,-1.4356,-1.3773,-1.3191,-1.263,-1.2932,-1.2538,-1.1662,-1.095,-1.0654,-1.0608,0.0,0.0,0.0,0.0,0.0,0.0,0.0,0.0,0.0,0.0,0.0,0.0,0.0,0.0,0.0,0.0,0.0,0.0,0.0,-0.0134,0.0,0.0387,0.0415,0.0136,-0.0483,-0.072,-0.1022,-0.1356,-0.1888,-0.2301,-0.2587,-0.2539,-0.2441,-0.2314,-0.2296,-0.2066,-0.166,-0.1438,-0.1154,-0.0863,-0.088,-0.1052,0.0,0.0,0.0,0.0,0.0,0.0,0.0,0.0,-0.4443,-0.4686,-0.4642,-0.4611,-0.46,-0.4576,-0.4615,-0.4677,-0.4815,-0.5006,-0.522,-0.548,-0.5385,-0.525,-0.5288,-0.6055,-0.6569,-0.5884,-0.6227,0.0,0.0,0.0,0.0,0.0,0.0,0.0,0.0,0.0,0.0,0.0,0.0,0.0,0.0,0.0,0.0,0.0,0.0,0.0,0.0,0.0,0.0,-1.1618,-1.1752,-1.172,-1.1439,-1.1332,-1.13,-1.1429,-1.1451,-1.1439,-1.1434,-1.1348,-1.186,-1.2747,-1.2491,-1.2918,-1.3753,-1.332,-1.2685,-1.1958,-1.1335,-1.0981,-1.079,-1.0323,-1.034,-1.0538,0.0,0.0,0.0,0.0,0.0,0.0,0.0,0.0,0.0,0.0,0.0,0.0,0.0,0.0,0.0,0.0,0.0,0.0,0.0319,0.0235,0.0319,0.0672,0.0685,0.0559,0.0268,-0.0182,-0.055,-0.0798,-0.155,-0.2009,-0.221,-0.2236,-0.2178,-0.2085,-0.2137,-0.1823,-0.1242,-0.1071,-0.0749,-0.0343,-0.0531,-0.0806,0.0,0.0,0.0,0.0,0.0,0.0,0.0,0.0,-0.4361,-0.465,-0.4636,-0.4577,-0.4512,-0.4563,-0.4556,-0.4615,-0.4874,-0.5069,-0.5295,-0.5652,-0.5647,-0.56,-0.5788,-0.6316,-0.6645,-0.6217,-0.6395,-0.6798,0.0,0.0,0.0,0.0,0.0,0.0,0.0,0.0,0.0,0.0,0.0,0.0,0.0,0.0,0.0,0.0,0.0,0.0,0.0,0.0,0.0,0.0,-1.1278,-1.1246,-1.1085,-1.0955,-1.0875,-1.0875,-1.1005,-1.108,-1.1085,-1.116,-1.1614,-1.2288,-1.212,-1.2407,-1.2951,-1.2545,-1.1933,-1.1192,-1.0264,-1.0024,-1.0153,-0.9981,-1.0088,-1.0324,0.0,0.0,0.0,0.0,0.0,0.0,0.0,0.0,0.0,0.0,0.0,0.0,0.0,0.0,0.0,0.0,0.0,0.0,0.0858,0.0774,0.0875,0.1279,0.1175,0.1002,0.0806,0.0537,0.0,-0.0794,-0.1396,-0.1724,-0.1796,-0.1989,-0.1984,-0.1798,-0.1872,-0.1514,-0.0873,-0.0537,-0.0313,-0.0179,-0.0045,-0.0449,-0.1119,0.0,0.0,0.0,0.0,0.0,0.0,0.0,-0.4331,-0.4494,-0.4495,-0.4494,-0.4498,-0.4495,-0.4591,-0.474,-0.4953,-0.5236,-0.5514,-0.5583,0.0,0.0,-0.7041,-0.7038,-0.6917,-0.6953,-0.6984,-0.7212,-0.7785,0.0,0.0,0.0,0.0,0.0,0.0,0.0,0.0,0.0,0.0,0.0,0.0,0.0,0.0,0.0,0.0,0.0,0.0,0.0,0.0,0.0,-1.0597,-1.0597,-1.0592,-1.0592,-1.0592,-1.0592,-1.0587,-1.0592,-1.0603,-1.0875,-1.1358,-1.1951,-1.1492,-1.1544,-1.194,-1.1269,-1.0708,-1.0266,-1.0019,-0.9884,-0.9884,-0.9884,-0.9884,-0.9884,0.0,0.0,0.0,0.0,0.0,0.0,0.0,0.0,0.0,0.0,0.0,0.0,0.0,0.0,0.0,0.0,0.0,0.0,0.0877,0.0907,0.1067,0.1429,0.135,0.1138,0.0746,0.0368,-0.0101,-0.0741,-0.0865,-0.1081,-0.1379,-0.138,-0.1406,-0.1457,-0.1612,-0.1223,-0.0403,-0.0447,-0.0067,0.0539,0.0157,-0.0269,-0.0738,0.0,0.0,0.0,0.0,0.0,0.0,0.0,0.0,0.0,-0.4362,-0.442,-0.4429,-0.4435,-0.4763,-0.5135,-0.5197,-0.5498,0.0,-0.6045,0.0,0.0,0.0,-0.695,0.0,0.0,-0.7114,-0.8023,0.0,0.0,0.0,0.0,0.0,0.0,0.0,0.0,0.0,0.0,0.0,0.0,0.0,0.0,0.0,0.0,0.0,0.0,0.0,0.0,0.0,0.0,-1.0512,-1.0517,-1.0396,-1.0396,-1.0396,-1.0396,-1.0218,-1.027,-1.0597,-1.0667,-1.0822,-1.1026,-1.0857,-1.0887,-1.0969,-1.0643,-1.0315,-1.0024,-0.9949,-0.9884,-0.9884,-0.9884,-0.9884,-0.9884,0.0,0.0,0.0,0.0,0.0,0.0,0.0,0.0,0.0,0.0,0.0834,0.0695,0.0,0.0,0.0,0.0,0.0,0.0,0.0,0.1265,0.1438,0.1886,0.1736,0.1436,0.0995,0.0482,0.0072,-0.0265,-0.0447,-0.0687,-0.1001,-0.1106,-0.1137,-0.1142,-0.1412,-0.1,-0.0134,-0.0159,0.0228,0.0856,0.048,0.0046,-0.0449,0.0,0.0,0.0,0.0,0.0,0.0,0.0,0.0,0.0,-0.4238,-0.4321,-0.433,-0.4443,-0.4833,-0.5228,-0.5318,-0.5648,0.0,-0.629,-0.6472,-0.6698,-0.7089,0.0,0.0,0.0,0.0,0.0,0.0,0.0,0.0,0.0,0.0,0.0,0.0,0.0,0.0,0.0,0.0,0.0,0.0,0.0,0.0,0.0,0.0,0.0,0.0,0.0,0.0,0.0,-1.0277,-1.0243,-1.0148,-1.0143,-1.0143,-1.0143,-0.9992,-1.0034,-1.0313,-1.0415,-1.0498,-1.0498,-1.0498,-1.0498,-1.0442,-1.0245,-1.0056,-0.9884,-0.9884,-0.9884,-0.9933,-1.003,-1.0067,-1.0067,0.0,0.0,0.0,0.0,0.0,0.0,0.0,0.0,0.0,0.0,0.0808,0.0661,0.0,0.0,0.0,0.0,0.0,0.0,0.0,0.1727,0.1887,0.2462,0.2152,0.179,0.1386,0.0763,0.0427,0.0405,-0.0097,-0.0458,-0.0652,-0.0979,-0.1021,-0.0875,-0.1188,-0.0837,0.0023,0.0233,0.0558,0.0906,0.0865,0.044,-0.0225,-0.0911,0.0,0.0,0.0,0.0,0.0,0.0,0.0,0.0,-0.4056,-0.4165,-0.425,-0.4496,-0.4831,-0.5167,-0.5325,0.0,0.0,-0.6359,-0.6704,0.0,0.0,0.0,0.0,0.0,0.0,0.0,0.0,0.0,0.0,0.0,0.0,0.0,0.0,0.0,0.0,0.0,0.0,0.0,0.0,0.0,0.0,0.0,0.0,0.0,0.0,0.0,0.0,0.0,-0.9884,-0.9884,-0.9884,-0.9884,-0.9884,0.0,-0.9884,-0.9884,-0.9889,-1.0153,-1.0261,-1.0261,-1.0261,-1.0261,-1.0245,-1.0013,-0.9884,-0.9884,-0.9884,-0.9884,-0.9949,-1.0175,-1.0261,-1.0261,0.0,0.0,0.0,0.0,0.0,0.0,0.0,0.0,0.0,0.0,0.0,0.0,0.0,0.0,0.0,0.0,0.0,0.0,0.0,0.1849,0.2043,0.2329,0.1976,0.1572,0.1163,0.092,0.0697,0.0472,0.0206,-0.0069,-0.0315,-0.0499,-0.0566,-0.0584,-0.0657,-0.0438,0.0023,0.0435,0.0782,0.1056,0.1146,0.0768,0.0045,-0.0565,-0.125,0.0,0.0,0.0,0.0,0.0,0.0,0.0,-0.3684,-0.3941,-0.4154,-0.4264,-0.4778,-0.529,-0.5058,-0.5575,0.0,0.0,-0.7012,0.0,0.0,0.0,0.0,0.0,0.0,0.0,0.0,0.0,0.0,0.0,0.0,0.0,0.0,0.0,0.0,0.0,0.0,0.0,0.0,0.0,0.0,0.0,0.0,0.0,0.0,0.0,0.0,-0.9884,-0.9884,-0.9884,-0.9884,-0.9884,-0.9884,0.0,-0.9884,-0.9884,-0.9884,-0.9976,-1.0003,-1.0003,-1.0003,-1.0003,-0.9997,-0.9943,-0.9884,-0.9884,-0.9884,-0.9884,-0.9927,-0.9981,-1.0003,-1.0003,0.0,0.0,0.0,0.0,0.0,0.0,0.0,0.0,0.0,0.0,0.0,0.0,0.0,0.0,0.0,0.0,0.0,0.0,0.0,0.0,0.1826,0.2002,0.1692,0.1402,0.1208,0.0853,0.0607,0.0494,0.0292,0.0135,-0.0022,-0.0138,-0.0185,-0.0162,-0.033,-0.012,0.0367,0.0721,0.0982,0.1168,0.1358,0.0992,0.0225,-0.0491,-0.1141,-0.1824,-0.2684,0.0,0.0,0.0,0.0,0.0,0.0,0.0,-0.409,-0.4372,-0.4835,-0.525,-0.5148,0.0,0.0,-0.644,0.0,0.0,0.0,0.0,0.0,0.0,0.0,0.0,0.0,0.0,0.0,0.0,0.0,0.0,0.0,0.0,0.0,0.0,0.0,0.0,0.0,0.0,0.0,0.0,0.0,0.0,0.0,-0.9863,-0.9868,-0.976,-0.9863,-0.9884,-0.9884,-0.9884,-0.9884,-0.9884,-0.9884,-0.9884,-0.9884,-0.9884,-0.9884,-0.9884,-0.9884,-0.9884,-0.9884,-0.9884,-0.9884,-0.9884,-0.9884,-0.9992,-1.011,-1.0184,-1.0222,-1.0222,0.0,0.0,0.0,0.0,0.0,0.0,0.0,0.0,0.0,0.0,0.0,0.0,0.0,0.0,0.0,0.0,0.0,0.0,0.0,0.0,0.0,0.1505,0.1363,0.1254,0.1142,0.0674,0.045,0.0494,0.036,0.0271,0.0273,0.0071,0.0048,0.0217,-0.005,0.0152,0.0747,0.1112,0.1276,0.132,0.1579,0.1219,0.0444,-0.0323,-0.1003,-0.1663,-0.2587,-0.2948,-0.3059,-0.3428,0.0,0.0,0.0,0.0,-0.4055,-0.4528,-0.4843,-0.511,-0.5325,0.0,-0.5988,-0.6563,0.0,0.0,0.0,0.0,0.0,0.0,0.0,0.0,0.0,0.0,0.0,0.0,0.0,0.0,0.0,0.0,0.0,0.0,0.0,0.0,0.0,0.0,0.0,0.0,0.0,0.0,-0.9464,-0.959,-0.9606,-0.9458,-0.9745,-0.9884,-0.9884,-0.9884,-0.9884,-0.9884,-0.9879,-0.9847,-0.9803,-0.9798,-0.9804,-0.9884,-0.9884,-0.9884,-0.9884,-0.9884,-0.9884,-0.9884,-0.9884,-1.0007,-1.0144,-1.0453,-1.0493,-1.0458,0.0,0.0,0.0,0.0,0.0,0.0,0.0,0.0,0.0,0.0,0.0501,0.0,0.0,0.0,0.0,0.0,0.0,0.0,0.0,0.0,0.0,0.0687,0.1071,0.1054,0.0539,0.0494,0.0494,0.0494,0.0584,0.0595,0.0545,0.0048,0.0,0.0275,0.0302,0.0496,0.0829,0.1566,0.1788,0.1663,0.1852,0.1572,0.094,0.0369,-0.0429,-0.134,-0.1991,-0.2574,-0.305,-0.3324,-0.333,0.0,0.0,0.0,-0.3928,-0.4395,-0.472,-0.496,0.0,0.0,-0.624,0.0,0.0,0.0,0.0,0.0,0.0,0.0,0.0,0.0,0.0,0.0,0.0,0.0,0.0,0.0,0.0,0.0,0.0,0.0,0.0,0.0,0.0,0.0,0.0,0.0,0.0,0.0,-0.8775,-0.8836,-0.8841,-0.8812,-0.9523,-0.9884,-0.9884,-0.9884,-0.9884,-0.9879,-0.9717,-0.9548,-0.9382,-0.931,-0.9529,-0.9884,-0.9884,-0.9884,-0.9884,-0.9884,-0.9884,-0.9884,-0.9884,-0.9716,-0.9512,-1.0133,-1.014,-0.9879,0.0,0.0,0.0,0.0,0.0,0.0,0.0,0.0,0.0,0.0,0.0,0.0691,0.0,0.0,0.0,0.0,0.0,0.0,0.0,0.0,0.0,0.0407,0.0657,0.0626,0.0232,0.0296,0.036,0.045,0.0427,0.0488,0.0591,0.0197,0.0251,0.0651,0.0744,0.09,0.1122,0.1687,0.188,0.1814,0.1986,0.1519,0.0699,0.0528,-0.0265,-0.1352,-0.1709,-0.2155,-0.2665,-0.3086,-0.3275,-0.3377,-0.3806,0.0,0.0,0.0,-0.4647,0.0,-0.516,-0.5582,-0.5972,0.0,0.0,0.0,0.0,0.0,0.0,0.0,0.0,0.0,0.0,0.0,0.0,0.0,0.0,0.0,0.0,0.0,0.0,0.0,0.0,0.0,0.0,0.0,0.0,0.0,0.0,-0.7526,-0.7623,-0.7812,-0.7829,-0.765,-0.807,-0.8271,-0.8152,-0.8454,-0.8568,-0.849,-0.811,-0.7893,-0.7897,-0.7794,-0.8411,-0.9576,-0.9676,-0.9654,-0.9544,-0.9544,-0.9544,-0.9549,-0.9311,-0.9545,-1.0021,-1.0121,-1.0157,-1.0253,0.0,0.0,0.0,0.0,0.0,0.0,0.0,0.0,0.0,0.0,0.0,0.0,0.0,0.0,0.0,0.0,0.0,0.0,0.0,0.0,0.0,0.0149,0.0195,0.0145,-0.0024,0.0093,0.0228,0.0365,0.0339,0.0421,0.0605,0.0428,0.0519,0.0849,0.103,0.119,0.1382,0.1858,0.2047,0.2022,0.1906,0.1319,0.0507,0.0247,-0.0545,-0.1529,-0.1663,-0.2044,-0.2551,-0.2936,-0.3229,-0.348,-0.3839,-0.3869,0.0,0.0,0.0,0.0,0.0,0.0,-0.5597,0.0,0.0,0.0,0.0,0.0,0.0,0.0,0.0,0.0,0.0,0.0,0.0,0.0,0.0,0.0,0.0,0.0,0.0,0.0,0.0,0.0,0.0,0.0,0.0,0.0,0.0,-0.6726,-0.6595,-0.6821,-0.6841,-0.6584,-0.6867,-0.6967,-0.6817,-0.7145,-0.7291,-0.7181,-0.671,-0.6533,-0.6603,-0.6487,-0.7176,-0.8463,-0.8729,-0.8882,-0.8899,-0.8899,-0.9013,-0.9132,-0.8932,-0.9364,-1.0102,-1.0073,-1.0211,-1.0476,0.0,0.0,0.0,0.0,0.0,0.0,0.0,0.0,0.0,0.0,0.0,0.0,0.1082,0.1212,0.131,0.1308,0.1245,0.0,0.0,0.0,0.0,-0.0335,-0.0297,0.0,-0.0377,-0.0121,0.0119,0.031,0.055,0.0656,0.0605,0.0706,0.0747,0.0732,0.0995,0.1247,0.1532,0.2182,0.2445,0.2293,0.1552,0.1098,0.0732,-0.0611,-0.1374,-0.1801,-0.193,-0.2402,-0.2973,-0.2987,-0.3222,-0.3529,-0.3753,-0.3818,0.0,0.0,0.0,0.0,0.0,-0.5024,0.0,0.0,0.0,0.0,0.0,0.0,0.0,0.0,0.0,0.0,0.0,0.0,0.0,0.0,0.0,0.0,0.0,0.0,0.0,0.0,0.0,0.0,0.0,0.0,0.0,0.0,0.0,-0.5226,-0.5907,-0.595,-0.595,-0.5936,-0.65,-0.6817,-0.6817,-0.6718,-0.6651,-0.6647,-0.6371,-0.617,-0.6029,-0.597,-0.6006,-0.618,-0.6643,-0.7256,-0.7897,-0.7897,-0.8203,-0.878,-0.9132,-0.9065,-0.8913,-0.9912,-1.0166,-1.0121,0.0,0.0,0.0,0.0,0.0,0.0,0.0,0.0,0.0,0.0,0.0,0.0,0.0,0.1507,0.1574,0.1513,0.1282,0.0,0.0,0.0,0.0,-0.0124,-0.0275,-0.0302,-0.0151,-0.005,0.0171,0.05,0.0588,0.0633,0.0601,0.0548,0.0553,0.0576,0.0999,0.1276,0.1543,0.1973,0.2304,0.245,0.1521,0.0848,0.0348,-0.0032,0.0,0.0,0.0,0.0,0.0,-0.2777,-0.2985,-0.3172,-0.3466,0.0,0.0,0.0,0.0,0.0,0.0,0.0,0.0,0.0,0.0,0.0,0.0,0.0,0.0,0.0,0.0,0.0,0.0,0.0,0.0,0.0,0.0,0.0,0.0,0.0,0.0,0.0,0.0,0.0,0.0,0.0,0.0,0.0,0.0,0.0,-0.4568,-0.4598,-0.457,-0.4417,-0.464,-0.4827,-0.4997,-0.4607,-0.458,-0.4867,-0.4467,-0.4306,-0.4383,-0.4227,-0.4272,-0.4458,-0.4539,-0.5395,-0.6697,-0.6697,-0.6874,-0.7088,-0.713,-0.7463,-0.796,-0.8229,-0.8493,-0.8724,0.0,0.0,0.0,0.0,0.0,0.0,0.0,0.0,0.0,0.1408,0.0,0.0,0.0,0.0,0.1662,0.146,0.1269,0.0996,0.0556,0.0281,0.0103,0.0,-0.0158,-0.0158,-0.0026,0.018,0.0428,0.0655,0.0688,0.0667,0.0596,0.0455,0.0422,0.0463,0.0834,0.1187,0.1494,0.2001,0.2403,0.2582,0.0,0.0,0.0661,0.0,0.0,0.0,0.0,0.0,0.0,0.0,0.0,0.0,0.0,0.0,0.0,0.0,0.0,0.0,-0.4045,0.0,0.0,0.0,0.0,0.0,0.0,0.0,0.0,0.0,0.0,0.0,0.0,0.0,0.0,0.0,0.0,0.0,0.0,0.0,0.0,0.0,0.0,0.0,0.0,0.0,0.0,0.0,0.0,0.0,-0.3801,-0.3859,-0.3751,-0.3549,-0.3544,-0.3588,-0.3661,-0.3331,-0.3314,-0.3636,-0.3348,-0.3261,-0.3395,-0.3261,-0.3292,-0.3453,-0.3418,-0.425,-0.5607,-0.5607,-0.5765,-0.6005,-0.596,-0.6447,-0.716,-0.7149,-0.7466,-0.7931,0.0,0.0,0.0,0.0,0.0,0.0,0.0,0.0,0.1812,0.19,0.0,0.0,0.0,0.0,0.0,0.1142,0.1226,0.105,0.0455,0.0156,0.0,0.0027,0.0,0.0,-0.0053,0.056,0.0865,0.0808,0.0868,0.0808,0.0616,0.0461,0.0367,0.031,0.0526,0.091,0.1449,0.2323,0.278,0.2758,0.0,0.0956,0.168,0.0,0.0,0.0,-0.1008,-0.1609,0.0,0.0,0.0,0.0,0.0,0.0,0.0,0.0,0.0,0.0,0.0,0.0,0.0,0.0,0.0,0.0,0.0,0.0,0.0,0.0,0.0,0.0,0.0,0.0,0.0,0.0,0.0,0.0,0.0,0.0,0.0,0.0,0.0,0.0,0.0,0.0,0.0,0.0,0.0,-0.3866,-0.3792,-0.3787,-0.3675,-0.3384,-0.3382,-0.3269,-0.3015,-0.308,-0.3093,-0.3091,-0.3183,-0.3192,-0.3192,-0.3192,-0.3192,-0.3198,-0.3354,-0.3855,-0.4563,-0.4563,-0.4966,-0.5559,-0.5917,-0.6173,-0.6479,-0.6813,-0.7275,-0.77,0.0,0.0,0.0,0.0,0.0,0.0,0.204,0.189,0.1828,0.0,0.0,0.0,0.1971,0.1884,0.1668,0.1283,0.1279,0.1076,0.0581,0.0306,0.023,0.0435,0.0161,0.0271,0.0746,0.0765,0.0924,0.1313,0.1133,0.0976,0.0814,0.0684,0.0567,0.0479,0.0894,0.1238,0.1498,0.1997,0.0,0.2795,0.0741,0.0213,0.0,0.0,0.0,0.0,0.0,-0.2027,-0.2264,0.0,-0.2673,-0.2213,0.0,0.0,0.0,0.0,0.0,0.0,-0.3082,0.0,0.0,0.0,0.0,0.0,0.0,0.0,0.0,0.0,0.0,0.0,0.0,0.0,0.0,0.0,0.0,0.0,0.0,0.0,0.0,0.0,0.0,0.0,0.0,0.0,0.0,0.0,-0.3596,-0.3527,-0.3294,-0.3288,-0.3245,-0.3189,-0.3187,-0.3109,-0.3015,-0.3109,-0.3154,-0.3091,-0.3183,-0.3192,-0.3192,-0.3192,-0.3192,-0.3194,-0.3252,-0.3471,-0.3791,-0.3791,-0.3916,-0.4121,-0.4345,-0.4511,-0.4644,-0.4954,-0.5327,-0.5654,0.0,0.0,0.0,0.0,0.0,0.0,0.2349,0.2252,0.2266,0.0,0.0,0.0,0.2081,0.2104,0.1931,0.1339,0.1296,0.1102,0.0675,0.0378,0.0324,0.0621,0.044,0.0604,0.1173,0.1102,0.1269,0.1679,0.1444,0.1212,0.0974,0.0847,0.0727,0.0635,0.1037,0.1289,0.1401,0.0,0.0,0.0,0.0508,0.0,0.0,-0.1246,-0.206,0.0,0.0,0.0,-0.2332,-0.3095,-0.2821,0.0,0.0,0.0,0.0,0.0,0.0,0.0,0.0,0.0,0.0,0.0,0.0,0.0,0.0,-0.3601,0.0,0.0,0.0,0.0,0.0,0.0,0.0,0.0,0.0,0.0,0.0,0.0,0.0,0.0,0.0,0.0,0.0,0.0,0.0,-0.3314,-0.329,-0.3236,-0.3091,-0.3091,-0.3091,-0.3091,-0.3086,-0.3038,-0.3015,-0.3092,-0.3105,-0.3091,-0.3183,-0.3192,-0.3192,-0.3192,-0.3192,-0.3194,-0.3267,-0.3322,-0.3389,-0.3428,-0.3487,-0.3546,-0.3613,-0.3737,-0.3927,-0.4036,-0.4339,-0.4669,0.0,0.0,0.0,0.2797,0.2712,0.2609,0.2545,0.2685,0.2842,0.0,0.2862,0.2696,0.2418,0.2446,0.2184,0.1454,0.1336,0.1149,0.077,0.0415,0.0385,0.0681,0.0799,0.1009,0.133,0.1536,0.1758,0.197,0.1802,0.1539,0.1178,0.1035,0.0934,0.0872,0.1015,0.0,0.1236,0.0,0.0,0.2647,0.0336,0.0338,0.0,0.0,-0.1389,0.0,-0.1835,-0.218,-0.2338,-0.3156,-0.3097,0.0,0.0,0.0,0.0,0.0,-0.1939,0.0,0.0,0.0,0.0,0.0,0.0,0.0,-0.3407,-0.3297,-0.3119,0.0,0.0,0.0,0.0,0.0,0.0,0.0,0.0,0.0,0.0,0.0,0.0,0.0,0.0,0.0,0.0,-0.3138,-0.3115,-0.3144,-0.3032,-0.302,-0.3099,-0.3095,-0.3095,-0.3105,-0.3057,-0.3016,-0.3016,-0.3016,-0.3057,-0.3105,-0.3187,-0.3192,-0.3192,-0.3192,-0.3192,-0.3198,-0.3358,-0.3324,-0.3229,-0.3368,-0.345,-0.353,-0.3409,-0.356,-0.3852,-0.3775,-0.4012,-0.4329,0.0,0.0,0.0,0.0,0.3088,0.2873,0.2755,0.2772,0.2818,0.2825,0.2724,0.2752,0.3012,0.2556,0.2172,0.1976,0.1601,0.1251,0.0947,0.0643,0.052,0.0704,0.1008,0.1336,0.162,0.1811,0.2058,0.231,0.2007,0.1761,0.1588,0.1388,0.1272,0.1185,0.1125,0.1206,0.0,0.0,0.0,0.118,0.0538,0.0,0.0428,-0.1117,-0.217,-0.2838,-0.2931,-0.2691,-0.2383,0.0,-0.2451,-0.2423,0.0,0.0,0.0,0.0,0.0,0.0,0.0,0.0,0.0,0.0,0.0,0.0,-0.3331,-0.3215,-0.3094,0.0,0.0,0.0,0.0,0.0,0.0,0.0,0.0,0.0,0.0,0.0,0.0,0.0,0.0,0.0,0.0,-0.3101,-0.3038,-0.2883,-0.2843,-0.2954,-0.3154,-0.313,-0.3124,-0.3164,-0.3183,-0.3173,-0.3173,-0.3173,-0.3183,-0.3168,-0.3184,-0.3192,-0.3192,-0.3192,-0.3192,-0.3198,-0.3358,-0.343,-0.3442,-0.3422,-0.334,-0.3267,-0.3233,-0.3354,-0.3493,-0.3549,-0.3749,-0.4007,0.0,0.0,0.0,0.0,0.0,0.0,0.3028,0.2964,0.3022,0.3339,0.3151,0.3127,0.3408,0.2967,0.2582,0.2461,0.1951,0.1558,0.135,0.0824,0.0626,0.089,0.1056,0.1323,0.1702,0.1893,0.2141,0.244,0.2289,0.2061,0.1795,0.182,0.148,0.0885,0.1562,0.1574,0.0,0.0,0.1702,0.1767,0.0196,0.0,-0.0791,-0.2121,-0.2994,-0.3438,-0.3479,-0.3329,-0.3035,-0.2722,-0.2276,0.0,0.0,-0.1732,-0.1516,0.0,-0.1498,-0.1887,0.0,0.0,0.0,-0.2059,0.0,0.0,0.0,-0.2867,0.0,0.0,0.0,0.0,0.0,0.0,0.0,0.0,0.0,0.0,0.0,0.0,0.0,0.0,0.0,0.0,0.0,-0.2985,-0.2903,-0.277,-0.2772,-0.2873,-0.3081,-0.3007,-0.3042,-0.3188,-0.3138,-0.3134,-0.3192,-0.3181,-0.3181,-0.3192,-0.3192,-0.3192,-0.3192,-0.3192,-0.3252,-0.3297,-0.3379,-0.3451,-0.3497,-0.345,-0.3405,-0.3354,-0.3229,-0.3283,-0.341,-0.3467,-0.3591,-0.3753,0.2895,0.0,0.0,0.0,0.0,0.0,0.3334,0.3217,0.3315,0.3999,0.3544,0.3249,0.343,0.2837,0.232,0.2174,0.1656,0.1361,0.1341,0.0777,0.0565,0.0812,0.1111,0.1375,0.1538,0.1973,0.2345,0.2675,0.2568,0.2412,0.2128,0.2287,0.1845,0.0887,0.1775,0.1777,0.0,0.0,0.0,0.2082,0.0,-0.0992,-0.1064,-0.2418,-0.303,-0.3191,-0.3518,-0.3567,-0.3466,-0.2938,0.0,-0.1301,-0.1753,-0.1431,0.0,0.0,0.0,0.0,0.0,0.0,0.0,0.0,0.0,-0.205,0.0,0.0,0.0,0.0,0.0,0.0,0.0,0.0,0.0,0.0,0.0,0.0,0.0,0.0,0.0,0.0,0.0,0.0,0.0,-0.2847,-0.2768,-0.2721,-0.2801,-0.2889,-0.3007,-0.2915,-0.2954,-0.3186,-0.3133,-0.3135,-0.3252,-0.3179,-0.3179,-0.3252,-0.3252,-0.3252,-0.3254,-0.3237,-0.332,-0.3426,-0.3443,-0.3456,-0.3524,-0.3524,-0.3524,-0.3505,-0.3324,-0.3299,-0.341,-0.3467,-0.3542,-0.362,0.2912,0.2752,0.0,0.0,0.0,0.0,0.3638,0.3521,0.3596,0.427,0.3166,0.2415,0.2623,0.0945,0.0,-0.0215,0.0,0.0,0.0072,0.0,0.0109,-0.0218,0.1409,0.0,0.1004,0.2225,0.3025,0.3302,0.2875,0.2777,0.2963,0.2748,0.2608,0.2487,0.1212,0.0,0.0,0.0,0.008,0.0,0.008,0.0708,0.0,-0.0042,-0.1128,-0.2007,-0.2754,-0.2795,-0.2437,0.0,-0.1269,-0.0802,0.0,-0.0711,0.0,0.0,0.0,0.0,0.0,0.0,0.0,0.0,-0.114,0.0,0.0,0.0,0.0,0.0,0.0,0.0,0.0,0.0,0.0,0.0,0.0,0.0,0.0,0.0,0.0,0.0,0.0,0.0,0.0,0.0,-0.2794,-0.2784,-0.2921,-0.301,-0.3071,-0.3066,-0.3111,-0.319,-0.3285,-0.3362,-0.3383,-0.3373,-0.3373,-0.3383,-0.3383,-0.3383,-0.3385,-0.3432,-0.3475,-0.3489,-0.3565,-0.3564,-0.3574,-0.3574,-0.3574,-0.3558,-0.3418,-0.3389,-0.341,-0.3467,-0.3505,-0.355,0.3086,0.2909,0.0,0.0,0.0,0.0,0.0,0.4279,0.4513,0.4667,0.4044,0.3536,0.0,0.0,0.0,0.0,0.0,0.0558,0.0,0.0,0.0641,0.0,0.0,0.0,0.0,0.2849,0.3355,0.3583,0.3191,0.3075,0.3286,0.3287,0.2883,0.2154,0.1675,0.0,0.1265,0.0,0.0,0.0,0.0,0.0,0.0,-0.0167,-0.1235,-0.1914,-0.272,-0.2758,-0.2321,0.0,-0.0677,0.0,0.0,0.0,0.0,0.0,0.0,0.0,0.0,0.0,0.0,0.0,0.0,0.0,0.0,0.0,-0.1686,0.0,0.0,0.0,0.0,0.0,0.0,0.0,0.0,0.0,0.0,0.0,0.0,0.0,0.0,0.0,0.0,0.0,0.0,0.0,0.0,-0.2919,-0.3038,-0.3043,-0.3077,-0.3188,-0.3262,-0.3112,-0.27,-0.3211,-0.3236,-0.2765,-0.3238,-0.3442,-0.3444,-0.3483,-0.3526,-0.3575,-0.3572,-0.3656,-0.3705,-0.3705,-0.3705,-0.3693,-0.3565,-0.3454,-0.341,-0.3467,-0.3532,-0.3603,0.3353,0.0,0.0,0.0,0.0,0.0,0.0,0.0,0.0,0.0,0.0,0.0,0.3986,0.3399,0.0,0.0,0.0626,0.0513,0.0,0.0,0.0737,0.0,0.0,0.0,0.0,0.0,0.0,0.3886,0.3553,0.3485,0.3668,0.3762,0.3287,0.2293,0.0,0.1727,0.0808,0.0,0.0,0.1362,0.0255,0.0389,0.1054,-0.0533,-0.1348,-0.1685,-0.2156,-0.2117,-0.1648,-0.0553,0.024,0.0,0.0199,0.0,0.0,0.0,0.0,0.0,0.0927,0.0,0.0,0.0,0.0,0.0,0.0,0.0,0.0,0.0,0.0,0.0,0.0,0.0,0.0,0.0,0.0,0.0,0.0,0.0,0.0,0.0,0.0,0.0,0.0,0.0,0.0,0.0,0.0,0.0,-0.2981,-0.301,-0.3096,-0.3188,-0.325,-0.3025,-0.2547,-0.3146,-0.319,-0.2653,-0.3215,-0.3514,-0.3536,-0.356,-0.3605,-0.3665,-0.3665,-0.3701,-0.3802,-0.3802,-0.3802,-0.3795,-0.3689,-0.3585,-0.3517,-0.3548,-0.3628,-0.3726,0.382,0.3451,0.0,0.0,0.0,0.0,0.0,0.0,0.0,0.0,0.0,0.0,0.0,0.0,0.0,0.0,0.0,-0.1925,-0.1334,0.0,-0.0118,0.0,0.0,0.3024,0.0,0.0,0.0,0.0,0.3961,0.3998,0.4375,0.4167,0.3997,0.3805,0.2891,0.2289,0.1903,0.1366,0.0537,-0.0365,0.0163,0.0241,0.0,0.0,-0.0856,-0.0901,-0.0509,0.0,0.0,0.1247,0.1623,0.0,0.0,0.0,0.0,0.0,0.0,0.0,0.0,0.0,0.0,0.1196,0.0,0.0,0.0,0.0,-0.0499,0.0,0.0,0.0,0.0,0.0,-0.0794,-0.1331,0.0,0.0,0.0,0.0,0.0,0.0,0.0,0.0,0.0,0.0,0.0,0.0,0.0,0.0,-0.3015,-0.3069,-0.313,-0.319,-0.3313,-0.3393,-0.3358,-0.3399,-0.3411,-0.3459,-0.3499,-0.3542,-0.3586,-0.3714,-0.3795,-0.3798,-0.3798,-0.38,-0.3802,-0.3802,-0.3802,-0.3802,-0.38,-0.3795,-0.3789,-0.3793,-0.3851,-0.3918,0.0,0.0,0.0,0.0,0.0,0.0,0.0,0.5959,0.0,0.0,0.0,0.0,0.0,0.0,0.1531,0.0,0.0,-0.0042,0.0168,0.0916,0.0,0.0,0.0,0.401,0.0,0.0,0.0,0.0,0.0,0.4537,0.4798,0.4403,0.4242,0.423,0.0,0.1839,0.0,0.0,0.0,0.0,0.0,0.0781,0.0794,0.0,0.0,0.0039,-0.0196,-0.0078,0.0,0.1306,0.1764,0.1904,0.1914,0.2126,0.2262,0.1917,0.18,0.0,0.0,0.0,0.1822,0.1485,0.0,0.0,0.0,0.0,0.0,0.0,0.0,0.0,0.0,0.0,-0.026,-0.0457,-0.0834,-0.1274,0.0,0.0,0.0,0.0,0.0,0.0,0.0,0.0,0.0,0.0,0.0,0.0,0.0,-0.3074,-0.3132,-0.319,-0.3316,-0.3159,-0.2622,-0.318,-0.3215,-0.2767,-0.3279,-0.3575,-0.3716,-0.3685,-0.3705,-0.3802,-0.3802,-0.3802,-0.3802,-0.3802,-0.3802,-0.3808,-0.383,-0.3522,-0.3065,-0.3608,-0.3494,-0.2965,0.5134,0.0,0.0,0.0,0.0,0.0,0.0,0.0,0.0,0.0,0.4734,0.0,0.3156,0.0,0.2376,0.0,0.0763,0.0893,0.1185,0.1504,0.0,0.2693,0.3673,0.0,0.0,0.0,0.0,0.0,0.0,0.5105,0.5081,0.4742,0.4591,0.4515,0.0,0.2134,0.0382,0.0,0.0118,0.0,0.0,0.0693,0.0,0.0,-0.0279,0.1502,0.0,0.0745,0.1177,0.1725,0.202,0.2161,0.197,0.2339,0.2723,0.2087,0.2171,0.2376,0.2033,0.2072,0.0,0.1711,0.1627,0.0,0.1754,0.0,0.0,0.0,0.0,0.0,0.0,0.0,0.0,0.0087,-0.0313,-0.0841,0.0,-0.2107,0.0,0.0,0.0,0.0,0.0,0.0,0.0,0.0,-0.2615,-0.2717,0.0,0.0,-0.3132,-0.319,-0.3283,-0.308,-0.2552,-0.3097,-0.3184,-0.2804,-0.3279,-0.3593,-0.38,-0.3394,-0.3436,-0.3802,-0.3489,-0.3333,-0.3333,-0.3333,-0.3333,-0.3301,-0.3099,-0.2839,-0.2679,-0.3198,-0.2873,-0.211,0.0,0.0,0.0,0.0,0.6456,0.0,0.0,0.0,0.5825,0.0,0.4706,0.4336,0.3665,0.2961,0.2193,0.1291,0.0716,0.0,0.153,0.1234,0.0,0.0,0.2917,0.2657,0.2115,0.0,0.0,0.0,0.0,0.0,0.5326,0.5202,0.4983,0.4755,0.4688,0.0,0.0432,0.2099,0.1267,-0.1097,-0.0274,0.0078,0.0118,0.0078,0.1472,0.3272,0.2256,0.2159,0.247,0.2511,0.2511,0.2511,0.2511,0.2511,0.2511,0.2511,0.2511,0.247,0.2275,0.2353,0.238,0.1946,0.0,0.0,0.0,0.0,0.156,0.0,0.0,0.0,0.0,0.0,0.0,0.0336,0.0058,-0.042,-0.1623,0.0,0.0,0.0,0.0,0.0,0.0,0.0,-0.2075,-0.1571,-0.2063,-0.2407,0.0,0.0,-0.3099,-0.319,-0.3192,-0.3192,-0.3192,-0.3196,-0.3324,-0.3499,-0.3499,-0.3593,-0.3763,-0.2898,-0.2937,-0.3684,-0.2823,-0.2431,-0.2431,-0.2431,-0.2431,-0.2359,-0.1652,-0.1855,-0.2486,-0.2542,-0.2022,-0.1337,0.6384,0.7017,0.7409,0.0,0.7031,0.6992,0.0,0.0,0.0,0.0,0.3575,0.287,0.2234,0.195,0.1751,0.1494,0.1376,0.0,0.0,0.0,0.0,0.1783,0.2875,0.3057,0.2137,0.398,0.0,0.4763,0.0,0.0,0.5943,0.5589,0.5354,0.5268,0.0,0.0,0.0761,0.2076,0.1854,0.0667,0.0863,0.1376,0.0,0.0,0.1967,0.3272,0.2256,0.1964,0.2082,0.2393,0.2511,0.2511,0.2511,0.2511,0.2511,0.2511,0.2511,0.247,0.2275,0.2353,0.2429,0.218,0.2098,0.2095,0.0,0.0,0.0,0.0,0.0,0.0,0.0,0.0,0.0,0.0,0.0403,0.0,0.0,0.0,0.0,0.0,0.0,0.0,0.0,0.0,-0.2033,-0.1889,-0.2113,-0.2211,0.0,0.0,0.0,-0.2818,-0.3058,-0.3192,-0.3192,-0.3293,-0.3387,-0.3499,-0.3499,-0.3593,-0.3761,-0.2847,-0.2583,-0.2785,-0.1959,-0.1607,-0.1607,-0.1607,-0.1607,-0.1574,-0.1394,-0.1056,-0.069,-0.0706,-0.053,-0.0175,0.7126,0.0,0.0,0.7682,0.0,0.0,0.6657,0.0,0.0,0.4415,0.3696,0.0,0.2217,0.1818,0.1617,0.1617,0.1601,0.0,0.0,0.0,0.0,0.2088,0.2471,0.2355,0.1714,0.3271,0.0,0.4464,0.0,0.0,0.6288,0.6,0.5799,0.0,0.0,0.3754,0.0,0.1819,0.1843,0.1819,0.1466,0.0,0.0,0.1515,0.1852,0.2567,0.2073,0.2004,0.2199,0.2433,0.2511,0.2511,0.2511,0.2511,0.2511,0.2511,0.2511,0.2433,0.2158,0.2276,0.2393,0.2041,0.2002,0.208,0.2196,0.2175,0.2155,0.0,0.0,0.0,0.0,0.0,0.0,0.0,0.0,0.0,0.0,0.0,0.0,0.0,0.0,0.0,0.0,0.0,-0.0994,-0.1106,-0.1449,-0.1677,0.0,0.0,0.0,-0.2684,-0.2924,-0.3114,-0.3287,-0.3022,-0.3105,-0.3554,-0.3185,-0.3119,-0.324,-0.2345,-0.1924,-0.193,-0.1092,-0.074,-0.0733,-0.0733,-0.0733,-0.0737,-0.0699,-0.0168,0.0551,0.0612,0.0614,0.074,0.0,0.0,0.0,0.0,0.0,0.0,0.0,0.6478,0.0,0.4596,0.0,0.3611,0.2719,0.202,0.1617,0.1617,0.0,0.2003,0.2942,0.2038,0.1871,0.2763,0.1886,0.1309,0.1223,0.2293,0.0,0.0,0.0,0.0,0.6472,0.6472,0.0,0.0,0.0,0.0,0.0,0.1567,0.1552,0.0,0.1685,0.1384,0.1387,0.1383,0.15,0.1696,0.1888,0.2159,0.247,0.251,0.2511,0.2511,0.2511,0.2511,0.2511,0.2511,0.2511,0.2433,0.2082,0.2315,0.251,0.1846,0.1886,0.2081,0.2118,0.2235,0.2313,0.2313,0.2815,0.3019,0.0,0.0,0.0,0.0,0.0,0.0,0.0,0.0,0.0,0.0,0.0,0.0,0.0,0.0,0.0217,0.0,-0.0543,0.0,0.0,0.0,0.0,-0.245,-0.2509,0.0,-0.3223,0.0,-0.2531,-0.342,-0.2642,-0.2305,-0.2383,-0.1545,-0.1118,-0.1097,-0.0193,0.0193,0.0189,0.0227,0.0228,0.0191,0.0245,0.0703,0.1309,0.1368,0.1385,0.1379,0.0,0.0,0.0,0.0,0.0,0.6517,0.6241,0.517,0.4107,0.3453,0.2813,0.2214,0.1868,0.1667,0.1617,0.1617,0.1617,0.0,0.0,0.0,0.0,0.1741,0.1685,0.1525,0.1279,0.2512,0.3456,0.0,0.0,0.0,0.6803,0.0,0.0,0.0,0.0,0.0,0.3163,0.199,0.0,0.1841,0.1864,0.192,0.1949,0.1912,0.202,0.2177,0.2174,0.2196,0.2275,0.2431,0.2511,0.2511,0.2511,0.2511,0.2511,0.2511,0.2511,0.247,0.2433,0.2978,0.3326,0.2352,0.2508,0.2665,0.1885,0.2353,0.2937,0.2937,0.3703,0.4214,0.3654,0.0,0.0,0.0,0.0,0.0,0.0,0.0,0.0,0.0,0.0,0.0,0.0,0.0,0.0,0.0,0.0,0.0,0.0,0.0,0.0,0.0,-0.1148,0.0,0.0,0.0,-0.1786,-0.2601,-0.1832,-0.151,-0.1511,-0.0608,-0.0228,-0.0189,0.0798,0.1254,0.125,0.1401,0.138,0.1214,0.1132,0.1184,0.1309,0.1368,0.1359,0.1322,0.0,0.0,0.0,0.0,0.0,0.0,0.0,0.434,0.0,0.3581,0.3279,0.2876,0.2472,0.2052,0.175,0.1615,0.1588,0.1564,0.1549,0.1519,0.1476,0.1414,0.1618,0.0,0.1415,0.2182,0.3187,0.4454,0.0,0.0,0.7156,0.0,0.0,0.0,0.0,0.502,0.0,0.0,0.0,0.2482,0.2161,0.2082,0.21,0.2076,0.2135,0.2313,0.2246,0.2298,0.2353,0.247,0.2511,0.2511,0.2511,0.2511,0.2588,0.3056,0.3171,0.3249,0.356,0.4027,0.4261,0.3638,0.364,0.368,0.3288,0.3483,0.3795,0.391,0.4416,0.4809,0.4618,0.402,0.0,0.0,0.0,0.0,0.0,0.0,0.0,0.0,0.0,0.0,0.0,0.0,0.0,0.0,0.0,0.0,0.0,0.0,0.0,0.0,0.0,0.0,0.0,0.0,0.0,-0.1818,-0.1015,-0.0642,-0.0605,-0.0192,0.0268,0.0796,0.1343,0.161,0.1667,0.1743,0.1704,0.1598,0.1538,0.1551,0.1608,0.143,0.1382,0.1429,0.0,0.8644,0.0,0.0,0.6503,0.0,0.488,0.3907,0.3411,0.373,0.375,0.3578,0.3074,0.2489,0.1988,0.1765,0.1713,0.1676,0.167,0.1638,0.1579,0.1488,0.1759,0.1846,0.1593,0.1929,0.2845,0.0,0.0,0.0,0.0,0.0,0.0,0.0,0.0,0.0,0.0,0.0,0.3069,0.3039,0.2464,0.2245,0.2245,0.2245,0.2304,0.2388,0.2365,0.2449,0.2527,0.2515,0.2511,0.2511,0.2511,0.2627,0.2899,0.3599,0.3908,0.4144,0.4649,0.5002,0.5196,0.4844,0.473,0.473,0.4688,0.473,0.4768,0.4921,0.5096,0.5272,0.5408,0.4945,0.0,0.0,0.0,0.0,0.0,0.0,0.0,0.0,0.0,0.0,0.0,0.0,0.0,0.0,0.0,0.0,0.0,0.0,0.0,0.0,0.0,-0.0246,-0.071,0.0,-0.011,-0.0868,-0.0038,0.0379,0.0379,0.0349,0.0774,0.1555,0.1633,0.1783,0.193,0.1872,0.1817,0.1779,0.172,0.1778,0.1817,0.1483,0.1443,0.1499,0.0,0.0,0.0,0.0,0.0,0.0,0.0,0.3998,0.3234,0.3123,0.2988,0.2825,0.2521,0.2417,0.2366,0.232,0.2277,0.2234,0.2245,0.2153,0.2089,0.2041,0.2305,0.2281,0.196,0.2216,0.2726,0.0,0.0,0.0,0.0,0.0,0.0,0.0,0.0,0.0,0.0,0.3493,0.3098,0.2422,0.2646,0.2731,0.2731,0.2731,0.2728,0.2752,0.2599,0.2598,0.2585,0.2529,0.2511,0.2511,0.2511,0.3056,0.3677,0.3791,0.43,0.4885,0.4963,0.5506,0.5893,0.5157,0.5386,0.5577,0.488,0.5267,0.577,0.577,0.586,0.5989,0.6248,0.539,0.4496,0.0,0.0,0.0,0.0,0.0,0.0,0.0,0.0,0.0,0.0,0.0,0.0,0.0,0.0,0.0,0.0,0.0,0.0,0.0384,0.0,0.0716,-0.015,0.097,0.1153,0.0415,0.1248,0.1629,0.163,0.1515,0.1551,0.1784,0.1828,0.2053,0.2336,0.2088,0.1996,0.2041,0.1869,0.1741,0.1616,0.1578,0.1448,0.1341,0.0,0.0,0.0,0.0,0.0,0.0,0.0,0.3603,0.3278,0.3196,0.3079,0.2927,0.2674,0.2646,0.2591,0.2418,0.2282,0.2279,0.229,0.2221,0.2153,0.2088,0.2352,0.2419,0.2231,0.2514,0.3001,0.0,0.0,0.0,0.0,0.0,0.0,0.0,0.0,0.4059,0.3493,0.3177,0.2891,0.2629,0.2763,0.2805,0.283,0.2756,0.2751,0.2773,0.2687,0.2632,0.2598,0.2574,0.2541,0.2511,0.2511,0.3093,0.3908,0.4377,0.5076,0.5815,0.6356,0.6745,0.6899,0.6591,0.6591,0.663,0.6433,0.6553,0.6707,0.6819,0.6768,0.6748,0.687,0.635,0.5732,0.0,0.0,0.0,0.0,0.0,0.0,0.0,0.0,0.0,0.0,0.0,0.0,0.0,0.0,0.0,0.0,0.0,0.0,0.0683,0.0,0.1557,0.1155,0.1547,0.1608,0.1324,0.1628,0.1846,0.1938,0.1876,0.197,0.218,0.2291,0.2354,0.2381,0.2332,0.2297,0.2276,0.2111,0.2028,0.1967,0.1704,0.1564,0.1454,0.6423,0.0,0.5544,0.0,0.445,0.421,0.3483,0.3334,0.3294,0.3294,0.3207,0.313,0.2927,0.2942,0.2835,0.2671,0.2552,0.249,0.2526,0.2434,0.235,0.2284,0.2478,0.0,0.2483,0.2708,0.3075,0.361,0.4588,0.0,0.0,0.0,0.0,0.0,0.3894,0.3578,0.3354,0.2911,0.2723,0.2733,0.2768,0.2798,0.2811,0.2725,0.273,0.2773,0.2694,0.2814,0.2988,0.2947,0.3059,0.3212,0.2938,0.3482,0.43,0.5118,0.5931,0.6707,0.7326,0.7484,0.7484,0.7484,0.7411,0.7334,0.7484,0.7373,0.7334,0.7484,0.7346,0.7171,0.7155,0.6977,0.6624,0.5931,0.0,0.0,0.0,0.0,0.0,0.0,0.0,0.2553,0.2383,0.0,0.0,0.0,0.0,0.0,0.0,0.0,0.0,0.0,0.0,0.0,0.0,0.1929,0.1972,0.1969,0.1983,0.2073,0.2194,0.221,0.2286,0.2416,0.2553,0.2552,0.2474,0.25,0.2496,0.2441,0.2349,0.2261,0.2152,0.1817,0.1595,0.1493,0.6573,0.5406,0.4245,0.3476,0.3322,0.3322,0.3322,0.322,0.3181,0.3181,0.3181,0.318,0.318,0.318,0.318,0.318,0.3119,0.3095,0.3097,0.2985,0.282,0.0,0.0,0.2816,0.2695,0.2752,0.2753,0.2736,0.0,0.0,0.3747,0.0,0.4689,0.3905,0.4032,0.3545,0.2613,0.2732,0.2713,0.2614,0.2734,0.2748,0.2695,0.2694,0.273,0.2767,0.2646,0.3172,0.3871,0.3816,0.4302,0.4846,0.4025,0.4338,0.516,0.5931,0.6784,0.7484,0.7484,0.7484,0.7484,0.7484,0.7484,0.7484,0.7484,0.7484,0.7484,0.7484,0.7346,0.7171,0.7024,0.7102,0.6792,0.5594,0.0,0.0,0.0,0.0,0.0,0.0,0.3761,0.3431,0.3039,0.0,0.0,0.0,0.0,0.0,0.0,0.0,0.0,0.1296,0.1622,0.0,0.1421,0.2053,0.2381,0.2382,0.2441,0.2542,0.2604,0.2664,0.2596,0.2428,0.2528,0.2601,0.2594,0.2535,0.2545,0.2594,0.2534,0.2308,0.1985,0.1943,0.1651,0.1296,0.5381,0.4403,0.3512,0.3259,0.3208,0.3208,0.3208,0.3192,0.318,0.318,0.318,0.318,0.318,0.318,0.318,0.0,0.3157,0.3093,0.0,0.3022,0.2943,0.2819,0.2813,0.2813,0.2816,0.2794,0.2774,0.2755,0.0,0.0,0.0,0.4413,0.4014,0.31,0.3075,0.2953,0.2728,0.2766,0.276,0.2725,0.2722,0.2759,0.2803,0.2677,0.2694,0.2773,0.2692,0.3182,0.385,0.3979,0.4459,0.5057,0.5495,0.5734,0.5854,0.6125,0.6822,0.7484,0.7484,0.7484,0.7484,0.7484,0.7484,0.7484,0.7484,0.7484,0.7484,0.7484,0.7346,0.7171,0.7151,0.7086,0.6949,0.6557,0.6086,0.0,0.0,0.0,0.0,0.0,0.0,0.3843,0.0,0.2986,0.0,0.0,0.0,0.0,0.0,0.0,0.0,0.0,0.1958,0.0,0.2093,0.2336,0.2481,0.2481,0.2501,0.2564,0.2666,0.2726,0.2744,0.2751,0.2717,0.2702,0.2661,0.2643,0.2621,0.26,0.2579,0.2422,0.2188,0.2138,0.1924,0.169,0.5482,0.4533,0.3682,0.3281,0.318,0.318,0.318,0.318,0.318,0.318,0.318,0.318,0.318,0.318,0.0,0.318,0.3125,0.3113,0.3101,0.3061,0.2982,0.2811,0.2878,0.2879,0.2807,0.0,0.0,0.2783,0.349,0.3826,0.3787,0.3757,0.3362,0.2726,0.271,0.2721,0.2752,0.2798,0.2804,0.2779,0.2741,0.2773,0.2868,0.3104,0.3181,0.3211,0.3209,0.3884,0.4705,0.4531,0.5122,0.6064,0.667,0.6834,0.6787,0.6725,0.7057,0.7496,0.7608,0.7575,0.75,0.7608,0.7571,0.7484,0.7484,0.7484,0.7484,0.7484,0.7399,0.7301,0.7203,0.7183,0.7122,0.6918,0.651,0.6144,0.5927,0.0,0.0,0.0,0.0,0.0,0.0,0.3565,0.0,0.0,0.0,0.0,0.0,0.0,0.0,0.1898,0.2168,0.0,0.232,0.2447,0.2488,0.2407,0.2512,0.2597,0.2695,0.2755,0.2804,0.2884,0.2824,0.277,0.2696,0.2741,0.2725,0.2668,0.2644,0.2512,0.2337,0.2223,0.208,0.1887,0.6722,0.5579,0.0,0.0,0.323,0.0,0.318,0.318,0.318,0.318,0.318,0.318,0.318,0.318,0.318,0.318,0.0,0.0,0.0,0.3104,0.2998,0.2721,0.291,0.292,0.2709,0.2812,0.2884,0.2783,0.2726,0.2755,0.2904,0.2804,0.2779,0.2786,0.2886,0.2805,0.2706,0.2819,0.2835,0.2825,0.2865,0.2912,0.2999,0.386,0.4114,0.4024,0.4158,0.5123,0.6191,0.5485,0.6232,0.7504,0.7516,0.7669,0.7763,0.7575,0.75,0.7553,0.7739,0.7661,0.758,0.7739,0.7649,0.7484,0.7484,0.7484,0.7484,0.7484,0.7484,0.7435,0.7273,0.7354,0.7318,0.6812,0.696,0.6993,0.6489,0.0,0.0,0.0,0.0,0.0,0.0,0.4403,0.373,0.0,0.0,0.0,0.0,0.0,0.2283,0.2204,0.2323,0.2334,0.2214,0.2395,0.2454,0.2319,0.2522,0.2634,0.2695,0.2751,0.2779,0.2786,0.2888,0.2805,0.2713,0.2823,0.2832,0.2771,0.271,0.2557,0.2374,0.2272,0.2119,0.1925,0.0,0.0,0.4734,0.4483,0.3732,0.318,0.318,0.318,0.318,0.318,0.318,0.318,0.318,0.318,0.318,0.318,0.3167,0.3133,0.3123,0.3119,0.3052,0.2947,0.2939,0.292,0.2832,0.2813,0.2798,0.2783,0.2768,0.2752,0.2734,0.2721,0.2738,0.2783,0.2798,0.2789,0.2763,0.2792,0.2797,0.2865,0.3537,0.3841,0.4036,0.4896,0.5143,0.5074,0.5206,0.5776,0.6465,0.6524,0.7088,0.7755,0.7845,0.7829,0.7763,0.7575,0.7675,0.7837,0.761,0.7657,0.771,0.7612,0.7555,0.7484,0.7484,0.7484,0.7484,0.7484,0.7484,0.7472,0.7431,0.7273,0.7073,0.6943,0.6867,0.676,0.6663,0.675,0.0,0.0,0.6687,0.6347,0.5556,0.5279,0.4759,0.0,0.0,0.0,0.0,0.241,0.2285,0.2293,0.2252,0.2295,0.2425,0.2436,0.2474,0.254,0.258,0.2634,0.2694,0.2707,0.2738,0.2783,0.2798,0.2815,0.283,0.2812,0.2768,0.2707,0.2647,0.2554,0.2471,0.2442,0.2393,0.2354,0.8074,0.7077,0.6129,0.5629,0.4632,0.4083,0.458,0.4232,0.4083,0.458,0.4232,0.3932,0.3932,0.3481,0.318,0.318,0.318,0.3154,0.3094,0.3116,0.3102,0.2974,0.2987,0.2961,0.2834,0.2827,0.2824,0.2824,0.2824,0.2808,0.2775,0.2775,0.2778,0.2785,0.2812,0.2809,0.2785,0.2813,0.3087,0.3522,0.3998,0.4472,0.5048,0.5952,0.619,0.609,0.6226,0.6655,0.7167,0.6881,0.7285,0.7878,0.7894,0.7947,0.8008,0.778,0.7862,0.7971,0.7776,0.7784,0.7755,0.7567,0.7484,0.7484,0.7484,0.7484,0.7484,0.7484,0.7484,0.7484,0.7484,0.7335,0.719,0.7103,0.7167,0.7104,0.6845,0.7103,0.0,0.6932,0.6995,0.6872,0.6309,0.5856,0.5195,0.4238,0.3636,0.0,0.2503,0.2355,0.2287,0.2259,0.2277,0.2322,0.2391,0.2385,0.2467,0.256,0.2589,0.2634,0.2692,0.2692,0.271,0.2744,0.2771,0.2786,0.279,0.2785,0.2763,0.2725,0.2636,0.258,0.2549,0.252,0.2511,0.2511,0.8425,0.8124,0.7723,0.6822,0.5729,0.5331,0.6274,0.5629,0.5381,0.6274,0.5629,0.4983,0.4834,0.3982,0.3381,0.323,0.318,0.3158,0.3108,0.3152,0.3132,0.2956,0.3043,0.3016,0.2801,0.2892,0.292,0.292,0.292,0.292,0.292,0.3053,0.3067,0.3017,0.3249,0.3287,0.3235,0.3284,0.3753,0.452,0.4636,0.5171,0.603,0.6962,0.7222,0.7147,0.7264,0.7651,0.7932,0.7163,0.7405,0.8028,0.7926,0.8086,0.826,0.8101,0.8073,0.8085,0.8028,0.789,0.7755,0.7567,0.7484,0.7484,0.7484,0.7484,0.7484,0.7484,0.7484,0.7484,0.7484,0.7468,0.7403,0.7366,0.7558,0.7601,0.7207,0.0,0.7726,0.7111,0.7249,0.7284,0.7101,0.6334,0.5567,0.4897,0.4007,0.3164,0.2432,0.2351,0.2288,0.2237,0.2323,0.2351,0.2312,0.2367,0.2469,0.2538,0.259,0.2647,0.2706,0.2696,0.2692,0.2695,0.2737,0.2732,0.2696,0.2738,0.2756,0.2745,0.2631,0.2587,0.258,0.2529,0.2511,0.2511,0.9377,0.8623,0.7922,0.7773,0.6874,0.6224,0.6371,0.6274,0.6224,0.6373,0.6274,0.5827,0.4885,0.4634,0.4183,0.3281,0.318,0.3176,0.3167,0.3175,0.3169,0.3076,0.3087,0.3036,0.2907,0.2914,0.292,0.292,0.292,0.292,0.292,0.3721,0.4069,0.4101,0.4912,0.5267,0.5245,0.5211,0.5277,0.5534,0.6306,0.672,0.7007,0.7988,0.8233,0.8099,0.8281,0.8296,0.8272,0.8296,0.8287,0.8243,0.8215,0.8247,0.8284,0.8256,0.8357,0.8414,0.8097,0.789,0.7755,0.7567,0.7484,0.7484,0.7484,0.7484,0.7484,0.7484,0.7484,0.7484,0.7484,0.7253,0.7304,0.7928,0.7659,0.7578,0.8154,0.0,0.7955,0.7702,0.7705,0.764,0.7462,0.7129,0.6658,0.5986,0.4993,0.4111,0.3435,0.2743,0.2364,0.2355,0.2327,0.233,0.2369,0.2466,0.2553,0.2665,0.2673,0.271,0.2767,0.2715,0.2692,0.2689,0.2647,0.2653,0.2688,0.2647,0.2629,0.2623,0.2552,0.2525,0.2523,0.2514,0.2511,0.2511,0.9579,0.9225,0.8874,0.8874,0.7971,0.7471,0.8024,0.7624,0.7471,0.8071,0.7559,0.6999,0.657,0.5929,0.5126,0.413,0.4083,0.3815,0.3184,0.3162,0.3176,0.3102,0.3097,0.3041,0.2922,0.3409,0.3409,0.292,0.39,0.4166,0.3676,0.461,0.5053,0.5055,0.5497,0.5719,0.5716,0.5659,0.5975,0.647,0.689,0.7388,0.7944,0.8432,0.8559,0.8494,0.858,0.8555,0.8438,0.8422,0.8469,0.8422,0.8321,0.8357,0.8482,0.8482,0.8473,0.8381,0.8211,0.8032,0.7854,0.7714,0.7669,0.7645,0.7504,0.7484,0.7484,0.7484,0.7484,0.7484,0.7484,0.7381,0.7405,0.7872,0.7915,0.0,0.0,0.8473,0.843,0.8003,0.7966,0.7888,0.7692,0.7387,0.6923,0.624,0.5248,0.4554,0.4299,0.3569,0.3348,0.3772,0.2898,0.2441,0.2469,0.2529,0.2587,0.2644,0.271,0.2756,0.2782,0.2753,0.2741,0.2737,0.2677,0.2666,0.2687,0.2627,0.2601,0.2595,0.2534,0.2511,0.2511,0.2511,0.2511,0.2511,0.9579,0.9579,0.9579,0.9579,0.8924,0.8673,0.948,0.8924,0.8673,0.9476,0.8769,0.815,0.8011,0.7183,0.6232,0.5275,0.5164,0.4682,0.3555,0.3721,0.3586,0.3101,0.3083,0.3118,0.3233,0.3942,0.4032,0.3544,0.501,0.5319,0.4654,0.5586,0.603,0.603,0.6251,0.6387,0.6387,0.6387,0.6786,0.7452,0.7452,0.7896,0.8612,0.8612,0.8612,0.8612,0.8612,0.8612,0.8592,0.8402,0.8494,0.8588,0.8398,0.8494,0.8612,0.8612,0.851,0.8345,0.8304,0.8187,0.8036,0.7902,0.7829,0.7763,0.7616,0.7584,0.7584,0.7584,0.7577,0.7606,0.7606,0.7541,0.758,0.7888,0.0,0.0,0.0,0.8617,0.8689,0.8151,0.8056,0.7987,0.7823,0.7472,0.7072,0.6617,0.5632,0.5089,0.5202,0.4486,0.4377,0.504,0.36,0.279,0.2805,0.2658,0.2737,0.2973,0.2867,0.2921,0.3152,0.2919,0.2783,0.2779,0.2719,0.2684,0.2668,0.2621,0.2593,0.2575,0.2529,0.2519,0.2531,0.2531,0.2541,0.2552,0.9579,0.9579,0.9579,0.9579,0.9529,0.9525,0.9579,0.9529,0.9525,0.9579,0.9517,0.9114,0.812,0.7915,0.7462,0.6371,0.6181,0.5672,0.472,0.5299,0.4905,0.3192,0.3041,0.3392,0.4168,0.4255,0.4699,0.5497,0.563,0.5675,0.563,0.6564,0.7007,0.7051,0.7984,0.8388,0.8388,0.8388,0.8432,0.8476,0.8476,0.8524,0.8612,0.8612,0.8612,0.8612,0.8612,0.8612,0.8608,0.8596,0.86,0.8608,0.8596,0.86,0.8612,0.8612,0.86,0.8555,0.8337,0.828,0.8227,0.804,0.7878,0.7796,0.7784,0.778,0.778,0.778,0.7866,0.7975,0.7975,0.7695,0.7733,0.8495,0.0,0.0,0.8846,0.864,0.8339,0.8132,0.7944,0.7798,0.778,0.762,0.7537,0.7668,0.6698,0.6108,0.6108,0.5345,0.504,0.5267,0.4258,0.3714,0.3716,0.2961,0.3112,0.4058,0.321,0.3293,0.4154,0.3244,0.2783,0.2779,0.2719,0.2659,0.2608,0.2604,0.2568,0.2516,0.2512,0.2545,0.2594,0.2594,0.2631,0.2679,0.9579,0.9579,0.9579,0.9579,0.9579,0.9579,0.9579,0.9579,0.9579,0.9579,0.9531,0.9352,0.9011,0.8928,0.8425,0.7351,0.7207,0.669,0.5486,0.5681,0.5539,0.48,0.4811,0.4976,0.5144,0.5719,0.5941,0.5719,0.6918,0.7183,0.6605,0.7588,0.8032,0.8032,0.8432,0.8612,0.8612,0.8612,0.8612,0.8612,0.8612,0.8612,0.8612,0.8612,0.8612,0.8612,0.8612,0.8612,0.8596,0.8434,0.8514,0.8592,0.8473,0.8518,0.8612,0.8612,0.8612,0.8596,0.8526,0.8506,0.8418,0.8231,0.8138,0.8061,0.7943,0.7914,0.7914,0.7914,0.7967,0.8012,0.8012,0.7902,0.7935,0.8397,0.0,0.836,0.8554,0.8639,0.8537,0.8139,0.805,0.7919,0.7792,0.7629,0.7551,0.762,0.6838,0.6577,0.6984,0.6826,0.6826,0.7011,0.6198,0.5448,0.4934,0.4517,0.458,0.5066,0.4176,0.3912,0.4253,0.3293,0.2884,0.2837,0.2775,0.3076,0.3593,0.3544,0.3872,0.4369,0.4369,0.4394,0.4344,0.3727,0.3914,0.436,0.9579,0.9579,0.9579,0.9579,0.9579,0.9579,0.9579,0.9579,0.9579,0.9579,0.9518,0.949,0.9612,0.9514,0.9175,0.8345,0.825,0.7699,0.6418,0.6314,0.6187,0.5791,0.5953,0.6059,0.6121,0.6786,0.6918,0.6609,0.7944,0.8256,0.7588,0.8296,0.8612,0.8612,0.8612,0.8612,0.8612,0.8612,0.8612,0.8612,0.8612,0.8612,0.8612,0.8612,0.8612,0.8612,0.8612,0.8612,0.8592,0.8422,0.8506,0.8592,0.8418,0.851,0.862,0.8629,0.8653,0.8637,0.8747,0.8698,0.858,0.841,0.8333,0.8256,0.813,0.8101,0.8101,0.8101,0.8146,0.8203,0.8256,0.8223,0.8243,0.8426,0.8539,0.8546,0.8421,0.8594,0.8581,0.8196,0.8062,0.7955,0.78,0.7629,0.7543,0.7604,0.7117,0.7027,0.7569,0.7799,0.7991,0.8178,0.7649,0.7136,0.669,0.5932,0.5771,0.6201,0.4972,0.452,0.4699,0.3765,0.3187,0.2917,0.3488,0.3887,0.42,0.4475,0.4932,0.5482,0.5482,0.5507,0.5457,0.4826,0.4974,0.5429,0.9579,0.9579,0.9579,0.9579,0.9579,0.9579,0.9579,0.9579,0.9579,0.9579,0.9579,0.9579,0.9575,0.9579,0.9551,0.9416,0.9198,0.8668,0.7577,0.753,0.6983,0.5774,0.5991,0.6423,0.7102,0.7095,0.7584,0.8612,0.8612,0.8612,0.8612,0.8612,0.8612,0.8612,0.8612,0.8612,0.8612,0.8612,0.8612,0.8612,0.8612,0.8612,0.8612,0.8612,0.8612,0.8612,0.8612,0.8612,0.8612,0.8608,0.8608,0.8612,0.8612,0.8612,0.8649,0.8771,0.8702,0.8694,0.9003,0.884,0.8616,0.8612,0.843,0.8296,0.8292,0.8296,0.8296,0.8296,0.8486,0.8665,0.8792,0.8686,0.8625,0.8792,0.8682,0.8612,0.8608,0.841,0.8292,0.8288,0.8016,0.7804,0.78,0.7633,0.76,0.7784,0.7629,0.7603,0.7808,0.7996,0.8183,0.8408,0.8404,0.86,0.9005,0.7012,0.6538,0.7489,0.5536,0.5006,0.5675,0.4743,0.381,0.3008,0.4877,0.5124,0.4292,0.5239,0.5596,0.5527,0.5527,0.556,0.5626,0.5626,0.5659,0.5586,0.9579,0.9579,0.9579,0.9579,0.9579,0.9579,0.9579,0.9579,0.9579,0.9579,0.9579,0.9579,0.9449,0.9551,0.9453,0.9015,0.9051,0.8852,0.8286,0.8375,0.8204,0.7771,0.7914,0.8065,0.8168,0.8164,0.83,0.8612,0.8612,0.8612,0.8612,0.8612,0.8612,0.8612,0.8612,0.8612,0.8612,0.8612,0.8612,0.8612,0.8612,0.8612,0.8612,0.8612,0.8612,0.8612,0.8612,0.8612,0.8592,0.8418,0.8502,0.8633,0.8706,0.8743,0.8779,0.8962,0.8978,0.8962,0.9068,0.9019,0.8909,0.8775,0.8702,0.8633,0.8511,0.8678,0.882,0.869,0.8812,0.9,0.9234,0.9108,0.8959,0.9059,0.9022,0.8808,0.8426,0.854,0.8519,0.8142,0.8131,0.806,0.7812,0.7865,0.7892,0.7796,0.7865,0.8084,0.8421,0.8626,0.8823,0.9023,0.9182,0.9391,0.9681,0.8641,0.7881,0.7489,0.6245,0.5669,0.5675,0.4743,0.452,0.4875,0.5453,0.5921,0.6239,0.6546,0.7048,0.766,0.766,0.769,0.7603,0.6896,0.7102,0.7496,0.9727,0.9677,0.9628,0.9727,0.9677,0.9579,0.9579,0.9579,0.9579,0.9579,0.9677,0.9682,0.9522,0.9657,0.9534,0.897,0.8905,0.8824,0.8678,0.8698,0.8674,0.8616,0.8666,0.8674,0.8612,0.8612,0.8612,0.8612,0.8612,0.8612,0.8612,0.8612,0.8612,0.8612,0.8612,0.8612,0.8612,0.8612,0.8612,0.8612,0.8612,0.8612,0.8612,0.8612,0.8612,0.8612,0.8612,0.8612,0.8604,0.8515,0.8625,0.8796,0.8897,0.893,0.8966,0.9149,0.9153,0.9129,0.9271,0.9202,0.9088,0.9043,0.8982,0.8905,0.88,0.9034,0.9203,0.9088,0.925,0.949,0.9699,0.9618,0.9558,0.9656,0.9592,0.9338,0.8928,0.904,0.8981,0.8573,0.8615,0.8573,0.8255,0.8295,0.8294,0.8172,0.8475,0.8782,0.9074,0.9284,0.9447,0.9573,0.9781,0.9951,1.0123,0.9812,0.9103,0.8031,0.6901,0.6204,0.5941,0.5186,0.5144,0.5764,0.652,0.6962,0.7139,0.754,0.799,0.851,0.8584,0.8567,0.8423,0.7874,0.8076,0.8388,0.9969,0.9772,0.9677,0.9969,0.9776,0.9579,0.9579,0.9628,0.9628,0.9628,0.9871,0.9912,0.9653,0.9862,0.9774,0.9175,0.8845,0.8674,0.8812,0.8674,0.8629,0.8612,0.8612,0.8612,0.8612,0.8624,0.8637,0.8637,0.8653,0.8657,0.8657,0.8657,0.8657,0.8657,0.8641,0.8637,0.8633,0.8616,0.8612,0.8612,0.8612,0.8612,0.8612,0.8612,0.8612,0.8612,0.8612,0.862,0.8661,0.8787,0.8958,0.91,0.9116,0.912,0.9157,0.9375,0.9267,0.9218,0.9539,0.9393,0.9181,0.9388,0.9263,0.9137,0.9104,0.9354,0.9558,0.9541,0.9737,0.999,1.0153,1.0136,1.0189,1.0334,1.0206,1.0013,0.9764,0.9672,0.9495,0.9279,0.9244,0.9148,0.8886,0.8772,0.8721,0.8738,0.9195,0.9593,0.9735,0.9954,1.0051,1.0051,1.026,1.0329,1.0329,1.0559,1.0035,0.889,0.7545,0.6789,0.6536,0.608,0.5935,0.6098,0.7859,0.8074,0.7278,0.8209,0.8473,0.8308,0.8518,0.8494,0.8337,0.8567,0.8624,0.8436,0.9969,0.9772,0.9677,0.9969,0.9776,0.9579,0.9579,0.9776,0.992,0.992,1.0167,1.0204,1.0,0.9979,0.9822,0.9456,0.9166,0.8938,0.8828,0.8787,0.8706,0.8616,0.8612,0.8612,0.8612,0.8698,0.8767,0.8767,0.8909,0.8982,0.8982,0.8982,0.8982,0.8978,0.8828,0.8767,0.8755,0.8625,0.8612,0.8612,0.8612,0.8612,0.8612,0.8612,0.8612,0.8612,0.8612,0.8653,0.8792,0.8974,0.9064,0.912,0.9302,0.9347,0.9384,0.9514,0.9543,0.9531,0.9558,0.9571,0.9522,0.9559,0.9543,0.9437,0.9161,0.9502,0.9858,0.9758,1.0036,1.0347,1.0582,1.0493,1.0307,1.0236,1.0014,0.9776,0.9433,0.9394,0.9262,0.9003,0.8992,0.8896,0.8687,0.8815,0.8943,0.8926,0.9319,0.9681,0.9933,1.0267,1.0483,1.0483,1.0645,1.0764,1.0764,1.0801,1.0148,0.8826,0.8498,0.8131,0.7743,0.7446,0.7676,0.8235,0.8489,0.8388,0.8054,0.8267,0.8325,0.8296,0.8337,0.8414,0.8571,0.8702,0.8682,0.838,1.0117,1.0068,1.0068,1.0314,1.0068,0.9821,0.9969,0.9969,1.0068,1.0167,1.0408,1.0516,1.0268,1.0347,1.0236,0.9796,0.9476,0.9232,0.9076,0.8913,0.8779,0.869,0.8653,0.8612,0.8612,0.8735,0.882,0.882,0.9007,0.9096,0.9096,0.9096,0.9096,0.9092,0.8995,0.8905,0.8812,0.8727,0.8641,0.8612,0.8612,0.8612,0.862,0.8658,0.8686,0.8702,0.8787,0.893,0.9088,0.919,0.9279,0.9368,0.9458,0.9486,0.9502,0.96,0.9579,0.9579,0.9579,0.9579,0.9579,0.9579,0.9579,0.953,0.9393,0.9689,0.9989,0.9892,1.0289,1.0605,1.0757,1.0801,1.0786,1.0667,1.0582,1.0386,1.0081,0.9999,0.9813,0.9589,0.9569,0.9458,0.9244,0.9323,0.942,0.9575,0.9849,1.0131,1.0426,1.0712,1.0825,1.0731,1.0929,1.1038,1.1038,1.1038,1.0688,0.9949,0.9286,0.8824,0.8605,0.8288,0.8608,0.9367,0.9174,0.8914,0.8615,0.848,0.8313,0.8098,0.8223,0.8381,0.8524,0.8872,0.9091,0.9034,1.0413,1.0413,1.0462,1.0752,1.0413,1.0117,1.0364,1.0265,1.0216,1.0462,1.0703,1.0801,1.056,1.0708,1.0556,1.0068,0.9788,0.9566,0.9396,0.9094,0.8898,0.8824,0.8658,0.8612,0.8612,0.8735,0.882,0.882,0.9007,0.9096,0.9096,0.9096,0.9096,0.9096,0.9064,0.8966,0.882,0.8787,0.8694,0.8612,0.8612,0.8612,0.8629,0.8755,0.882,0.8844,0.9031,0.921,0.9408,0.9437,0.9502,0.9579,0.9579,0.9579,0.9579,0.9579,0.9579,0.9579,0.9579,0.9579,0.9579,0.9579,0.9579,0.9628,0.9677,0.9871,1.0068,1.0068,1.0511,1.085,1.085,1.1047,1.1184,1.1151,1.1142,1.1071,1.0868,1.0688,1.0513,1.0298,1.0279,1.0143,0.9872,0.9833,0.9939,1.0157,1.0367,1.0623,1.0943,1.1104,1.1104,1.0905,1.109,1.1179,1.1146,1.1179,1.1194,1.1194,1.0043,0.9486,0.9456,0.9041,0.925,0.996,0.9759,0.9429,0.903,0.8777,0.8405,0.8035,0.8225,0.8405,0.8598,0.9089,0.9529,0.977,1.0659,1.056,1.0462,1.0752,1.0556,1.0364,1.0413,1.056,1.0703,1.0752,1.1002,1.1145,1.11,1.09,1.0556,1.0068,1.0168,1.0029,0.946,0.9404,0.9217,0.8828,0.8658,0.8612,0.8612,0.8735,0.882,0.882,0.9007,0.9096,0.9096,0.9096,0.9096,0.9092,0.893,0.8844,0.8808,0.8666,0.8633,0.8612,0.8612,0.8612,0.8629,0.8755,0.882,0.8844,0.9031,0.921,0.9429,0.9539,0.9608,0.9579,0.9579,0.9579,0.9579,0.9579,0.9579,0.9579,0.9579,0.9579,0.9579,0.9579,0.9579,0.9677,0.9875,1.0167,1.0364,1.0364,1.0757,1.1145,1.1145,1.1198,1.1137,1.0967,1.0934,1.0863,1.0645,1.0635,1.0514,1.026,1.0209,1.0024,0.9617,0.9912,1.0132,1.0109,1.0348,1.0683,1.1146,1.1179,1.1104,1.0905,1.109,1.1113,1.0938,1.1109,1.1194,1.1194,1.1019,1.0849,1.0654,1.0422,1.0292,1.021,1.0044,0.9707,0.9224,0.9018,0.889,0.8791,0.8434,0.8657,0.9213,0.9451,0.9666,0.9673,1.0734,1.085,1.09,1.0998,1.0801,1.0654,1.0801,1.0801,1.0855,1.0998,1.1145,1.1194,1.1194,1.1096,1.0763,1.0157,1.0333,1.0215,0.9596,0.9516,0.9321,0.8974,0.8844,0.8696,0.8612,0.8641,0.8678,0.8678,0.8958,0.9145,0.9286,0.9141,0.9149,0.9282,0.9056,0.8917,0.8816,0.8739,0.8653,0.8612,0.8612,0.8612,0.8641,0.8869,0.8974,0.9011,0.9434,0.9587,0.9567,0.9747,0.9727,0.9579,0.9579,0.9579,0.9579,0.9579,0.9579,0.9579,0.9579,0.9579,0.9579,0.9579,0.9727,0.9875,0.9969,1.0314,1.0556,1.0413,1.1135,1.1619,1.1096,1.1575,1.1838,1.1172,1.1061,1.1216,1.173,1.166,1.1533,1.1313,1.0649,1.0223,1.0102,1.0196,1.0357,1.0525,1.0653,1.079,1.1023,1.1137,1.1047,1.0726,1.1028,1.1099,1.0896,1.1094,1.1194,1.1194,1.1194,1.1146,1.1061,1.0962,1.0872,1.0778,1.057,1.0206,0.9687,0.9477,0.9168,0.8805,0.8748,0.9143,0.9818,1.0081,1.0361,1.0466]}]]